[[{"header":{"parameterUnit":"m.s-1","parameterCategory":1,"la1":30.6,"la2":29.2853,"lo1":-89.7004,"lo2":-87.6739,"dy":0.0162,"dx":0.0183,"nx":112,"ny":82,"refTime":"2025-02-03T06:00:00:Z","depth":0,"parameterNumber":2,"parameterNumberName":"U-component_of_WINDS"},"data":[0.0,0.0,0.0,0.0,0.0,0.0,0.0,0.0,0.0,0.0,0.0,0.0,0.0,0.0,0.0,0.0,0.0,0.0,0.0,0.0,0.0,0.0,0.0,0.0,0.0,0.0,0.0,0.0,0.0,0.0,0.0,0.0,0.0,0.0,0.0,0.0,0.0,0.0,0.0,0.0,0.0,0.0,0.0,0.0,0.0,0.0,0.0,0.0,0.0,0.0,0.0,0.0,0.0,0.0,0.0,0.0,0.0,0.0,0.0,0.0,0.0,0.0,0.0,0.0,0.0,0.0,0.0,0.0,0.0,0.0,0.0,0.0,0.0,0.0,0.0,0.0,0.0,0.0,0.0,0.0,0.0,0.0,0.0,0.0,0.0,0.0,0.0,0.0,0.0,0.0,0.0,0.3746,0.2033,0.0749,0.0374,-0.0075,-0.024,-0.0015,0.0,0.0,0.0,0.0,0.0,0.0,0.0,0.0,0.0,0.0,0.0,0.0,0.0,0.0,0.0,0.0,0.0,0.0,0.0,0.0,0.0,0.0,0.0,0.0,0.0,0.0,0.0,0.0,0.0,0.0,0.0,0.0,0.0,0.0,0.0,0.0,0.0,0.0,0.0,0.0,0.0,0.0,0.0,0.0,0.0,0.0,0.0,0.0,0.0,0.0,0.0,0.0,0.0,0.0,0.0,0.0,0.0,0.0,0.0,0.0,0.0,0.0,0.0,0.0,0.0,0.0,0.0,0.0,0.0,0.0,0.0,0.0,0.0,0.0,0.0,0.0,0.0,0.0,0.0,0.0,0.0,0.0,0.0,0.0,0.0,0.0,0.0,0.0,0.0,0.0,0.0,0.0,0.0,0.0,0.0,0.0,0.0,0.0,0.0,0.0,0.0,0.0,0.0,0.0,0.3567,0.229,0.1397,0.0678,0.011,-0.0011,-0.0041,0.0,0.0,0.0,0.0,0.0,0.0,0.0,0.0,0.0,0.0,0.0,0.0,0.0,0.0,0.0,0.0,0.0,0.0,0.0,0.0,0.0,0.0,0.0,0.0,0.0,0.0,0.0,0.0,0.0,0.0,0.0,0.0,0.0,0.0,0.0,0.0,0.0,0.0,0.0,0.0,0.0,0.0,0.0,0.0,0.0,0.0,0.0,0.0,0.0,0.0,0.0,0.0,0.0,0.0,0.0,0.0,0.0,0.0,0.0,0.0,0.0,0.0,0.0,0.0,0.0,0.0,0.0,0.0,0.0,0.0,0.0,0.0,0.0,0.0,0.0,0.0,0.0,0.0,0.0,0.0,0.0,0.0,0.0,0.0,0.0,0.0,0.0,0.0,0.0,0.0,0.0,0.0,0.0,0.0,0.0,0.0,0.0,0.0,0.0,0.0,0.0,0.0,0.0,0.0,0.4246,0.3199,0.169,0.1156,0.0659,0.0056,0.0,0.0,0.0,0.0078,0.0,0.0,0.0,0.0,0.0,0.0,0.0,0.0,0.0,0.0,0.0,0.0,0.0,0.0,0.0,0.0,0.0,0.0,0.0,0.0,0.0,0.0,0.0,0.0,0.0,0.0,0.0,0.0,0.0,0.0,0.0,0.0,0.0,0.0,0.0,0.0,0.0,0.0,0.0,0.0,0.0,0.0,0.0,0.0,0.0,0.0,0.0,0.0,0.0,0.0,0.0,0.0,0.0,0.0,0.0,0.0,0.0,0.0,0.0,0.0,0.0,0.0,0.0,0.0,0.0,0.0,0.0,0.0,0.0,0.0,0.0,0.0,0.0,0.0,0.0,0.0,0.0,0.0,0.0,0.0,0.0,0.0,0.0,0.0,0.0,0.0,0.0,0.0,0.0,0.0,0.0,0.0,0.0,0.0,0.0,0.0,0.0,0.0,0.0,0.0,0.0,0.0,0.4005,0.3066,0.1574,0.1112,0.0659,0.0056,0.0,0.0022,0.0089,0.0286,0.0,0.0,0.0,0.0,0.0,0.0,0.0,0.0,0.0,0.0,0.0,0.0,0.0,0.0,0.0,0.0,0.0,0.0,0.0,0.0,0.0,0.0,0.0,0.0,0.0,0.0,0.0,0.0,0.0,0.0,0.0,0.0,0.0,0.0,0.0,0.0,0.0,0.0,0.0,0.0,0.0,0.0,0.0,0.0,0.0,0.0,0.0,0.0,0.0,0.0,0.0,0.0,0.0,0.0,0.0,0.0,0.0,0.0,0.0,0.0,0.0,0.0,0.0,0.0,0.0,0.0,0.0,0.0,0.0,0.0,0.0,0.0,0.0,0.0,0.0,0.0,0.0,0.0,0.0,0.0,0.0,0.0,0.0,0.0,0.0,0.0,0.0,0.0,0.0,0.0,0.0,0.0,0.0,0.0,0.0,0.0,0.0,0.0,0.0,0.0,0.0,0.0,0.4048,0.347,0.193,0.1242,0.0659,0.0056,0.0,0.0108,0.0356,0.0393,0.0,0.0,0.0,0.0,0.0,0.0,0.0,0.0,0.0,0.0,0.0,0.0,0.0,0.0,0.0,0.0,0.0,0.0,0.0,0.0,0.0,0.0,0.0,0.0,0.0,0.0,0.0,0.0,0.0,0.0,0.0,0.0,0.0,0.0,0.0,0.0,0.0,0.0,0.0,0.0,0.0,0.0,0.0,0.0,0.0,0.0,0.0,0.0,0.0,0.0,0.0,0.0,0.0,0.0,0.0,0.0,0.0,0.0,0.0,0.0,0.0,0.0,0.0,0.0,0.0,0.0,0.0,0.0,0.0,0.0,0.0,0.0,0.0,0.0,0.0,0.0,0.0,0.0,0.0,0.0,0.0,0.0,0.0,0.0,0.0,0.0,0.0,0.0,0.0,0.0,0.0,0.0,0.0,0.0,0.0,0.0,0.0,0.0,0.0,0.0,0.0,0.0,0.3255,0.264,0.0,0.1132,0.0659,0.0056,0.0,0.0111,0.0384,0.0,0.0,0.0,0.0,0.0,0.0,0.0,0.0,0.0,0.0,0.0,0.0,0.0,0.0,0.0,0.0,0.0,0.0,0.0,0.0,0.0,0.0,0.0,0.0,0.0,0.0,0.0,0.0,0.0,0.0,0.0,0.0,0.0,0.0,0.0,0.0,0.0,0.0,0.0,0.0,0.0,0.0,0.0,0.0,0.0,0.0,0.0,0.0,0.0,0.0,0.0,0.0,0.0,0.0,0.0,0.0,0.0,0.0,0.0,0.0,0.0,0.0,0.0,0.0,0.0,0.0,0.0,0.0,0.0,0.0,0.0,0.0,0.0,0.0,0.0,0.0,0.0,0.0,0.0,0.0,0.0,0.0,0.0,0.0,0.0,0.0,0.0,0.0,0.0,0.0,0.0,0.0,0.0,0.0,0.0,0.0,0.0,0.0,0.0,0.0,0.0,0.0,0.3255,0.2871,0.2286,0.0,0.1057,0.0659,0.0056,0.0,0.0144,0.0471,0.0,0.0,0.0,0.0,0.0,0.0,0.0,0.0,0.0,0.0,0.0,0.0,0.0,0.0,0.0,0.0,0.0,0.0,0.0,0.0,0.0,0.0,0.0,0.0,0.0,0.0,0.0,0.0,0.0,0.0,0.0,0.0,0.0,0.0,0.0,0.0,0.0,0.0,0.0,0.0,0.0,0.0,0.0,0.0,0.0,0.0,0.0,0.0,0.0,0.0,0.0,0.0,0.0,0.0,0.0,0.0,0.0,0.0,0.0,0.0,0.0,0.0,0.0,0.0,0.0,0.0,0.0,0.0,0.0,0.0,0.0,0.0,0.0,0.0,0.0,0.0,0.0,0.0,0.0,0.0,0.0,0.0,0.0,0.0,0.0,0.0,0.0,0.0,0.0,0.0,0.0,0.0,0.0,0.0,0.0,0.0,0.0,0.0,0.0,0.0,0.0,0.0,0.3161,0.3093,0.2629,0.1427,0.1057,0.0648,0.0056,0.0,0.0205,0.0,0.0,0.0,0.0,0.0,0.0,0.0,0.0,0.0,0.0,0.0,0.0,0.0,0.0,0.0,0.0,0.0,0.0,0.0,0.0,0.0,0.0,0.0,0.0,0.0,0.0,0.0,0.0,0.0,0.0,0.0,0.0,0.0,0.0,0.0,0.0,0.0,0.0,0.0,0.0,0.0,0.0,0.0,0.0,0.0,0.0,0.0,0.0,0.0,0.0,0.0,0.0,0.0,0.0,0.0,0.0,0.0,0.0,0.0,0.0,0.0,0.0,0.0,0.0,0.0,0.0,0.0,0.0,0.0,0.0,0.0,0.0,0.0,0.0,0.0,0.0,0.0,0.0,0.0,0.0,0.0,0.0,0.0,0.0,0.0,0.0,0.0,0.0,0.0,0.0,0.0,0.0,0.0,0.0,0.0,0.0,0.0,0.0,0.0,0.0,0.0,0.0,0.0,0.3073,0.2704,0.2162,0.1383,0.0844,0.0402,0.0034,0.0,0.0244,0.0806,0.0,0.0,0.0,0.0,0.0,0.0,0.0,0.0,0.0,0.0,0.0,0.0,0.0,0.0,0.0,0.0,0.0,0.0,0.0,0.0,0.0,0.0,0.0,0.0,0.0,0.0,0.0,0.0,0.0,0.0,0.0,0.0,0.0,0.0,0.0,0.0,0.0,0.0,0.0,0.0,0.0,0.0,0.0,0.0,0.0,0.0,0.0,0.0,0.0,0.0,0.0,0.0,0.0,0.0,0.0,0.0,0.0,0.0,0.0,0.0,0.0,0.0,0.0,0.0,0.0,0.0,0.0,0.0,0.0,0.0,0.0,0.0,0.0,0.0,0.0,0.0,0.0,0.0,0.0,0.0,0.0,0.0,0.0,0.0,0.0,0.0,0.0,0.0,0.0,0.0,0.0,0.0,0.0,0.0,0.0,0.0,0.0,0.0,0.0,0.0,0.0,0.0,0.2873,0.2372,0.1756,0.1019,0.0611,0.029,0.0022,0.0,0.0232,0.0786,0.0,0.0,0.0,0.0,0.0,0.0,0.0,0.0,0.0,0.0,0.0,0.0,0.0,0.0,0.0,0.0,0.0,0.0,0.0,0.0,0.0,0.0,0.0,0.0,0.0,0.0,0.0,0.0,0.0,0.0,0.0,0.0,0.0,0.0,0.0,0.0,0.0,0.0,0.0,0.0,0.0,0.0,0.0,0.0,0.0,0.0,0.0,0.0,0.0,0.0,0.0,0.0,0.0,0.0,0.0,0.0,0.0,0.0,0.0,0.0,0.0,0.0,0.0,0.0,0.0,0.0,0.0,0.0,0.0,0.0,0.0,0.0,0.0,0.0,0.0,0.0,0.0,0.0,0.0,0.0,0.0,0.0,0.0,0.0,0.0,0.0,0.0,0.0,0.0,0.0,0.0,0.0,0.0,0.0,0.0,0.0,0.0,0.0,0.0,0.0,0.0,0.0,0.2584,0.2086,0.1402,0.05,0.0379,0.0268,0.0022,0.0022,0.0227,0.0694,0.0,0.0,0.0,0.0,0.0,0.0,0.0,0.0,0.0,0.0,0.0,0.0,0.0,0.0,0.0,0.0,0.0,0.0,0.0,0.0,0.0,0.0,0.0,0.0,0.0,0.0,0.0,0.0,0.0,0.0,0.0,0.0,0.0,0.0,0.0,0.0,0.0,0.0,0.0,0.0,0.0,0.0,0.0,0.0,0.0,0.0,0.0,0.0,0.0,0.0,0.0,0.0,0.0,0.0,0.0,0.0,0.0,0.0,0.0,0.0,-0.0052,0.0,0.0,0.0,0.0,0.0,0.0,0.0,0.0,0.0,0.0,0.0,0.0,0.0,0.0,0.0,0.0,0.0,0.0,0.0,0.0,0.0,0.0,0.0,0.0,0.0,0.0,0.0,0.0,0.0,0.0,0.0,0.0,0.0,0.0,0.0,0.0,0.0,0.0,0.0,0.0,0.0,0.233,0.1768,0.1143,0.0467,0.0213,0.0067,0.0,0.019,0.0465,0.0836,0.1052,0.0,0.0,0.0,0.0,0.0,0.0,0.0,0.0,0.0,0.0,0.0,0.0,0.0,0.0,0.0,0.0,0.0,0.0,0.0,0.0,0.0,0.0,0.0,0.0,0.0,0.0,0.0,0.0,0.0,0.0,0.0,0.0,0.0,0.0,0.0,0.0,0.0,0.0,0.0,0.0,0.0,0.0,0.0,0.0,0.0,0.0,0.0,0.0,0.0,0.0,0.0,0.0,0.0,0.0,0.0,0.0,0.0,0.0,0.0,0.0,0.0057,0.0,0.0,0.0,0.0,0.0,0.0,0.0,0.0,0.0,0.0,0.0,0.0,0.0,0.0,0.0,0.0,0.0,0.0,0.0,0.0,0.0,0.0,0.0,0.0,0.0,0.0,0.0,0.0,0.0,0.0,0.0,0.0,0.0,0.0,0.0,0.0,0.0,0.0,0.0,0.0,0.222,0.1561,0.0879,0.0268,0.0078,0.0,0.0,0.0123,0.0402,0.087,0.0972,0.0,0.0,0.0,0.0,0.0,0.0,0.0,0.0,0.0,0.0,0.0,0.0,0.0,0.0,0.0,0.0,0.0,0.0,0.0,0.0,0.0,0.0,0.0,0.0,0.0,0.0,0.0,0.0,0.0,0.0,0.0,0.0,0.0,0.0,0.0,0.0,0.0,0.0,0.0,0.0,0.0,0.0,0.0,0.0,0.0,0.0,0.0,0.0,0.0,0.0,0.0,0.0,0.0,-0.0057,0.0,0.0,-0.0047,-0.0187,-0.038,-0.0111,-0.0056,-0.014,0.0,0.0,0.0,0.0,0.0,0.0,0.0,0.0,0.0,0.0,0.0,0.0,0.0,0.0,0.0,0.0,0.0,0.0,0.0,0.0,0.0,0.0,0.0,0.0,0.0,0.1957,0.1766,0.0,0.0,0.0,0.0,0.0,0.0,0.0,0.0,0.0,0.0,0.0,0.0,0.2061,0.137,0.0671,0.0067,0.0,0.0,0.0,0.0045,0.028,0.0781,0.0812,0.107,0.0,0.0,0.0,0.0,0.0,0.0,0.0,0.0,0.0,0.0,0.0,0.0,0.0,0.0,0.0,0.0,0.0,0.0,0.0,0.0,0.0,0.0,0.0,0.0,0.0,0.0,0.0,0.0,0.0,0.0,0.0,0.0,-0.0919,-0.0678,0.0,0.0,0.0,0.0,0.0,0.0,0.0,0.0,0.0,0.0,0.0,0.0,0.0,-0.0166,-0.0058,-0.0039,-0.003,-0.0022,-0.0011,0.0,-0.0011,-0.0239,-0.0372,-0.0416,-0.065,0.0,-0.0752,-0.045,0.0,0.0,0.0,0.0,0.0,0.0,0.0,0.0,0.0,0.0,0.0,0.0,0.0,0.0,0.0,0.0,0.0,0.0,0.0,0.0,0.0,0.0,0.2099,0.1898,0.1825,0.1792,0.0,0.1791,0.1861,0.2065,0.0,0.0,0.0,0.0,0.0,0.0,0.0,0.0,0.1506,0.111,0.0671,0.0067,0.0,0.0,0.0,0.0213,0.0379,0.0457,0.0939,0.1211,0.1195,0.1413,0.0,0.0,0.0,0.0,0.0,0.0,0.0,0.0,0.0,0.0,0.0,0.0,0.0,0.0,0.0,0.0,0.0,0.0,0.0,0.0,0.0,0.0,0.0,0.0,0.0,0.0,0.0,0.0,0.0,-0.0835,-0.0872,-0.0565,-0.087,-0.1016,0.0,0.0,0.0,0.0,0.0,0.0,0.0,0.0,0.0,-0.0484,-0.0367,-0.0212,0.0,0.0,0.0,0.0,-0.0157,-0.0223,-0.0234,-0.0546,-0.0758,-0.0914,-0.1061,-0.1227,-0.1355,-0.0675,-0.0401,-0.0358,0.0,0.0,0.0,0.0,0.0657,0.0652,0.0922,0.0995,0.0,0.0,0.0,0.0,0.0,0.0,0.0,0.0,0.0,0.0,0.0,0.0,0.0,0.1825,0.1803,0.1803,0.1803,0.1805,0.1814,0.0,0.1974,0.2098,0.2221,0.0,0.0,0.0,0.0,0.0,0.1381,0.1068,0.0671,0.0067,0.0,0.0,0.0,0.0112,0.0234,0.039,0.0825,0.1121,0.1206,0.1461,0.1582,0.0,0.0,0.0,0.0,0.0,0.0,0.0,0.0,0.0,0.0,0.0,0.0,0.0,0.0,0.0,0.0,0.0,0.0,0.0,0.0,0.0,0.0,0.0,0.0,0.0,0.0,0.0,0.0,-0.0845,-0.0956,-0.0617,-0.0962,-0.1106,0.0,0.0,0.0,0.0,0.0,0.0,-0.0757,-0.0681,-0.0659,-0.0745,-0.0608,-0.043,-0.0235,-0.0235,-0.0235,-0.0235,-0.0435,-0.0523,-0.0535,-0.0911,-0.116,-0.131,-0.1428,-0.1604,-0.1736,-0.0957,-0.059,-0.048,0.0011,0.0242,0.0323,0.0578,0.0555,0.0452,0.0801,0.0924,0.0961,0.116,0.0,0.1383,0.1378,0.0,0.0,0.0,0.0,0.2039,0.1986,0.177,0.1582,0.1662,0.1673,0.1692,0.1781,0.1803,0.1793,0.0,0.1837,0.1927,0.2014,0.0,0.0,0.0,0.0,0.1771,0.1266,0.0946,0.057,0.0056,0.0,0.0,0.0,0.0,0.009,0.029,0.0591,0.0903,0.1185,0.1411,0.1611,0.1798,0.0,0.0,0.0,0.0,0.0,0.0,0.0,0.0,0.0,0.0,0.0,0.0,0.0,0.0,0.0,0.0,0.0,0.0,0.0,0.0,0.0,0.0,0.0,0.0,0.0,0.0,0.0,0.0,0.0,-0.1107,-0.1365,0.0,0.0,0.0,0.0,-0.0243,-0.0213,-0.0273,-0.0419,-0.0422,-0.0561,-0.0876,-0.0876,-0.0866,-0.0859,-0.086,-0.086,-0.0859,-0.087,-0.087,-0.0895,-0.135,-0.1474,-0.1326,-0.1769,-0.1904,-0.1773,-0.1408,-0.1105,-0.0843,-0.0497,-0.02,0.0025,0.0041,0.0195,0.0403,0.0431,0.0931,0.1559,0.1575,0.1835,0.2143,0.2143,0.2171,0.0,0.0,0.1827,0.1593,0.1392,0.115,0.1003,0.1263,0.133,0.1408,0.1725,0.1803,0.1876,0.0,0.217,0.2285,0.2602,0.0,0.2559,0.2257,0.1985,0.1595,0.0992,0.0635,0.0313,0.0034,0.0,0.0,0.0,0.0,0.0011,0.0022,0.0279,0.0579,0.0903,0.117,0.1466,0.1792,0.1788,0.0,0.0,0.0,0.0,0.0,0.0,0.0,0.0,0.0,0.0,0.0,0.0,0.0,0.0,0.0,0.0,0.0,0.0,0.0,0.0,0.0,0.0,0.0,0.0,0.0,0.0,0.0,0.0,-0.1236,-0.1527,0.0,-0.1193,-0.1006,-0.0832,-0.0661,-0.0451,-0.0523,-0.0952,-0.0977,-0.1038,-0.1152,-0.1163,-0.1072,-0.0903,-0.0988,-0.1027,-0.1027,-0.133,-0.1475,-0.1491,-0.1837,-0.1902,-0.1769,-0.2012,-0.2056,-0.1925,-0.1896,-0.1489,-0.0875,-0.0668,-0.0351,0.0,0.0,0.0056,0.0192,0.0482,0.0782,0.105,0.1217,0.1314,0.1425,0.1717,0.1814,0.1805,0.1758,0.1681,0.1508,0.1136,0.0974,0.0922,0.1025,0.1038,0.1076,0.1194,0.135,0.151,0.16,0.1792,0.1978,0.2099,0.2121,0.2077,0.1957,0.1681,0.1338,0.0948,0.0612,0.0301,0.0034,0.0,0.0,0.0,0.0,0.0078,0.0246,0.0547,0.0847,0.1141,0.1452,0.1759,0.2055,0.2058,0.2055,0.0,0.0,0.0,0.0,0.0,0.0,0.0,0.0,0.0,0.0,0.0,0.0,0.0,0.0,0.0,0.0,0.0,0.0,0.0,0.0,0.0,0.0,0.0,0.0,0.0,0.0,-0.1368,-0.1452,-0.1662,-0.1673,-0.133,-0.1139,-0.0994,-0.0903,-0.069,-0.0781,-0.1274,-0.1296,-0.1352,-0.1463,-0.1516,-0.1455,-0.1279,-0.1409,-0.1474,-0.1474,-0.1791,-0.1941,-0.1941,-0.2187,-0.2214,-0.207,-0.2231,-0.2211,-0.2086,-0.2235,-0.1869,-0.1181,-0.0936,-0.0492,0.0,0.0,0.0,0.0063,0.053,0.0693,0.0751,0.1072,0.1108,0.1089,0.1399,0.1503,0.1495,0.1448,0.1368,0.1205,0.0829,0.0658,0.0617,0.0714,0.0726,0.08,0.1078,0.1148,0.121,0.1371,0.1619,0.1759,0.1648,0.1626,0.1656,0.1722,0.1409,0.1118,0.0986,0.0738,0.0458,0.0168,0.0134,0.0179,0.0291,0.0202,0.0257,0.0546,0.0781,0.1016,0.1285,0.1519,0.1814,0.2193,0.2287,0.2312,0.2269,0.0,0.0,0.0,0.0,0.0,0.0,0.0,0.0,0.0,0.0,0.0,0.0,0.0,0.0,0.0,0.0,0.0,0.0,0.0,0.0,0.0,0.0,0.0,-0.1068,-0.1501,-0.1792,-0.1803,-0.1803,-0.1673,-0.1341,-0.131,-0.1196,-0.0953,-0.0929,-0.1042,-0.132,-0.1331,-0.1474,-0.1805,-0.194,-0.2005,-0.2005,-0.214,-0.2207,-0.221,-0.2217,-0.2217,-0.2224,-0.2419,-0.2402,-0.2224,-0.2427,-0.2392,-0.2227,-0.2431,-0.223,-0.1754,-0.1306,-0.0677,-0.0047,-0.0033,-0.0033,0.0017,0.0487,0.0639,0.0723,0.1104,0.1255,0.1255,0.1271,0.1288,0.1257,0.1123,0.0908,0.0655,0.0443,0.0197,0.0071,0.0324,0.0394,0.0604,0.1383,0.1204,0.1022,0.1478,0.1682,0.1672,0.134,0.1284,0.1355,0.1553,0.119,0.0,0.106,0.0963,0.0758,0.0434,0.0401,0.0535,0.087,0.0601,0.0557,0.0892,0.0914,0.1038,0.1308,0.1321,0.1593,0.2182,0.2466,0.2541,0.2412,0.0,0.0,0.0,0.0,0.0,0.0,0.0,0.0,0.0,0.0,0.0,0.0,0.0,0.0,0.0,0.0,0.0,0.0,0.0,0.0,0.0,0.0,-0.1548,-0.1284,-0.1353,-0.153,-0.1773,-0.1803,-0.1759,-0.1673,-0.1441,-0.1408,-0.1672,-0.1519,-0.1571,-0.1937,-0.1956,-0.1995,-0.2087,-0.2127,-0.2147,-0.2147,-0.232,-0.2464,-0.2561,-0.2656,-0.271,-0.271,-0.2764,-0.2655,-0.2431,-0.2585,-0.2565,-0.2434,-0.2589,-0.2372,-0.1933,-0.18,-0.1423,-0.0945,-0.0936,-0.0943,-0.0918,-0.0792,-0.0553,-0.0303,-0.0185,0.0084,0.0419,0.0755,0.0873,0.0854,0.0823,0.0755,0.0605,0.0209,0.0048,0.0016,0.0096,0.0112,0.0174,0.0393,0.0494,0.0576,0.0704,0.0961,0.1121,0.1031,0.1004,0.1024,0.1083,0.0985,0.0,0.0614,0.0563,0.0501,0.0412,0.0401,0.0535,0.087,0.0814,0.0881,0.1174,0.1185,0.133,0.1648,0.1662,0.1836,0.2193,0.2466,0.2634,0.0,0.0,0.0,0.0,0.0,0.0,0.0,0.0,0.0,0.0,0.0,0.0,0.0,0.0,0.0,0.0,0.0,0.0,0.0,0.0,0.0,0.0,-0.173,-0.1867,-0.1704,-0.168,-0.1754,-0.1949,-0.1974,-0.1974,-0.1974,-0.179,-0.1787,-0.206,-0.1943,-0.1954,-0.219,-0.2197,-0.2197,-0.2197,-0.2282,-0.2361,-0.2407,-0.2587,-0.2733,-0.2866,-0.2954,-0.3106,-0.3365,-0.3365,-0.3418,0.0,-0.3591,-0.3496,-0.3293,-0.3374,-0.3185,0.0,0.0,0.0,0.0,0.0,-0.1303,-0.1294,-0.1306,-0.1139,-0.0956,-0.0956,-0.0771,-0.0486,-0.0218,-0.0134,-0.0134,-0.0134,-0.0134,-0.0201,-0.0469,-0.0536,-0.0503,-0.0336,-0.0286,-0.0183,0.0209,0.0256,0.0298,0.0486,0.0,0.0,0.0521,0.0785,0.0946,0.0828,0.1032,0.1065,0.0733,0.0742,0.0736,0.0624,0.0479,0.0579,0.1027,0.0961,0.0,0.0,0.0,0.1596,0.1792,0.1913,0.0,0.0,0.0,0.0,0.0,0.0,0.0,0.0,0.3395,0.3517,0.0,0.0,0.0,0.0,0.0,0.0,0.0,0.0,0.0,0.0,0.0,0.0,0.0,0.0,0.0,0.0,-0.1943,-0.1962,-0.2206,-0.2248,-0.2248,-0.22,-0.2197,-0.2197,-0.2197,-0.2197,-0.2204,-0.2234,-0.2234,-0.2241,-0.2261,0.0,0.0,0.0,0.0,-0.2631,-0.282,-0.2962,-0.3131,-0.3319,-0.3319,-0.3606,-0.4126,-0.4126,-0.4404,-0.4902,-0.4902,-0.4724,-0.4446,-0.4446,-0.431,-0.3981,-0.2753,-0.2034,-0.1701,-0.1701,-0.1701,-0.1701,-0.1633,0.0,0.0,-0.1448,-0.1398,-0.1364,-0.1364,-0.1364,-0.1364,-0.1364,-0.1364,-0.1364,-0.1364,-0.134,-0.125,-0.0881,-0.0743,-0.0471,0.037,0.0252,0.0116,0.0545,0.0292,0.0,0.0,0.0547,0.0916,0.0732,0.1134,0.1364,0.1096,0.1145,0.1107,0.0871,0.0,0.0,0.1208,0.1061,0.117,0.1703,0.1781,0.1803,0.1803,0.2029,0.215,0.215,0.2481,0.2643,0.2643,0.295,0.3118,0.3146,0.2963,0.2989,0.0,0.0,0.0,0.0,0.0,0.0,0.0,0.0,0.0,0.0,0.0,0.0,0.0,0.0,0.0,-0.2147,-0.227,-0.2378,-0.2441,-0.2532,-0.2506,-0.2238,-0.2197,-0.2197,-0.2197,-0.2197,-0.2272,-0.2431,-0.2441,-0.2496,-0.2604,-0.2595,0.0,-0.2595,-0.274,-0.3073,-0.3586,-0.3719,-0.4096,-0.4703,0.0,0.0,-0.4883,-0.4883,-0.4891,-0.4902,-0.4902,-0.4856,-0.4795,-0.4795,-0.4769,-0.4674,-0.4146,-0.4055,-0.4196,-0.4196,-0.4196,-0.4141,-0.3641,-0.3231,-0.2835,-0.2409,-0.2012,-0.1706,-0.1706,-0.1706,0.0,-0.1706,-0.1706,-0.1706,-0.1706,-0.1621,-0.1521,-0.1449,-0.1057,-0.0655,-0.0471,-0.0202,0.0033,0.0125,0.0062,0.0,0.0,0.0112,0.033,0.0657,0.0663,0.0674,0.0768,0.0662,0.0552,0.0505,0.0434,0.0557,0.0948,0.1127,0.1274,0.1385,0.1648,0.1803,0.1803,0.1847,0.188,0.188,0.215,0.2291,0.2291,0.2837,0.3206,0.3424,0.3387,0.3501,0.0,0.0,0.0,0.0,0.0,0.0,0.0,0.0,0.0,0.0,0.0,-0.2501,-0.2325,0.0,-0.2297,-0.2435,-0.2584,-0.2696,-0.2696,-0.2764,-0.2713,-0.2471,-0.2444,-0.2444,-0.2444,-0.2444,-0.2489,-0.2592,-0.2599,-0.2634,-0.2692,-0.2891,-0.3003,-0.3003,-0.3431,-0.3832,-0.4195,-0.4423,-0.4778,-0.5199,-0.5199,-0.535,-0.5641,-0.5641,-0.5765,-0.5945,-0.5945,-0.5873,-0.574,-0.5613,-0.5631,-0.574,-0.5569,-0.5254,-0.4902,-0.4902,-0.4902,-0.4859,-0.4556,-0.4304,-0.4052,-0.3785,-0.3552,-0.3353,-0.3353,-0.3353,-0.3295,-0.2991,-0.2895,-0.2837,-0.2531,-0.2395,-0.2296,-0.2093,-0.1741,-0.1326,-0.0891,-0.0564,-0.0281,-0.0047,0.0,0.0,0.0,0.0,0.0083,0.0319,0.0583,0.0703,0.0572,0.0457,0.0395,0.0404,0.0275,0.0324,0.0624,0.105,0.1341,0.1444,0.1675,0.1829,0.1892,0.1833,0.1803,0.1803,0.1993,0.2103,0.2103,0.264,0.308,0.3405,0.3536,0.38,0.0,0.0,0.0,0.0,0.0,0.0,0.0,0.0,-0.3066,-0.2557,-0.2465,-0.2427,-0.2318,-0.2433,-0.2589,-0.2754,-0.2869,-0.2932,-0.2932,-0.2932,-0.2939,-0.2949,-0.2797,-0.2696,-0.2696,-0.2723,-0.273,-0.2699,-0.2807,-0.2861,-0.2812,-0.3216,-0.3459,-0.351,-0.4122,-0.4575,-0.4849,-0.5164,-0.5417,-0.5626,-0.5626,-0.5953,-0.6541,-0.6541,-0.681,-0.7328,-0.7328,-0.7216,-0.6991,-0.6784,-0.6807,-0.7012,-0.7012,-0.6383,-0.5479,-0.5358,-0.5306,-0.53,-0.519,-0.5151,-0.5132,-0.5015,-0.4976,-0.4976,-0.4976,-0.4976,-0.4855,-0.4245,-0.4069,-0.3932,-0.3347,-0.3188,-0.3066,-0.2733,-0.2444,-0.2054,-0.1307,-0.0931,-0.0619,-0.0218,-0.0059,0.0,0.0,0.0,0.0027,0.0119,0.0563,0.0782,0.0492,0.0379,0.0326,0.0322,0.0132,0.0114,0.0379,0.0903,0.1311,0.1527,0.1733,0.1882,0.1992,0.1892,0.185,0.188,0.1964,0.2012,0.2043,0.2488,0.2886,0.3263,0.3538,0.3919,-0.5748,-0.466,-0.3955,-0.3877,-0.3899,-0.3827,0.0,0.0,-0.3454,-0.2802,-0.2672,-0.2667,-0.2641,-0.2658,-0.2764,-0.3007,-0.3067,-0.3077,-0.3077,-0.3077,-0.3262,-0.3788,-0.3172,-0.2696,-0.2696,-0.2805,-0.2825,-0.271,-0.3199,-0.3422,-0.3237,-0.3674,-0.403,-0.4272,-0.4471,-0.4955,-0.5752,-0.5961,-0.6319,-0.681,-0.681,-0.7126,-0.7704,-0.7704,-0.8008,-0.8513,-0.8513,-0.8488,-0.8468,-0.8435,-0.8435,-0.8476,-0.8476,-0.8087,-0.7492,-0.6969,-0.6754,-0.6692,-0.6217,-0.6054,-0.5964,-0.5423,-0.5253,-0.5253,-0.5253,-0.5253,-0.5125,-0.4521,-0.435,-0.4224,-0.3676,-0.3447,-0.3348,-0.3241,-0.2831,-0.2392,-0.2122,-0.1442,-0.0821,-0.0661,-0.0291,0.0,0.0,0.0,0.0148,0.0555,0.0342,0.0261,0.0616,0.0304,0.0044,0.0042,0.0013,0.0109,0.0381,0.0736,0.1054,0.1314,0.1741,0.1979,0.1999,0.1982,0.2036,0.2157,0.2056,0.2063,0.2184,0.2531,0.2842,0.3135,0.3398,0.3844,-0.6043,-0.487,0.0,0.0,-0.3887,-0.3732,-0.3379,-0.3211,-0.3041,-0.2755,-0.2705,-0.2756,-0.2901,-0.2937,-0.3005,0.0,-0.3276,-0.3373,-0.369,-0.373,-0.3872,-0.4196,-0.4084,-0.398,-0.398,-0.3863,-0.3757,-0.3689,-0.3918,-0.3963,-0.3721,-0.4293,-0.483,-0.5251,-0.5584,-0.6097,-0.6756,-0.7059,-0.7301,-0.753,-0.7835,-0.8124,-0.8357,-0.8357,-0.848,-0.8695,-0.8695,-0.8695,-0.8695,-0.8695,-0.8695,-0.8695,-0.8695,-0.8561,-0.8296,-0.7739,-0.7301,-0.6958,-0.6753,-0.6668,-0.6619,-0.638,-0.6295,-0.6295,-0.6295,-0.6295,-0.6167,-0.561,-0.5195,-0.4783,-0.4224,-0.3785,-0.3508,-0.3483,-0.3219,-0.2854,-0.2452,-0.1997,-0.1471,-0.0823,-0.0536,-0.032,-0.0045,0.0,0.0061,0.0267,0.0125,0.0065,0.0259,0.0126,0.0,0.0,0.0,0.0051,0.0159,0.0438,0.0805,0.1278,0.1589,0.1931,0.228,0.2174,0.2147,0.2194,0.2255,0.2314,0.2379,0.2589,0.2882,0.3213,0.3335,0.3663,-0.6011,0.0,0.0,-0.4162,-0.4056,-0.3946,-0.3715,-0.35,-0.3348,-0.3323,-0.3182,-0.3128,-0.3366,-0.326,-0.3272,-0.3611,-0.3682,-0.3868,-0.4428,-0.4494,-0.461,-0.4862,-0.5023,-0.5269,-0.5686,-0.5044,-0.4583,-0.4544,-0.4802,-0.4874,-0.4649,-0.5413,-0.6062,-0.6517,-0.6864,-0.7263,-0.7757,-0.8,-0.8118,-0.8118,-0.8521,-0.8777,-0.8918,-0.9079,-0.9139,-0.9139,-0.9139,-0.9139,-0.9139,-0.9139,-0.9139,-0.9139,-0.9139,-0.9059,-0.8857,-0.8316,-0.7759,-0.7217,-0.7063,-0.7,-0.7,-0.7,-0.7,-0.7,-0.7,-0.7,-0.6894,-0.6349,-0.5766,-0.5151,-0.4565,-0.4008,-0.3604,-0.3604,-0.3493,-0.3267,-0.282,-0.2493,-0.2042,-0.1265,-0.0984,-0.0756,-0.0409,-0.0362,-0.0315,-0.0205,-0.0196,-0.0151,-0.0017,0.0,0.0,0.0,0.0,0.0,0.0,0.0251,0.0586,0.103,0.1303,0.1664,0.2094,0.2103,0.2101,0.2138,0.2377,0.2518,0.2563,0.2658,0.2841,0.3134,0.3165,0.3378,0.0,0.0,-0.4402,-0.4389,-0.4582,-0.4735,-0.4599,-0.4804,-0.4993,-0.4864,-0.4366,-0.4004,-0.4146,-0.3688,-0.3535,-0.4245,-0.4361,-0.4578,-0.5185,-0.5276,-0.5486,-0.6085,-0.587,-0.6244,0.0,-0.6147,-0.5021,-0.4907,-0.5854,-0.6374,-0.6238,-0.718,-0.7843,-0.8119,-0.8152,-0.8315,-0.8659,-0.8675,-0.8675,-0.8675,-0.8695,-0.8978,-0.9498,-1.002,-1.0264,-1.0264,-1.0264,-1.0264,-1.0264,-1.0264,-1.0264,-1.0264,-1.0264,-0.9942,-0.9419,-0.8878,-0.8337,-0.7787,-0.721,-0.7,-0.7,-0.7,-0.7,-0.7,-0.7,-0.7,-0.6894,-0.6349,-0.5766,-0.5151,-0.4565,-0.4008,-0.3604,-0.3604,-0.36,-0.3531,-0.3312,-0.2863,-0.2422,-0.219,-0.1681,-0.1285,-0.1268,-0.1268,-0.1136,-0.0737,-0.0671,-0.0521,-0.005,0.0,0.0,0.0,0.0,0.0,0.0,0.0252,0.0405,0.0433,0.0857,0.1131,0.1148,0.1577,0.1873,0.2001,0.2336,0.2558,0.2689,0.2696,0.2712,0.2716,0.2849,0.2918,0.0,0.0,-0.4722,-0.4937,-0.4994,-0.5028,-0.5174,-0.5083,-0.4911,-0.4738,-0.4546,-0.4304,-0.3993,-0.3842,-0.3876,-0.4207,-0.4333,-0.4761,-0.5766,-0.5894,-0.6166,-0.6902,-0.7099,0.0,0.0,0.0,0.0,-0.7076,-0.7433,-0.7538,-0.7309,-0.778,-0.8268,-0.8725,-0.8604,-0.8751,-0.9219,-0.9239,-0.9239,-0.9239,-0.9597,-0.9863,-1.004,-1.0225,-1.0303,-1.0303,-1.0303,-1.0303,-1.0303,-1.0303,-1.0303,-1.0303,-1.0303,-1.0186,-0.9922,-0.9019,-0.8582,-0.8296,-0.7335,-0.7,-0.7,-0.7,-0.7,-0.7,-0.7,-0.7,-0.6958,-0.6789,-0.6322,-0.5766,-0.5151,-0.4565,-0.4049,-0.3689,-0.3604,-0.3559,-0.3406,-0.3187,-0.2858,-0.2302,-0.2035,-0.1763,-0.1363,-0.1305,-0.1156,-0.0756,-0.0437,-0.0185,-0.0017,0.0,0.0,0.0,0.0,0.0,0.0,0.0076,0.0265,0.0583,0.0742,0.0961,0.1218,0.1382,0.1494,0.154,0.1957,0.2228,0.2364,0.2688,0.2665,0.236,0.2422,0.2213,-0.6205,-0.5738,-0.5351,-0.5561,-0.5708,-0.5843,-0.6107,-0.6019,-0.5807,-0.5643,-0.5307,-0.4918,-0.4423,-0.4241,-0.4264,-0.4665,-0.4804,-0.5254,-0.6331,-0.6668,-0.6996,-0.7517,-0.7931,0.0,0.0,0.0,0.0,-0.8359,-0.8553,-0.8585,-0.8417,-0.8748,-0.911,-0.946,-0.9343,-0.9511,-0.9989,-0.9989,-1.0084,-1.0253,-1.059,-1.0674,-1.0508,-1.0508,-1.0449,-1.0303,-1.0303,-1.0303,-1.0303,-1.0303,-1.0186,-1.002,-1.002,-1.002,-0.9902,-0.9019,-0.8817,-0.8797,-0.7454,-0.7,-0.7,-0.7,-0.7,-0.7,-0.7,-0.7,-0.7,-0.7,-0.6619,-0.6072,-0.5459,-0.4848,-0.4264,-0.3729,-0.3604,-0.3576,-0.3499,-0.3409,-0.3175,-0.2629,-0.2476,-0.2319,-0.1875,-0.1657,-0.1457,-0.1209,-0.0638,-0.0185,-0.0017,0.0,0.0,0.0,0.0,0.0,0.0,0.0,0.0132,0.043,0.0445,0.0571,0.0821,0.099,0.1088,0.1088,0.1531,0.1787,0.1881,0.2183,0.218,0.1874,0.1948,0.1783,-0.6475,-0.6304,-0.6251,-0.6265,-0.6662,-0.7131,-0.7368,-0.7526,-0.7583,-0.7406,-0.6612,-0.5824,0.0,0.0,-0.4788,-0.5587,-0.5771,-0.6094,-0.6939,-0.7551,-0.7953,0.0,0.0,0.0,0.0,0.0,0.0,-0.8817,0.0,-0.9538,-0.9538,-1.002,-1.0303,-1.0303,-1.0322,-1.0508,-1.0908,-1.0907,-1.1152,-1.1606,-1.1606,-1.1359,-1.0947,-1.0947,-1.0723,-1.0371,-1.0371,-1.0371,-1.0361,-1.0303,-1.0009,-0.9553,-0.9477,-0.9477,-0.9406,-0.8866,-0.8978,-0.9191,-0.7551,-0.7021,-0.7042,-0.7,-0.7,-0.7,-0.7,-0.7,-0.7,-0.7,-0.6626,-0.6093,-0.5502,-0.4891,-0.4308,-0.3774,-0.3622,-0.3604,-0.3604,-0.3509,-0.3358,-0.3145,-0.2993,-0.2859,-0.2723,-0.2314,-0.1997,-0.1997,-0.1276,-0.0555,-0.0101,-0.0017,0.0,0.0,0.0,0.0,0.0,0.0,0.0,0.0,0.0,0.0,0.0,0.0425,0.0656,0.0656,0.107,0.1273,0.1276,0.1295,0.1298,0.1281,0.1466,0.1538,-0.7296,-0.7034,-0.6848,-0.7054,-0.7493,-0.7883,-0.7858,-0.7867,-0.7729,-0.7145,-0.6824,-0.6448,0.0,0.0,0.0,-0.6014,-0.6705,0.0,-0.762,-0.8152,0.0,0.0,0.0,-0.9498,-1.004,-1.0098,0.0,0.0,-1.002,-1.0098,-1.0098,-1.0225,-1.0303,-1.0303,-1.0586,-1.0801,-1.0908,-1.1252,-1.1467,-1.1606,-1.1606,-1.1547,-1.1418,-1.1418,-1.1359,-1.1273,-1.1273,-1.1273,-1.1211,-1.0456,-1.0218,-1.0234,-0.9283,-0.9026,-0.9102,-0.837,-0.8193,-0.8193,-0.7314,-0.7301,-0.7593,-0.7147,-0.7,-0.7,-0.7,-0.7,-0.7,-0.7,-0.6894,-0.6662,-0.6109,-0.5524,-0.4913,-0.4329,-0.3902,-0.3604,-0.3604,-0.3573,-0.3498,-0.3279,-0.3064,-0.2859,-0.2723,-0.2314,-0.1997,-0.1997,-0.1509,-0.0989,-0.0571,-0.0219,0.0,0.0,0.0,0.0,0.0,0.0,0.0,0.0,0.0,0.0,0.0,0.0106,0.0182,0.0182,0.063,0.0895,0.101,0.1361,0.1342,0.0996,0.1052,0.0838,-0.7906,-0.781,-0.7782,-0.7933,-0.8218,-0.8481,-0.8585,-0.8504,-0.8233,-0.7642,-0.7372,0.0,0.0,0.0,0.0,0.0,0.0,0.0,-0.8187,-0.8716,-0.9159,0.0,-0.9705,0.0,-1.0517,-1.0557,-1.0655,0.0,-1.0518,-1.0381,-1.0547,-1.0557,-1.0665,-1.086,-1.1095,-1.1289,-1.1463,-1.1946,-1.2162,-1.2162,-1.2162,-1.2064,-1.1855,-1.1855,-1.177,-1.1606,0.0,-1.1606,-1.1543,-1.0677,-1.0268,-1.0128,-0.9411,-0.9226,-0.9352,-0.922,-0.9317,-0.9402,-0.8484,-0.8405,-0.8496,-0.7356,-0.7,-0.7,-0.7,-0.7,-0.7,-0.7,-0.7,-0.6873,-0.6328,-0.5744,-0.5151,-0.4543,-0.3987,-0.3604,-0.3604,-0.3604,-0.3556,-0.3381,-0.3141,-0.2956,-0.289,-0.2612,-0.2402,-0.2402,-0.194,-0.1525,-0.1293,-0.0705,-0.0235,-0.0017,0.0,0.0,0.0,0.0,0.0,0.0,0.0,0.0,0.0,0.0,0.0,0.0,0.0264,0.0422,0.0497,0.0778,0.0766,0.0515,0.0515,0.0314,-0.8472,-0.8593,-0.8817,-0.8889,-0.894,-0.9078,-0.944,-0.9247,-0.8854,-0.8459,0.0,-0.7618,-0.6871,0.0,-0.7006,-0.7592,0.0,-0.8092,-0.8725,-0.9259,-0.9597,-0.9597,-1.0068,-1.0508,-1.0879,-1.0967,-1.1152,-1.1577,-1.089,-1.0625,-1.0977,-1.0996,-1.1191,-1.1663,-1.1672,-1.1888,-1.2291,-1.2695,-1.2905,-1.2905,-1.2905,-1.2686,-1.2291,-1.2291,-1.2109,-1.176,0.0,0.0,-1.1728,-1.1006,-1.0374,-0.9849,-0.975,-0.9696,-0.9737,-1.0422,-1.0927,-1.1082,-0.999,-0.9534,-0.921,-0.7629,-0.7093,-0.706,-0.706,-0.7033,-0.7,-0.7,-0.7,-0.6894,-0.6435,-0.5809,-0.5173,-0.4652,-0.4052,-0.3604,-0.3604,-0.3604,-0.3556,-0.3423,-0.3242,-0.3125,-0.3104,-0.3,-0.2919,-0.2919,-0.2457,-0.2104,-0.2034,-0.1247,-0.0538,-0.0134,-0.0034,0.0,0.0,0.0,0.0,0.0,0.0,0.0,0.0,0.0,0.0,0.0,0.0,0.0,0.0,0.0,0.0,0.0,0.0,0.0,-0.9292,-0.9325,-0.945,-0.9836,-0.995,-0.9993,-1.0128,-0.9752,0.0,0.0,0.0,-0.8484,-0.807,-0.8263,0.0,-0.8139,0.0,0.0,0.0,0.0,-1.0157,0.0,0.0,0.0,0.0,0.0,0.0,0.0,0.0,-1.141,-1.1467,-1.1467,-1.1672,-1.2077,-1.2086,-1.2324,-1.2764,-1.2866,-1.2905,-1.2905,-1.2905,-1.2866,-1.2773,-1.2773,-1.2749,-1.267,-1.267,0.0,-1.2593,-1.1645,-1.1009,-1.0565,-1.0064,-0.9689,-0.9499,-0.9893,-0.9763,-0.9336,-0.9105,-0.8679,-0.8162,-0.7849,-0.7602,-0.741,-0.741,-0.7214,-0.7,-0.7,-0.7,-0.6979,-0.6894,-0.6076,-0.5286,-0.5173,-0.4355,-0.3604,-0.3604,-0.3604,-0.3534,-0.3357,-0.3286,-0.3229,-0.3121,-0.3081,-0.3064,-0.3064,-0.2888,-0.26,-0.2218,-0.131,-0.0672,-0.0588,-0.0235,0.0,0.0,0.0,0.0,0.0,0.0,0.0,0.0,0.0,0.0,0.0,0.0,0.0,0.0,0.0,0.0,0.0,0.0,0.0,-0.9922,-1.0079,-1.0341,-1.0561,-1.0437,-1.0321,-1.0516,0.0,0.0,0.0,0.0,-0.8994,-0.8634,0.0,0.0,0.0,0.0,0.0,0.0,0.0,0.0,0.0,0.0,0.0,0.0,0.0,0.0,0.0,0.0,-1.2171,-1.1924,-1.2142,-1.2367,-1.2559,-1.2568,-1.2666,-1.2905,-1.2905,-1.2905,-1.2905,-1.2905,-1.2905,-1.2905,-1.2905,-1.2905,-1.2905,-1.2905,0.0,-1.2837,-1.1974,-1.1496,-1.1298,-1.1007,-1.0788,-1.0713,-1.1274,-1.1004,-1.0365,-1.0011,-0.9441,-0.882,-0.8484,-0.8076,-0.7709,-0.7709,-0.7586,-0.7473,-0.7473,-0.7375,-0.7255,-0.7255,-0.6288,-0.5303,-0.5303,-0.4425,-0.3604,-0.3604,-0.3604,-0.358,-0.3483,-0.3448,-0.3446,-0.3375,-0.3273,-0.3199,-0.3199,-0.3094,-0.2895,-0.2603,-0.2019,-0.139,-0.0774,-0.0557,-0.0343,-0.0035,0.0,0.0,0.0,0.0,0.0,0.0,0.0,0.0,0.0,0.0,0.0,0.0,0.0,0.0,0.0,0.0,0.0,-1.0428,-1.0725,-1.1057,-1.1271,-1.0857,-1.0519,-1.0896,-1.0219,0.0,0.0,-0.9333,-0.9216,-0.8821,0.0,0.0,0.0,0.0,0.0,0.0,0.0,0.0,0.0,0.0,0.0,0.0,0.0,0.0,0.0,0.0,0.0,-1.2369,-1.2695,-1.2905,-1.2905,-1.2905,-1.2905,-1.2905,-1.2905,-1.2905,-1.2905,-1.2905,-1.2905,-1.2905,-1.2905,-1.2905,-1.2905,-1.2905,0.0,0.0,-1.227,-1.1947,-1.1814,-1.1972,-1.1947,-1.1898,-1.2642,-1.2353,-1.1516,-1.099,-1.0269,-0.9484,-0.8982,-0.8425,-0.8005,-0.8005,-0.7959,-0.7905,-0.7905,-0.7756,-0.7591,-0.7591,-0.6529,-0.5383,-0.5094,-0.4453,-0.3919,-0.3919,-0.389,-0.3891,-0.3891,-0.3732,-0.3604,-0.3604,-0.348,-0.3356,-0.3356,-0.3249,-0.3111,-0.3018,-0.2812,-0.227,-0.1207,-0.0982,-0.0655,-0.0056,0.0,0.0,0.0,0.0,0.0,0.0,0.0,0.0,0.0,0.0,0.0,0.0,0.0,0.0,0.0,0.0,0.0,-1.081,-1.0981,-1.1215,-1.2126,-1.1549,-1.0884,-1.1409,0.0,0.0,-0.9229,-0.9128,-0.8996,-0.8595,-0.8521,0.0,0.0,0.0,0.0,0.0,0.0,0.0,0.0,0.0,0.0,0.0,0.0,0.0,0.0,0.0,0.0,-1.2846,-1.2886,-1.2905,-1.2905,-1.2905,-1.2905,-1.2905,-1.2905,-1.2905,-1.2905,-1.2905,-1.2905,-1.2905,-1.2905,-1.2905,-1.2905,-1.2905,0.0,0.0,-1.2832,-1.2393,-1.1873,-1.2535,-1.2403,-1.1898,-1.2642,-1.2049,-1.0889,-1.0813,-0.9969,-0.8883,-0.8831,-0.8591,-0.8362,-0.8362,-0.8143,-0.7905,-0.7905,-0.7885,-0.7866,-0.7866,-0.6895,-0.5625,-0.4413,-0.456,-0.497,-0.497,-0.4858,-0.478,-0.478,-0.4134,-0.3604,-0.3604,-0.359,-0.358,-0.358,-0.3404,-0.3303,-0.3355,-0.3279,-0.2991,-0.2401,-0.1479,-0.0664,-0.0058,0.0,0.0,0.0,0.0,0.0,0.0,0.0,0.0,0.0,0.0,0.0,0.0,0.0,0.0,0.0,0.0,0.0,-1.0889,-1.1449,-1.2,-1.2389,-1.1889,-1.1336,-1.1558,0.0,-0.9353,-0.9151,-0.8837,-0.8666,-0.8825,-0.8862,-0.8997,0.0,-0.946,-0.9548,0.0,0.0,0.0,0.0,0.0,0.0,0.0,0.0,0.0,0.0,0.0,0.0,-1.2905,-1.2905,-1.2905,-1.2905,-1.2905,-1.2905,-1.2905,-1.2905,-1.2905,-1.2905,-1.2905,-1.2905,-1.2905,-1.2905,-1.2905,-1.2905,-1.2905,0.0,0.0,-1.2905,-1.2715,-1.2476,-1.2798,-1.2725,-1.2452,-1.2295,-1.1625,-1.0737,-1.0338,-0.984,-0.9335,-0.8929,-0.9004,-0.9157,-0.876,-0.855,-0.8432,-0.8432,-0.8337,-0.8196,-0.8196,-0.7096,-0.578,-0.4874,-0.4898,-0.5213,-0.5678,-0.5365,-0.4992,-0.4916,-0.4268,-0.3703,-0.3617,-0.3604,-0.3604,-0.3604,-0.3527,-0.3453,-0.3361,-0.3432,-0.3239,-0.2563,-0.1857,-0.1197,-0.0594,-0.0205,0.0,0.0,0.0,0.0,0.0,0.0,0.0,0.0,0.0,0.0,0.0,0.0,0.0,0.0,0.0,0.0,-1.0944,-1.1741,-1.2508,-1.2475,-1.2025,-1.1538,0.0,0.0,-0.9063,-0.8888,-0.8424,-0.82,-0.8762,-0.8862,-0.9018,0.0,-0.9567,-0.9648,-0.9852,0.0,0.0,0.0,0.0,0.0,0.0,0.0,0.0,0.0,0.0,0.0,0.0,-1.2905,-1.2905,-1.2905,-1.2905,-1.2905,-1.2905,-1.2905,-1.2905,-1.2905,-1.2905,-1.2905,-1.2905,-1.2905,-1.2905,-1.2905,0.0,0.0,0.0,-1.2905,-1.2905,-1.2905,-1.2905,-1.2905,-1.2847,-1.232,-1.1699,-1.104,-1.0568,-1.0261,-0.9987,-0.9309,-0.9413,-0.967,-0.8906,-0.8738,-0.8804,-0.8804,-0.8657,-0.8478,-0.8242,-0.7343,-0.6348,-0.5689,-0.5714,-0.6016,-0.6543,-0.6211,-0.5707,-0.5349,-0.4658,-0.4018,-0.3672,-0.3604,-0.3604,-0.3604,-0.3604,-0.3541,-0.3411,-0.3514,-0.3406,-0.2873,-0.2367,-0.1742,-0.0964,-0.0343,0.0,0.0,0.0,0.0,0.0,0.0,0.0,0.0,0.0,0.0,0.0,0.0,0.0,0.0,0.0,0.0,-1.1069,-1.178,-1.2483,-1.2411,-1.2002,-1.1437,0.0,-0.988,-0.8938,-0.8411,-0.7826,-0.7591,-0.82,-0.8311,-0.8651,-0.9717,-0.995,-1.0191,-1.0708,0.0,0.0,0.0,0.0,0.0,0.0,0.0,0.0,0.0,0.0,0.0,0.0,-1.2905,-1.2905,-1.2905,-1.2905,-1.2905,-1.2905,-1.2905,-1.2905,-1.2905,-1.2905,-1.2905,-1.2905,-1.2905,-1.2905,0.0,0.0,0.0,0.0,-1.2905,-1.2905,-1.2905,-1.2905,-1.2905,-1.2905,-1.2881,-1.2427,-1.1789,-1.1789,-1.1341,-1.0686,-1.002,-0.9788,-0.9625,-0.8685,-0.8577,-0.8804,-0.8804,-0.8804,-0.8639,-0.791,-0.7691,-0.7498,-0.6772,-0.7149,-0.7691,-0.7691,-0.7564,-0.7222,-0.6347,-0.5476,-0.4608,-0.3758,-0.3604,-0.3604,-0.3604,-0.3604,-0.3604,-0.36,-0.36,-0.3604,-0.3578,-0.3056,-0.2206,-0.1006,-0.0336,0.0,0.0,0.0,0.0,0.0,0.0,0.0,0.0,0.0,0.0,0.0,0.0,0.0,0.0,0.0,0.0,-1.0816,-1.1387,-1.1879,-1.1858,-1.1425,-1.0933,-1.0731,-0.9579,-0.8499,-0.8336,-0.7826,-0.7456,-0.7653,-0.8024,-0.865,-0.973,-0.9926,0.0,0.0,0.0,0.0,0.0,0.0,0.0,0.0,0.0,0.0,0.0,0.0,0.0,0.0,-1.2408,-1.2578,-1.2895,-1.2905,-1.2905,-1.2905,-1.2905,-1.2905,-1.2905,-1.2905,-1.2905,-1.2905,-1.2905,0.0,0.0,0.0,0.0,0.0,-1.2905,-1.2905,-1.2905,-1.2905,-1.2905,-1.2847,-1.232,-1.1996,-1.174,-1.1291,-1.1291,-1.1366,-1.0686,-1.0491,-1.034,-0.9592,-0.9082,-0.8804,-0.8804,-0.8804,-0.8619,-0.7883,-0.7696,-0.7643,-0.7396,-0.7536,-0.783,-0.8342,-0.8035,-0.7524,-0.7153,-0.6062,-0.5021,-0.4569,-0.4065,-0.3713,-0.3617,-0.3604,-0.3604,-0.3604,-0.3604,-0.3604,-0.3604,-0.3056,-0.2386,-0.1585,-0.0962,-0.0446,-0.0022,0.0,0.0,0.0,0.0,0.0,0.0,0.0,0.0,0.0,0.0,0.0,0.0,-0.0423,-0.0605,0.0,-1.1085,-1.1553,-1.1324,-1.0983,-1.0657,-1.0444,-0.9303,-0.8298,-0.8298,-0.7663,-0.7156,-0.7369,-0.7703,-0.8325,-0.9416,-0.9604,0.0,0.0,0.0,0.0,0.0,0.0,0.0,0.0,0.0,0.0,0.0,0.0,0.0,0.0,-1.1973,-1.21,-1.2396,-1.2549,-1.2637,-1.2637,-1.2803,-1.2803,-1.2637,-1.2637,-1.2725,-1.2895,-1.2715,0.0,0.0,0.0,0.0,0.0,-1.2905,-1.2905,-1.2905,-1.2905,-1.2905,-1.2847,-1.2369,-1.2212,-1.2163,-1.1742,-1.1857,-1.2113,-1.1391,-1.0772,-1.0223,-0.9897,-0.9335,-0.8804,-0.8804,-0.8804,-0.8699,-0.8235,-0.8103,-0.8103,-0.8103,-0.8103,-0.8235,-0.8699,-0.8427,-0.799,-0.7587,-0.6764,-0.5885,-0.5109,-0.4606,-0.4175,-0.3804,-0.3744,-0.3724,-0.3692,-0.3682,-0.3662,-0.3607,-0.3262,-0.2788,-0.2184,-0.1385,-0.0739,-0.0359,-0.0135,0.0,0.0,0.0,0.0,0.0,0.0,0.0,0.0,-0.0238,-0.0331,-0.0359,-0.0962,-0.1228,0.0,-1.0767,-1.1337,-1.0783,-1.0631,-1.0506,-1.0018,-0.9102,0.0,-0.8311,-0.746,-0.6862,-0.7319,-0.7431,-0.7839,-0.8963,-0.9189,0.0,0.0,0.0,0.0,0.0,0.0,0.0,0.0,0.0,0.0,0.0,0.0,0.0,0.0,-1.1557,-1.1557,-1.1557,-1.1924,-1.2125,-1.2155,-1.2578,-1.2578,-1.2155,-1.2155,-1.2393,-1.2798,-1.2379,0.0,0.0,0.0,0.0,0.0,-1.2895,-1.2886,-1.2842,-1.2895,-1.2905,-1.2905,-1.2905,-1.2905,-1.2905,-1.2905,-1.2905,-1.2774,-1.2055,-1.0763,-0.9541,-0.975,-0.9321,-0.8784,-0.8798,-0.8804,-0.8804,-0.8804,-0.8804,-0.8804,-0.8804,-0.8804,-0.8804,-0.8804,-0.8804,-0.8567,-0.7745,-0.7537,-0.7044,-0.5538,-0.5186,-0.4886,-0.4193,-0.4044,-0.3944,-0.3826,-0.3799,-0.3764,-0.3631,-0.3607,-0.3376,-0.2807,-0.1697,-0.0984,-0.0895,-0.0381,-0.0045,0.0,0.0,0.0,0.0,0.0,-0.0022,-0.0063,-0.0633,-0.0925,-0.0984,-0.1585,-0.1873,-0.8697,0.0,-1.027,-1.0119,-1.0081,-1.0056,0.0,-0.939,-0.88,0.0,0.0,-0.7799,-0.7456,-0.7776,-0.8438,-0.9529,-1.0069,0.0,0.0,0.0,0.0,0.0,0.0,0.0,0.0,0.0,0.0,0.0,0.0,0.0,0.0,-1.1064,-1.1064,-1.1064,-1.1162,-1.1377,-1.1741,-1.1839,-1.1839,-1.1741,-1.1741,-1.179,-1.1907,-1.2119,0.0,0.0,0.0,0.0,-1.2389,-1.2744,-1.2686,-1.2389,-1.2754,-1.2905,-1.2905,-1.2905,-1.2905,-1.2905,-1.2905,-1.2905,-1.2774,-1.2055,-1.1206,-1.0387,-0.9938,-0.9197,-0.8549,-0.8744,-0.8804,-0.8804,-0.8804,-0.8804,-0.8804,-0.8804,-0.8804,-0.8804,-0.8804,-0.8804,-0.8732,-0.8528,-0.803,-0.7495,-0.703,-0.5994,-0.5162,-0.4894,-0.4359,-0.3984,-0.3947,-0.3863,-0.3778,-0.3744,-0.3668,-0.3534,-0.3398,-0.2699,-0.1873,-0.0962,-0.0761,-0.0471,-0.0022,0.0,0.0,0.0,0.0,-0.0223,-0.0684,-0.0838,-0.1128,-0.1607,-0.2206,-0.2495,-0.7889,-0.87,-0.9541,-0.9541,-0.9717,-0.9905,-0.9905,0.0,0.0,0.0,0.0,0.0,-0.7418,0.0,0.0,0.0,0.0,0.0,0.0,0.0,0.0,0.0,0.0,0.0,0.0,0.0,0.0,0.0,0.0,0.0,0.0,-1.0625,-1.0625,-1.0625,-1.0625,-1.0851,-1.1281,-1.1477,-1.1477,-1.1281,-1.1281,-1.1389,-1.1606,-1.1602,-1.1706,0.0,0.0,0.0,-1.1943,-1.2201,-1.2162,-1.1943,-1.2201,-1.2299,-1.2328,-1.251,-1.2588,-1.2607,-1.2837,-1.2905,-1.2822,-1.2427,-1.1633,-1.0737,-1.0364,-0.9471,-0.8604,-0.8764,-0.8804,-0.8804,-0.8804,-0.8804,-0.8804,-0.8804,-0.8804,-0.8804,-0.8804,-0.8804,-0.8804,-0.8804,-0.848,-0.808,-0.7665,-0.6644,-0.5764,-0.5336,-0.4684,-0.4199,-0.4105,-0.4028,-0.395,-0.3904,-0.3765,-0.3699,-0.3699,-0.334,-0.2721,-0.1784,-0.1474,-0.1051,-0.0448,-0.0403,-0.0403,-0.0403,-0.0403,-0.0716,-0.1318,-0.1585,-0.1895,-0.2228,-0.2832,-0.3103,-0.7484,-0.8258,-0.9034,-0.9075,-0.9503,-0.9905,-0.9905,0.0,0.0,0.0,0.0,0.0,0.0,0.0,0.0,0.0,0.0,0.0,0.0,0.0,0.0,0.0,0.0,0.0,0.0,0.0,0.0,0.0,0.0,0.0,0.0,-1.0303,-1.0303,-1.0303,-1.0303,-1.0449,-1.0811,-1.1203,-1.1203,-1.0811,-1.0811,-1.1027,-1.14,-1.1045,-1.1113,0.0,0.0,0.0,-1.1508,-1.1577,-1.1567,-1.1508,-1.1577,-1.1606,-1.1655,-1.2038,-1.2203,-1.2272,-1.2725,-1.2832,-1.2715,-1.2715,-1.1792,-1.0644,-1.0644,-0.9788,-0.8804,-0.8804,-0.8804,-0.8804,-0.8804,-0.8804,-0.8804,-0.8804,-0.8804,-0.8804,-0.8804,-0.8804,-0.8804,-0.8804,-0.8804,-0.8586,-0.7963,-0.7262,-0.6529,-0.5787,-0.5085,-0.4552,-0.4271,-0.421,-0.4147,-0.4045,-0.3917,-0.3816,-0.3792,-0.3706,-0.3395,-0.2876,-0.2273,-0.1673,-0.1051,-0.1029,-0.1029,-0.1029,-0.1029,-0.134,-0.194,-0.245,-0.2741,-0.2854,-0.3353,-0.3604,-0.7878,-0.8371,-0.8736,-0.9034,-0.9503,-0.9905,0.0,0.0,0.0,0.0,0.0,0.0,0.0,0.0,0.0,0.0,0.0,0.0,0.0,0.0,0.0,0.0,0.0,0.0,0.0,0.0,0.0,0.0,0.0,0.0,0.0,-1.0303,-1.0303,-1.0303,-1.0303,-1.0332,-1.04,-1.0459,-1.0459,-1.04,-1.04,-1.043,-1.0508,-1.0781,-1.0947,0.0,0.0,-1.1369,-1.1035,-1.1449,-1.1359,-1.1045,-1.1438,-1.1606,-1.1655,-1.2038,-1.2203,-1.2272,-1.2725,-1.2476,-1.1972,-1.1972,-1.1049,-0.9961,-0.9961,-0.9413,-0.8804,-0.8804,-0.8804,-0.8804,-0.8804,-0.8804,-0.8804,-0.8804,-0.8804,-0.8804,-0.8804,-0.8804,-0.8804,-0.8804,-0.8804,-0.8752,-0.8646,-0.8023,-0.7289,-0.6529,-0.5819,-0.5128,-0.4539,-0.4297,-0.4187,-0.4164,-0.4051,-0.3931,-0.3802,-0.3771,-0.3684,-0.3471,-0.2898,-0.2297,-0.1697,-0.1652,-0.1652,-0.1652,-0.1652,-0.1962,-0.2563,-0.2652,-0.2965,-0.3464,-0.3556,-0.3604,-0.7527,-0.825,-0.8859,-0.8837,-0.9361,-0.9905,0.0,0.0,0.0,0.0,0.0,0.0,0.0,0.0,0.0,0.0,0.0,0.0,0.0,0.0,0.0,0.0,0.0,0.0,0.0,0.0,0.0,0.0,0.0,0.0,0.0,0.0,-1.0303,-1.0303,-1.0303,-1.0303,-1.0303,-1.0303,-1.0303,-1.0303,-1.0303,-1.0303,-1.0312,-1.0478,-1.0576,-1.0576,0.0,-1.0782,-1.0586,-1.0811,-1.0772,-1.0566,-1.0495,-1.0467,-1.0543,-1.1192,-1.1591,-1.1883,-1.2652,-1.2427,-1.1789,-1.1789,-1.0889,-0.9788,-0.9788,-0.9335,-0.8804,-0.8804,-0.8804,-0.8804,-0.8804,-0.8804,-0.8804,-0.8804,-0.8804,-0.8804,-0.8804,-0.8804,-0.8804,-0.8804,-0.8804,-0.8804,-0.8804,-0.8182,-0.7589,-0.7235,-0.6222,-0.5378,-0.5085,-0.4644,-0.4365,-0.4365,-0.4206,-0.4055,-0.3927,-0.3914,-0.3819,-0.3617,-0.3034,-0.2583,-0.2295,-0.1962,-0.1962,-0.2273,-0.2295,-0.2586,-0.3192,-0.3192,-0.3328,-0.3604,-0.3682,-0.3716,-0.7709,-0.8437,-0.9025,-0.8932,0.0,0.0,0.0,0.0,0.0,0.0,0.0,0.0,0.0,0.0,0.0,0.0,0.0,0.0,0.0,0.0,0.0,0.0,0.0,0.0,0.0,0.0,0.0,0.0,0.0,0.0,0.0,0.0,-1.0303,-1.0303,-1.0303,-1.0303,-1.0303,-1.0303,-1.0303,-1.0303,-1.0303,-1.0303,-1.0303,-1.0303,-1.0303,-1.0303,-1.0303,-1.0225,-1.0118,-1.0118,-1.004,-0.9883,-0.9478,-0.9453,-0.9745,-1.0507,-1.114,-1.1687,-1.2416,-1.2163,-1.1541,-1.1391,-1.0542,-0.9562,-0.9562,-0.9211,-0.8804,-0.8804,-0.8804,-0.8804,-0.8804,-0.8804,-0.8804,-0.8804,-0.8804,-0.8804,-0.8804,-0.8804,-0.8804,-0.8804,-0.8804,-0.8804,-0.8804,-0.8321,-0.7889,-0.7723,-0.674,-0.5896,-0.5542,-0.5054,-0.468,-0.4515,-0.4308,-0.4133,-0.4008,-0.3994,-0.3924,-0.3697,-0.323,-0.2948,-0.2923,-0.2477,-0.243,-0.2898,-0.2921,-0.316,-0.3651,-0.3651,-0.3672,-0.3687,-0.3795,-0.3843,-0.9401,-0.9328,-0.9053,-0.9665,0.0,0.0,0.0,0.0,0.0,0.0,0.0,0.0,0.0,0.0,0.0,0.0,0.0,0.0,0.0,0.0,0.0,0.0,0.0,0.0,0.0,0.0,0.0,0.0,0.0,0.0,0.0,0.0,0.0,-1.0303,-1.0303,-1.0303,-1.0303,-1.0303,-1.0303,-1.0303,-1.0303,-1.0303,-1.0303,-1.0303,-1.0303,-1.0303,-1.0303,-1.002,-0.9558,-0.9558,-0.9259,-0.8817,-0.8777,-0.9295,-1.0116,-1.0607,-1.1376,-1.2113,-1.1932,-1.1441,-1.0771,-1.0141,-0.9465,-0.8883,-0.8883,-0.8831,-0.8804,-0.8804,-0.8804,-0.8804,-0.8804,-0.8804,-0.8804,-0.8804,-0.8804,-0.8804,-0.8804,-0.8804,-0.8804,-0.8804,-0.8804,-0.8804,-0.8804,-0.8752,-0.848,-0.7803,-0.761,-0.7042,-0.5678,-0.546,-0.5191,-0.457,-0.4308,-0.4133,-0.4008,-0.3994,-0.3987,-0.3964,-0.3805,-0.3668,-0.3541,-0.349,-0.349,-0.3534,-0.3534,-0.362,-0.3775,-0.3775,-0.3849,-0.3964,-0.3974,-0.3981,-0.8625,-0.8898,0.0,0.0,0.0,0.0,0.0,0.0,0.0,0.0,0.0,0.0,0.0,0.0,0.0,0.0,0.0,0.0,0.0,0.0,0.0,0.0,0.0,0.0,0.0,0.0,0.0,0.0,0.0,0.0,0.0,0.0,0.0,-1.0303,-1.0303,-1.0303,-1.0303,-1.0303,-1.0303,-1.0303,-1.0303,-1.0303,-1.0303,-1.0303,-1.0303,-1.0303,-1.0303,-1.0186,-0.9981,-0.9637,-0.9379,-0.9159,-0.8837,-0.8921,-0.9288,-0.971,-1.0201,-1.0678,-1.0865,-1.0483,-0.9913,-0.9823,-0.9233,-0.8571,-0.8751,-0.8804,-0.8804,-0.8804,-0.8804,-0.8804,-0.8804,-0.8804,-0.8804,-0.8804,-0.8804,-0.8804,-0.8804,-0.8804,-0.8804,-0.8804,-0.8804,-0.8804,-0.8804,-0.8804,-0.8699,-0.8427,-0.7996,-0.7343,-0.6308,-0.5787,-0.5246,-0.457,-0.4308,-0.4233,-0.4294,-0.4186,-0.4136,-0.4136,-0.3927,-0.3768,-0.3737,-0.3651,-0.3645,-0.3733,-0.3733,-0.3785,-0.3934,-0.3934,-0.394,-0.3998,-0.4092,-0.4136,-0.8423,-0.8787,0.0,0.0,0.0,0.0,0.0,0.0,0.0,0.0,0.0,0.0,0.0,0.0,0.0,0.0,0.0,0.0,0.0,0.0,0.0,0.0,0.0,0.0,0.0,0.0,0.0,0.0,0.0,0.0,0.0,0.0,0.0,0.0,-1.0303,-1.0303,-1.0303,-1.0303,-1.0303,-1.0303,-1.0303,-1.0303,-1.0303,-1.0303,-1.0303,-1.0303,-1.0303,-1.0108,-0.9765,-0.9399,-0.903,-0.8679,-0.83,-0.839,-0.8725,-0.8973,-0.9382,-0.9857,-1.0025,-0.9714,-0.9255,-0.9333,-0.8931,-0.8435,-0.8611,-0.8738,-0.8804,-0.8804,-0.8804,-0.8804,-0.8804,-0.8804,-0.8804,-0.8804,-0.8804,-0.8804,-0.8804,-0.8804,-0.8804,-0.8804,-0.8804,-0.8804,-0.8804,-0.8804,-0.8804,-0.8804,-0.8374,-0.7696,-0.6723,-0.6145,-0.5471,-0.4508,-0.4348,-0.4338,-0.4392,-0.4345,-0.4291,-0.4291,-0.4051,-0.3914,-0.3866,-0.3771,-0.3765,-0.3863,-0.3863,-0.3938,-0.4065,-0.4292,-0.4441,-0.4488,-0.4812,-0.4843,-0.9233,-0.9242,0.0,0.0,0.0,0.0,0.0,0.0,0.0,0.0,0.0,0.0,0.0,0.0,0.0,0.0,0.0,0.0,0.0,0.0,0.0,0.0,0.0,0.0,0.0,0.0,0.0,0.0,0.0,0.0,0.0,0.0,0.0,0.0,-1.0293,-1.0293,-1.0293,-1.0293,-1.0293,-1.0293,-1.0293,-1.0293,-1.0303,-1.0303,-1.0303,-1.0303,-1.0303,-0.9696,-0.8716,-0.8695,-0.8034,-0.7021,-0.7,-0.7703,-0.8684,-0.8545,-0.916,-1.0023,-0.9541,-0.9152,-0.884,-0.851,-0.8395,-0.8395,-0.8402,-0.8577,-0.8804,-0.8804,-0.8804,-0.8804,-0.8804,-0.8804,-0.8804,-0.8804,-0.8804,-0.8804,-0.8804,-0.8804,-0.8804,-0.8804,-0.8804,-0.8804,-0.8804,-0.8804,-0.8804,-0.8804,-0.8804,-0.8262,-0.6804,-0.6588,-0.5967,-0.4395,-0.4375,-0.4433,-0.421,-0.4382,-0.4519,-0.4519,-0.4328,-0.4156,-0.4004,-0.3994,-0.3994,-0.3998,-0.3998,-0.4072,-0.4223,-0.4946,-0.5369,-0.5538,-0.6258,-0.6199,-0.857,0.0,0.0,0.0,0.0,0.0,0.0,0.0,0.0,0.0,0.0,0.0,0.0,0.0,0.0,0.0,0.0,0.0,0.0,0.0,0.0,0.0,0.0,0.0,0.0,0.0,0.0,0.0,0.0,0.0,0.0,0.0,0.0,0.0,-0.9385,-0.9385,-0.9385,-0.9385,-0.9531,-0.9806,-0.9806,-0.999,-1.0303,-1.0303,-1.0303,-1.0303,-1.0303,-1.0118,-0.9765,-0.9019,-0.8513,-0.8165,-0.778,-0.8308,-0.9177,-0.8372,-0.8638,-0.928,-0.8362,-0.799,-0.7939,-0.801,-0.8039,-0.8103,-0.8335,-0.8577,-0.8804,-0.8804,-0.8804,-0.8804,-0.8804,-0.8804,-0.8804,-0.8804,-0.8804,-0.8804,-0.8804,-0.8804,-0.8804,-0.8804,-0.8804,-0.8804,-0.8804,-0.8804,-0.8804,-0.8804,-0.8804,-0.8454,-0.7509,-0.647,-0.5634,-0.5174,-0.4758,-0.447,-0.4429,-0.4894,-0.5191,-0.5191,-0.5635,-0.5368,-0.4185,-0.4051,-0.4045,-0.4153,-0.4639,-0.4972,-0.5116,-0.5327,-0.5734,-0.6258,-0.5469,-0.525,-0.8657,0.0,0.0,0.0,0.0,0.0,0.0,0.0,0.0,0.0,0.0,0.0,0.0,0.0,0.0,0.0,0.0,0.0,0.0,0.0,0.0,0.0,0.0,0.0,0.0,0.0,0.0,0.0,0.0,0.0,0.0,0.0,0.0,0.0,-0.9004,-0.9004,-0.9004,-0.9004,-0.9114,-0.9367,-0.9367,-0.9591,-1.0029,-1.0205,-1.0303,-1.0273,-0.9877,-0.981,-0.9893,-0.8629,-0.8222,-0.8337,-0.7759,-0.8082,-0.8777,-0.8139,-0.8346,-0.8848,-0.8201,-0.7846,-0.7719,-0.8,-0.8005,-0.7965,-0.8283,-0.8577,-0.8804,-0.8804,-0.8804,-0.8804,-0.8804,-0.8804,-0.8804,-0.8804,-0.8804,-0.8804,-0.8804,-0.8804,-0.8804,-0.8804,-0.8804,-0.8804,-0.8804,-0.8804,-0.8804,-0.8804,-0.856,-0.8209,-0.775,-0.6659,-0.5928,-0.5928,-0.5578,-0.5336,-0.5336,-0.5437,-0.5624,-0.5923,-0.6091,-0.5716,-0.4755,-0.4916,-0.5068,-0.5151,-0.5602,-0.5704,-0.5515,-0.5787,-0.6172,-0.6588,-0.5719,-0.555,0.0,0.0,0.0,0.0,0.0,0.0,0.0,0.0,0.0,0.0,0.0,0.0,0.0,0.0,0.0,0.0,0.0,0.0,0.0,0.0,0.0,0.0,0.0,0.0,0.0,0.0,0.0,0.0,0.0,0.0,0.0,0.0,0.0,-0.8887,-0.8887,-0.8887,-0.8887,-0.8887,-0.8906,0.0,-0.8945,-0.9153,-0.9572,-1.0029,-1.0263,-1.0244,-0.9328,-0.9183,-0.9451,-0.7945,-0.7579,-0.7912,-0.7252,-0.7363,-0.7899,-0.7899,-0.8234,-0.8713,-0.8731,-0.8431,-0.8072,-0.8345,-0.8261,-0.8088,-0.8315,-0.8577,-0.8798,-0.8778,-0.8784,-0.8798,-0.8778,-0.8791,-0.8804,-0.8804,-0.8804,-0.8804,-0.8804,-0.8804,-0.8804,-0.8804,-0.8804,-0.8804,-0.8804,-0.8804,-0.8804,-0.8804,-0.8235,-0.7803,-0.7803,-0.7155,-0.6696,-0.6696,-0.6642,-0.6588,-0.6588,-0.6032,-0.5977,-0.6669,-0.6145,-0.5814,-0.5814,-0.6253,-0.6507,-0.6507,-0.6561,-0.6312,-0.5701,-0.6367,-0.6723,-0.6804,-0.6669,-0.6642,0.0,0.0,0.0,0.0,0.0,0.0,0.0,0.0,0.0,0.0,0.0,0.0,0.0,0.0,0.0,0.0,0.0,0.0,0.0,0.0,0.0,0.0,0.0,0.0,0.0,0.0,0.0,0.0,0.0,0.0,0.0,0.0,0.0,-0.7993,-0.7983,-0.7983,-0.7983,-0.7983,-0.8158,0.0,-0.8532,-0.873,-0.9133,-0.9562,-0.9961,-1.0293,-1.006,-1.0031,-1.003,-0.8865,-0.844,-0.8439,-0.7398,-0.7363,-0.7899,-0.7899,-0.8234,-0.8741,-0.9063,-0.909,-0.8985,-0.8836,-0.8914,-0.9002,-0.855,-0.8577,-0.8758,-0.853,-0.8631,-0.8751,-0.8549,-0.8637,-0.8804,-0.8804,-0.8804,-0.8804,-0.8804,-0.8804,-0.8804,-0.8804,-0.8804,-0.8804,-0.8804,-0.8804,-0.8804,-0.8804,-0.8672,-0.856,-0.856,-0.791,-0.745,-0.745,-0.6939,-0.6588,-0.6588,-0.6988,-0.7289,-0.7456,-0.7851,-0.8096,-0.8096,-0.6573,-0.5733,-0.5733,-0.6312,-0.6804,-0.723,-0.7396,-0.775,-0.8295,-0.7128,-0.6912,0.0,0.0,0.0,0.0,0.0,0.0,0.0,0.0,0.0,0.0,0.0,0.0,0.0,0.0,0.0,0.0,0.0,0.0,0.0,0.0,0.0,0.0,0.0,0.0,0.0,0.0,0.0,0.0,0.0,0.0,0.0,-0.8066,-0.7944,-0.7705,-0.7695,-0.7695,-0.7695,-0.7695,-0.7827,-0.8066,-0.8066,-0.8291,-0.8721,-0.9123,-0.9552,-0.9961,-0.9756,-0.9902,-1.0205,-0.89,-0.8498,-0.8594,-0.744,-0.7196,-0.751,-0.7787,-0.8234,-0.877,-0.9299,-0.957,-0.9688,-0.9794,-0.9842,-0.9841,-0.9615,-0.9654,-0.9655,-0.9194,-0.9163,-0.9176,-0.8721,-0.8697,-0.8804,-0.8804,-0.8804,-0.8804,-0.8804,-0.8804,-0.8804,-0.8804,-0.8804,-0.8804,-0.8804,-0.8804,-0.8804,-0.8804,-0.8804,-0.8804,-0.8804,-0.8454,-0.8235,-0.8235,-0.7883,-0.7643,-0.7643,-0.7696,-0.7857,-0.8209,-0.8262,-0.8262,-0.8262,-0.7171,-0.6713,-0.7063,-0.745,-0.767,-0.7696,-0.7696,-0.7889,-0.8235,-0.7128,-0.6993,0.0,0.0,0.0,0.0,0.0,0.0,0.0,0.0,0.0,0.0,0.0,0.0,0.0,0.0,0.0,0.0,0.0,0.0,0.0,0.0,0.0,0.0,0.0,0.0,0.0,0.0,0.0,0.0,0.0,0.0,-0.7715,-0.7695,-0.7695,-0.7695,-0.7695,-0.7695,-0.7695,-0.7695,-0.7695,-0.7695,-0.7695,-0.7905,-0.8297,-0.8623,-0.9075,-0.9573,-0.924,-0.9561,-1.0196,-0.883,-0.8422,-0.8594,-0.7565,-0.7084,-0.7063,-0.7683,-0.8234,-0.8824,-0.9603,-1.0096,-1.0431,-1.0849,-1.0813,-1.0653,-1.0772,-1.0788,-1.0678,-1.0071,-0.9846,-0.9651,-0.907,-0.8948,-0.8936,-0.8831,-0.8883,-0.8936,-0.8831,-0.8804,-0.8804,-0.8804,-0.8804,-0.8804,-0.8804,-0.8804,-0.8804,-0.8804,-0.8804,-0.8804,-0.8804,-0.8804,-0.8804,-0.8804,-0.8804,-0.8804,-0.8804,-0.8235,-0.8156,-0.8752,-0.8235,-0.7883,-0.7883,-0.7883,-0.8182,-0.8778,-0.8672,-0.8374,-0.7883,-0.7883,-0.7883,-0.7883,-0.7262,-0.7316,0.0,0.0,0.0,0.0,0.0,0.0,0.0,0.0,0.0,0.0,0.0,0.0,0.0,0.0,0.0,0.0,0.0,0.0,0.0,0.0,0.0,0.0,0.0,0.0,0.0,0.0,0.0,0.0,0.0,0.0,-0.7705,-0.7695,-0.7695,-0.7695,-0.7695,-0.7695,-0.7695,-0.7695,-0.7695,-0.7695,-0.7695,-0.7725,-0.7798,-0.7841,-0.8503,-0.9592,-0.9534,-0.9806,-1.0264,-0.9582,-0.9076,-0.8635,-0.8028,-0.7468,-0.7063,-0.7683,-0.8234,-0.8885,-1.0206,-1.0978,-1.1435,-1.1616,-1.1655,-1.152,-1.0973,-1.0788,-1.0722,-1.0417,-1.0067,-0.9728,-0.9395,-0.9478,-0.951,-0.8929,-0.9237,-0.9517,-0.8936,-0.8804,-0.8804,-0.8804,-0.8804,-0.8804,-0.8804,-0.8804,-0.8804,-0.8804,-0.8804,-0.8804,-0.8804,-0.8804,-0.8804,-0.8804,-0.8804,-0.8804,-0.8804,-0.8699,-0.8699,-0.8804,-0.8699,-0.8646,-0.8646,-0.8646,-0.8699,-0.8804,-0.8182,-0.8103,-0.8646,-0.8646,-0.8646,-0.8646,-0.8566,-0.8566,0.0,0.0,0.0,0.0,0.0,0.0,0.0,0.0,0.0,0.0,0.0,0.0,0.0,0.0,0.0,0.0,0.0,0.0,0.0,0.0,0.0,0.0,0.0,0.0,0.0,0.0,0.0,0.0,0.0,-0.7695,-0.7695,-0.7695,-0.7695,-0.7695,-0.7695,-0.7695,-0.7695,-0.7695,-0.7695,-0.7695,-0.7695,-0.7695,-0.7695,-0.7695,-0.8149,-0.8945,-0.9162,-0.9503,-0.9885,-0.9604,-0.9359,-0.9059,-0.8221,-0.7746,-0.7489,-0.7426,-0.8093,-0.9152,-1.0012,-1.0873,-1.1699,-1.2249,-1.2242,-1.202,-1.1984,-1.1974,-1.1879,-1.1323,-1.1063,-1.0805,-1.0307,-1.0007,-0.9814,-0.9891,-0.9865,-0.9814,-0.9917,-0.9335,-0.8903,-0.929,-0.9361,-0.9361,-0.9361,-0.9061,-0.8804,-0.8804,-0.8804,-0.8804,-0.8804,-0.8804,-0.8804,-0.8804,-0.8804,-0.8804,-0.8804,-0.8804,-0.8804,-0.8804,-0.8804,-0.8804,-0.8804,-0.8804,-0.8804,-0.8804,-0.848,-0.848,-0.8804,-0.8804,-0.8804,-0.8804,-0.8804,-0.8804,0.0,0.0,0.0,0.0,0.0,0.0,0.0,0.0,0.0,0.0,0.0,0.0,0.0,0.0,0.0,0.0,0.0,0.0,0.0,0.0,0.0,0.0,0.0,0.0,0.0,0.0,0.0,0.0,0.0,-0.7695,-0.7695,-0.7695,-0.7695,-0.7695,-0.7695,-0.7695,-0.7695,-0.7695,-0.7695,-0.7695,-0.7695,-0.7695,-0.7695,-0.7695,-0.7885,-0.8258,-0.8779,-0.9231,-0.9603,-0.9666,-0.9617,-0.9419,-0.8614,-0.8214,-0.8057,-0.7607,-0.825,-0.9436,-0.994,-1.0762,-1.1743,-1.2621,-1.2656,-1.2428,-1.2783,-1.2905,-1.2798,-1.2236,-1.1947,-1.169,-1.1191,-1.0686,-1.0389,-1.0712,-1.0542,-1.0389,-1.0745,-1.0012,-0.9465,-0.9961,-1.0038,-1.0038,-1.0038,-0.964,-0.9256,-0.9087,-0.9061,-0.8982,-0.8831,-0.8804,-0.8804,-0.8804,-0.8804,-0.8804,-0.8804,-0.8804,-0.8804,-0.8804,-0.8804,-0.8804,-0.8804,-0.8804,-0.8804,-0.8804,-0.8804,-0.8804,-0.8804,-0.8804,-0.8804,-0.8804,-0.8804,-0.8804,0.0,0.0,0.0,0.0,0.0,0.0,0.0,0.0,0.0,0.0,0.0,0.0,0.0,0.0,0.0,0.0,0.0,0.0,0.0,0.0,0.0,0.0,0.0,0.0,0.0,0.0,0.0,0.0,0.0,-0.7695,-0.7695,-0.7695,-0.7695,-0.7695,-0.7695,-0.7695,-0.7695,-0.7695,-0.7695,-0.7695,-0.7695,-0.7695,-0.7695,-0.7695,-0.7715,-0.7783,-0.8626,-0.9231,-0.9631,-1.0079,-0.9961,-0.9498,-0.9439,-0.9099,-0.8655,-0.8614,-0.8987,-0.9614,-1.0455,-1.1126,-1.1743,-1.2621,-1.2886,-1.2876,-1.2895,-1.2905,-1.2881,-1.2856,-1.2344,-1.1789,-1.1765,-1.1715,-1.1541,-1.0939,-1.1266,-1.1541,-1.0939,-1.0745,-1.072,-1.0737,-1.0745,-1.0745,-1.0745,-1.0712,-1.0491,-0.984,-0.9736,-0.951,-0.8883,-0.8804,-0.8804,-0.8804,-0.8804,-0.8804,-0.8804,-0.8804,-0.8804,-0.8804,-0.8804,-0.8804,-0.8804,-0.8804,-0.8804,-0.8804,-0.8804,-0.8804,-0.8804,-0.8804,-0.8804,-0.8804,-0.8804,-0.8804,0.0,0.0,0.0,0.0,0.0,0.0,0.0,0.0,0.0,0.0,0.0,0.0,0.0,0.0,0.0,0.0,0.0,0.0,0.0,0.0,0.0,0.0,0.0,0.0,0.0,0.0,0.0,0.0,0.0,0.0,-0.7695,-0.7695,-0.7695,-0.7695,-0.7695,-0.7695,-0.7695,-0.7695,-0.7695,-0.7695,-0.7695,-0.7695,-0.7695,-0.7695,-0.7695,-0.7744,-0.8616,-0.9092,-0.927,-0.999,-1.0186,-0.9981,-0.9637,-0.9379,-0.9179,-0.8817,-0.939,-1.0389,-1.0693,-1.1314,-1.209,-1.2686,-1.2695,-1.252,-1.2803,-1.2905,-1.2905,-1.2905,-1.2715,-1.2501,-1.2501,-1.2153,-1.174,-1.1509,-1.1999,-1.2427,-1.2206,-1.1783,-1.1441,-1.1441,-1.1441,-1.1441,-1.1434,-1.1074,-1.0712,-1.0491,-1.044,-1.0192,-0.9536,-0.9439,-0.9283,-0.8857,-0.8804,-0.8804,-0.8804,-0.8804,-0.8804,-0.8804,-0.8804,-0.8804,-0.8804,-0.8804,-0.8804,-0.8804,-0.8804,-0.8804,-0.8804,-0.8804,-0.8804,-0.8804,-0.8804,-0.8804,0.0,0.0,0.0,0.0,0.0,0.0,0.0,0.0,0.0,0.0,0.0,0.0,0.0,0.0,0.0,0.0,0.0,0.0,0.0,0.0,0.0,0.0,0.0,0.0,0.0,0.0,0.0,0.0,0.0,0.0,-0.7695,-0.7695,-0.7695,-0.7695,-0.7695,-0.7695,-0.7695,-0.7695,-0.7695,-0.7695,-0.7695,-0.7695,-0.7695,-0.7695,-0.7695,-0.7744,-0.8616,-0.9004,-0.9072,-0.995,-1.0303,-1.0264,-0.9902,-0.9765,-0.9725,-0.9359,-0.9914,-1.0851,-1.1013,-1.1576,-1.2281,-1.2744,-1.2686,-1.25,-1.2817,-1.2905,-1.2905,-1.2905,-1.2905,-1.2905,-1.2905,-1.2535,-1.2163,-1.2157,-1.2544,-1.2905,-1.2905,-1.2535,-1.2163,-1.2163,-1.2163,-1.2163,-1.2157,-1.1801,-1.1434,-1.1166,-1.1141,-1.0889,-1.0218,-0.9943,-0.964,-0.9185,-0.8929,-0.8804,-0.8804,-0.8804,-0.8804,-0.8804,-0.8804,-0.8804,-0.8804,-0.8804,-0.8804,-0.8804,-0.8804,-0.8804,-0.8804,-0.8804,-0.8804,-0.8804,-0.8804,-0.8804,0.0,0.0,0.0,0.0,0.0,0.0,0.0,0.0,0.0,0.0,0.0,0.0,0.0,0.0,0.0,0.0,0.0,0.0,0.0,0.0,0.0,0.0,0.0,0.0,0.0,0.0,0.0,0.0,0.0,-0.7695,-0.7695,-0.7695,-0.7695,-0.7695,-0.7695,-0.7695,-0.7695,-0.771,-0.771,-0.771,-0.771,-0.771,-0.771,-0.7695,-0.7695,-0.7744,-0.8616,-0.9004,-0.9072,-0.995,-1.0303,-1.0303,-1.0303,-1.0303,-1.0303,-1.0303,-1.0557,-1.0986,-1.1438,-1.1865,-1.2301,-1.2744,-1.2905,-1.2905,-1.2905,-1.2905,-1.2905,-1.2905,-1.2905,-1.2905,-1.2905,-1.2905,-1.2905,-1.2905,-1.2905,-1.2905,-1.2905,-1.2905,-1.2905,-1.2905,-1.2905,-1.2905,-1.2905,-1.2905,-1.2666,-1.1947,-1.1839,-1.1591,-1.0914,-1.0261,-0.984,-0.9814,-0.9211,-0.8831,-0.8804,-0.8804,-0.8804,-0.8804,-0.8804,-0.8804,-0.8804,-0.8804,-0.8804,-0.8804,-0.8804,-0.8804,-0.8804,-0.8804,-0.8804,-0.8804,-0.8804,-0.8804,-0.5605,0.0,0.0,0.0,0.0,0.0,0.0,0.0,0.0,0.0,0.0,0.0,0.0,0.0,0.0,0.0,0.0,0.0,0.0,0.0,0.0,0.0,0.0,0.0,0.0,0.0,0.0,0.0,-0.7695,-0.7695,-0.7695,-0.7695,-0.7695,-0.7695,-0.7695,-0.7695,-0.7695,-0.799,-0.8134,-0.8134,-0.8134,-0.8134,-0.8119,-0.7841,-0.7695,-0.7744,-0.8616,-0.9004,-0.9072,-0.995,-1.0303,-1.0303,-1.0303,-1.0303,-1.0303,-1.0303,-1.0762,-1.1418,-1.1535,-1.2083,-1.2725,-1.2866,-1.2905,-1.2905,-1.2905,-1.2905,-1.2905,-1.2905,-1.2905,-1.2905,-1.2905,-1.2905,-1.2905,-1.2905,-1.2905,-1.2905,-1.2905,-1.2905,-1.2905,-1.2905,-1.2905,-1.2905,-1.2905,-1.2905,-1.2832,-1.2642,-1.2608,-1.2344,-1.1616,-1.1366,-1.0889,-0.9917,-0.964,-0.9335,-0.8831,-0.8804,-0.8804,-0.8804,-0.8804,-0.8804,-0.8804,-0.8804,-0.8804,-0.8804,-0.8804,-0.8804,-0.8804,-0.8804,-0.8804,-0.8804,-0.8804,-0.8804,0.0,0.0,0.0,0.0,0.0,0.0,0.0,-0.7536,0.0,0.0,0.0,0.0,0.0,0.0,0.0,0.0,0.0,0.0,0.0,0.0,0.0,0.0,0.0,0.0,0.0,0.0,0.0,-0.7695,-0.7695,-0.7695,-0.7695,-0.7695,-0.7695,-0.7695,-0.7695,-0.7695,-0.7695,-0.7932,-0.8134,-0.8305,-0.8305,-0.8365,-0.8495,-0.8269,-0.808,-0.8007,-0.8866,-0.9157,-0.9072,-0.995,-1.0303,-1.0303,-1.0303,-1.0303,-1.0303,-1.0303,-1.0733,-1.131,-1.131,-1.1888,-1.2607,-1.2607,-1.2734,-1.2905,-1.2905,-1.2905,-1.2905,-1.2905,-1.2905,-1.2905,-1.2905,-1.2905,-1.2905,-1.2905,-1.2905,-1.2905,-1.2905,-1.2905,-1.2905,-1.2905,-1.2905,-1.2905,-1.2905,-1.2905,-1.2905,-1.2905,-1.2905,-1.2749,-1.232,-1.1749,-1.1091,-1.0287,-0.971,-0.9237,-0.8831,-0.8804,-0.8804,-0.8804,-0.8804,-0.8804,-0.8804,-0.8804,-0.8804,-0.8804,-0.8804,-0.8804,-0.8804,-0.8804,-0.8646,-0.8342,-0.8646,-0.848,0.0,0.0,0.0,0.0,0.0,0.0,-0.7035,-0.7145,0.0,0.0,0.0,0.0,0.0,0.0,0.0,0.0,0.0,0.0,0.0,0.0,0.0,0.0,0.0,0.0,0.0,-0.7695,-0.7695,-0.7695,-0.7695,-0.7695,-0.7695,-0.7695,-0.7695,-0.7695,-0.7695,-0.7695,-0.7695,-0.7739,-0.7957,-0.8305,-0.8305,-0.8477,-0.8803,-0.8817,-0.8636,-0.8357,-0.9287,-0.9423,-0.9072,-0.9997,-1.0341,-1.0303,-1.0303,-1.0303,-1.0303,-1.0303,-1.0547,-1.0908,-1.0908,-1.1433,-1.2135,-1.2194,-1.249,-1.2837,-1.2895,-1.2905,-1.2905,-1.2905,-1.2905,-1.2905,-1.2905,-1.2905,-1.2905,-1.2905,-1.2905,-1.2905,-1.2905,-1.2905,-1.2905,-1.2905,-1.2905,-1.2905,-1.2905,-1.2905,-1.2905,-1.2905,-1.2905,-1.2905,-1.2905,-1.1816,-1.0973,-1.0813,-0.9736,-0.8956,-0.8804,-0.8804,-0.8804,-0.8804,-0.8804,-0.8804,-0.8804,-0.8804,-0.8804,-0.8804,-0.8804,-0.8804,-0.8804,-0.8804,-0.8454,-0.783,-0.8507,-0.8103,0.0,0.0,-0.6244,0.0,0.0,0.0,0.0,-0.6267,0.0,0.0,0.0,0.0,0.0,0.0,0.0,0.0,0.0,0.0,0.0,0.0,0.0,0.0,0.0,0.0,0.0,-0.7695,-0.7695,-0.7695,-0.7695,-0.7695,-0.7695,-0.7695,-0.7695,-0.7695,-0.7695,-0.7695,-0.7695,-0.8019,-0.8219,-0.8305,-0.8305,-0.8477,-0.88,-0.8967,-0.8769,-0.8368,-0.9688,-0.976,-0.9107,-1.0358,-1.063,-1.0303,-1.0303,-1.0303,-1.0303,-1.0303,-1.0547,-1.0908,-1.0908,-1.125,-1.177,-1.2086,-1.2262,-1.2398,-1.2798,-1.2905,-1.2905,-1.2905,-1.2905,-1.2905,-1.2905,-1.2905,-1.2905,-1.2905,-1.2905,-1.2905,-1.2905,-1.2905,-1.2905,-1.2905,-1.2905,-1.2905,-1.2905,-1.2905,-1.2905,-1.2905,-1.2905,-1.2905,-1.2905,-1.2666,-1.2049,-1.0922,-1.0568,-0.9961,-0.8883,-0.8804,-0.8804,-0.8804,-0.8804,-0.8804,-0.8804,-0.8804,-0.8804,-0.8804,-0.8804,-0.8804,-0.8804,-0.8804,-0.8725,-0.8593,-0.8725,-0.8646,0.0,0.0,-0.6699,-0.6506,0.0,0.0,0.0,0.0,0.0,0.0,0.0,0.0,0.0,0.0,0.0,0.0,0.0,0.0,0.0,0.0,0.0,0.0,0.0,0.0,0.0,-0.7695,-0.7695,-0.7695,-0.7885,-0.7914,-0.771,-0.7695,-0.7695,-0.7695,-0.7695,-0.7695,-0.7695,-0.7899,-0.8105,-0.8305,-0.8305,-0.8589,-0.9112,-0.9241,-0.9151,-0.8934,-0.9684,-0.9725,-0.9346,-1.0023,-1.0306,-1.0322,-1.0563,-1.0505,-1.0303,-1.0303,-1.043,-1.0596,-1.0596,-1.1046,-1.1623,-1.1848,-1.2197,-1.2598,-1.2837,-1.2905,-1.2968,-1.3262,-1.3128,-1.2905,-1.2905,-1.2905,-1.2905,-1.2905,-1.2905,-1.2905,-1.2905,-1.2905,-1.2905,-1.2905,-1.2905,-1.2905,-1.2905,-1.2905,-1.2905,-1.2905,-1.2905,-1.2905,-1.2905,-1.2584,-1.1965,-1.0914,-1.0491,-0.9891,-0.8883,-0.8804,-0.8804,-0.8804,-0.8804,-0.8804,-0.8804,-0.8804,-0.8804,-0.8804,-0.8804,-0.8804,-0.8804,-0.8804,-0.8619,-0.8262,-0.8619,-0.8401,0.0,0.0,0.0,0.0,0.0,-0.6076,0.0,0.0,0.0,0.0,0.0,0.0,0.0,0.0,0.0,0.0,0.0,0.0,0.0,0.0,0.0,0.0,0.0,0.0,0.0,-0.7611,-0.7695,-0.7894,-0.8041,-0.8069,-0.7922,-0.7846,-0.7856,-0.7904,-0.7904,-0.7875,-0.7812,-0.7812,-0.7932,-0.8191,-0.8191,-0.8633,-0.944,-0.9507,-0.958,-0.9659,-0.9808,-0.9772,-0.962,-0.979,-1.0092,-1.0467,-1.0745,-1.063,-1.0303,-1.0303,-1.0303,-1.0312,-1.0391,-1.088,-1.1498,-1.1796,-1.2506,-1.3224,-1.3104,-1.3065,-1.3176,-1.3661,-1.3372,-1.2905,-1.2905,-1.2905,-1.2905,-1.2905,-1.2905,-1.2905,-1.2905,-1.2905,-1.2905,-1.2905,-1.2905,-1.2905,-1.2905,-1.2905,-1.2905,-1.2905,-1.2905,-1.2905,-1.2905,-1.2369,-1.1699,-1.0889,-1.0312,-0.9666,-0.8857,-0.8804,-0.8804,-0.8804,-0.8804,-0.8804,-0.8804,-0.8804,-0.8804,-0.8804,-0.8804,-0.8804,-0.8804,-0.8804,-0.8507,-0.791,-0.8513,-0.8156,0.0,0.0,0.0,0.0,-0.7291,0.0,0.0,0.0,0.0,0.0,0.0,0.0,0.0,0.0,0.0,0.0,0.0,0.0,0.0,0.0,0.0,0.0,0.0,0.0,0.0,0.0,-0.7653,-0.8599,-0.7948,-0.7842,-0.8629,-0.8393,-0.8365,-0.8665,-0.8679,-0.8537,-0.8233,-0.8233,-0.8076,-0.7768,-0.7768,-0.8402,-0.9577,-0.9652,-0.9869,-1.023,-1.0662,-1.0368,-0.9658,-1.0499,-1.0872,-1.0886,-1.0525,-1.0341,-1.0303,-1.0303,-1.0303,-1.0352,-1.0713,-1.0898,-1.1208,-1.2489,-1.3644,-1.441,-1.3873,-1.3708,-1.3708,-1.3779,-1.3372,-1.2905,-1.2905,-1.2905,-1.2905,-1.2905,-1.2905,-1.2905,-1.2905,-1.2905,-1.2905,-1.2905,-1.2905,-1.2905,-1.2905,-1.2905,-1.2905,-1.2905,-1.2905,-1.2905,-1.2905,-1.2832,-1.228,-1.0948,-1.0737,-1.0167,-0.891,-0.8804,-0.8804,-0.8804,-0.8804,-0.8804,-0.8804,-0.8804,-0.8804,-0.8804,-0.8804,-0.8804,-0.8804,-0.8804,-0.8752,-0.8672,-0.8752,-0.8699,0.0,0.0,0.0,0.0,0.0,0.0,-0.5791,0.0,-0.541,0.0,0.0,0.0,0.0,0.0,0.0,0.0,0.0,0.0,0.0,0.0,0.0,0.0,0.0,0.0,0.0,0.0,0.0,0.0,0.0,-0.8117,-0.8327,-0.8494,-0.8662,-0.8803,-0.8803,-0.8734,-0.8592,-0.8393,-0.8219,-0.8048,-0.8084,-0.8633,-0.9608,-0.9955,-1.0299,-1.0648,-1.0648,-1.0415,-1.0019,-1.0146,-1.036,-1.0592,-1.0687,-1.0706,-1.0668,-1.039,-1.0467,-1.0768,-1.1256,-1.1777,-1.2435,-1.3651,-1.4325,-1.4721,-1.4824,-1.4595,-1.4399,-1.4755,-1.4167,-1.342,-1.342,-1.3152,-1.2905,-1.2905,-1.2905,-1.2905,-1.2905,-1.2905,-1.2905,-1.2905,-1.2905,-1.2905,-1.2905,-1.2905,-1.2905,-1.2905,-1.2905,-1.2905,-1.2905,-1.2535,-1.1882,-1.0889,-1.044,-0.984,-0.8883,-0.8804,-0.8804,-0.8804,-0.8804,-0.8804,-0.8804,-0.8804,-0.8804,-0.8804,-0.8804,-0.8804,-0.8804,-0.8804,-0.8804,-0.8804,-0.8804,-0.8804,-0.825,0.0,0.0,0.0,0.0,0.0,0.0,0.0,0.0,0.0,0.0,0.0,0.0,0.0,0.0,0.0,0.0,0.0,0.0,0.0,0.0,0.0,0.0,0.0,0.0,0.0,0.0,0.0,0.0,0.0,-0.8378,-0.8596,-0.8832,-0.9091,-0.9103,-0.9062,-0.8967,-0.8717,-0.8547,-0.8435,-0.8506,-0.8973,-0.9795,-1.0055,-1.0453,-1.0915,-1.0669,-1.0467,-1.0273,-1.0063,-1.0272,-1.0725,-1.0924,-1.1169,-1.1338,-1.0725,-1.0802,-1.1292,-1.181,-1.2809,-1.3948,-1.4519,-1.4926,-1.5242,-1.5521,-1.5298,-1.5039,-1.5477,-1.4846,-1.4003,-1.3839,-1.3457,-1.3104,-1.2954,-1.2905,-1.2905,-1.2905,-1.2905,-1.2905,-1.2905,-1.2905,-1.2905,-1.2905,-1.2905,-1.2905,-1.2905,-1.2905,-1.2905,-1.2905,-1.2427,-1.1774,-1.0889,-1.0364,-0.9744,-0.8883,-0.8804,-0.8804,-0.8804,-0.8804,-0.8804,-0.8804,-0.8804,-0.8804,-0.8804,-0.8804,-0.8804,-0.8804,-0.8804,-0.8804,-0.8804,-0.8804,-0.8804,0.0,0.0,0.0,-0.7505,0.0,0.0,0.0,0.0,-0.625,0.0,0.0,0.0,0.0,0.0,0.0,0.0,0.0,0.0,0.0,0.0,0.0,0.0,0.0,0.0,0.0,0.0,0.0,0.0,0.0,0.0,-0.9279,-0.8814,-0.8922,-0.9842,-0.9867,-0.9699,-0.9383,-0.9369,-0.9168,-0.8775,-0.885,-0.9381,-1.0252,-0.982,-1.0121,-1.0987,-1.0998,-1.0724,-1.0332,-1.0781,-1.1271,-1.17,-1.1207,-1.1586,-1.2336,-1.1345,-1.1319,-1.1834,-1.2304,-1.3803,-1.5429,-1.4869,-1.55,-1.6337,-1.5776,-1.5588,-1.5588,-1.5576,-1.5141,-1.4537,-1.3956,-1.3802,-1.3613,-1.3041,-1.2905,-1.2905,-1.2905,-1.2905,-1.2905,-1.2905,-1.2905,-1.2905,-1.2905,-1.2905,-1.2905,-1.2905,-1.2905,-1.2905,-1.2905,-1.2881,-1.2329,-1.0948,-1.0788,-1.0236,-0.891,-0.8804,-0.8804,-0.8804,-0.8804,-0.8804,-0.8804,-0.8804,-0.8804,-0.8804,-0.8804,-0.8804,-0.8804,-0.8804,-0.8804,-0.8804,-0.8804,-0.8804,0.0,0.0,-0.9252,-0.7856,0.0,0.0,0.0,0.0,0.0,0.0,0.0,0.0,0.0,0.0,0.0,0.0,0.0,0.0,0.0,0.0,0.0,0.0,0.0,0.0,0.0,0.0,0.0,0.0,0.0,0.0,0.0,-0.9243,-0.9639,-0.939,-0.9717,-0.9841,-0.9725,-0.9502,-0.9329,-0.9193,-0.9308,-0.9691,-1.0302,-1.0449,-1.0891,-1.1505,-1.114,-1.0905,-1.0783,-1.0924,-1.1113,-1.1319,-1.1799,-1.221,-1.2425,-1.1763,-1.1847,-1.2452,-1.3666,-1.5002,-1.6173,-1.5954,-1.6173,-1.6457,-1.6259,-1.6194,-1.6194,-1.6194,-1.5466,-1.4652,-1.4445,-1.3813,-1.3152,-1.2954,-1.2905,-1.2905,-1.2905,-1.2905,-1.2905,-1.2905,-1.2905,-1.2905,-1.2905,-1.2905,-1.2905,-1.2905,-1.2905,-1.2905,-1.2905,-1.2476,-1.1832,-1.0889,-1.0389,-0.9762,-0.8883,-0.8804,-0.8804,-0.8804,-0.8804,-0.8804,-0.8804,-0.8804,-0.8804,-0.8804,-0.8804,-0.8804,-0.8804,-0.8804,-0.8804,-0.8804,-0.8804,-0.8804,-0.925,-0.9406,0.0,-0.8227,-0.7944,0.0,-0.6526,0.0,0.0,0.0,0.0,0.0,0.0,0.0,0.0,0.0,0.0,0.0,0.0,0.0,0.0,0.0,0.0,0.0,0.0,0.0,-0.6876,-0.7332,0.0,0.0,0.0,0.0,-0.9895,-0.9403,-0.973,-0.9905,-0.9905,-0.9686,-0.9665,-0.9859,-0.998,-1.0206,-1.0526,-1.0844,-1.1094,-1.1274,-1.1282,-1.1188,-1.1038,-1.1383,-1.1531,-1.1597,-1.2246,-1.2597,-1.2685,-1.221,-1.2467,-1.3274,-1.4704,-1.5756,-1.65,-1.65,-1.65,-1.65,-1.65,-1.6358,-1.6194,-1.6194,-1.5466,-1.4652,-1.4445,-1.3813,-1.3176,-1.2954,-1.2905,-1.2905,-1.2905,-1.2905,-1.2905,-1.2905,-1.2905,-1.2905,-1.2905,-1.2905,-1.2905,-1.2905,-1.2905,-1.2905,-1.2905,-1.2476,-1.1931,-1.1241,-1.0568,-0.9788,-0.8883,-0.8804,-0.8804,-0.8804,-0.8804,-0.8804,-0.8804,-0.8804,-0.8804,-0.8804,-0.8804,-0.8804,-0.8804,-0.8804,-0.8804,-0.8804,-0.8804,-0.8804]},{"header":{"parameterUnit":"m.s-1","parameterCategory":1,"la1":30.6,"la2":29.2853,"lo1":-89.7004,"lo2":-87.6739,"dy":0.0162,"dx":0.0183,"nx":112,"ny":82,"refTime":"2025-02-03T06:00:00:Z","depth":0,"parameterNumber":3,"parameterNumberName":"V-component_of_WINDS"},"data":[0.0,0.0,0.0,0.0,0.0,0.0,0.0,0.0,0.0,0.0,0.0,0.0,0.0,0.0,0.0,0.0,0.0,0.0,0.0,0.0,0.0,0.0,0.0,0.0,0.0,0.0,0.0,0.0,0.0,0.0,0.0,0.0,0.0,0.0,0.0,0.0,0.0,0.0,0.0,0.0,0.0,0.0,0.0,0.0,0.0,0.0,0.0,0.0,0.0,0.0,0.0,0.0,0.0,0.0,0.0,0.0,0.0,0.0,0.0,0.0,0.0,0.0,0.0,0.0,0.0,0.0,0.0,0.0,0.0,0.0,0.0,0.0,0.0,0.0,0.0,0.0,0.0,0.0,0.0,0.0,0.0,0.0,0.0,0.0,0.0,0.0,0.0,0.0,0.0,0.0,0.0,0.7473,0.9172,0.9933,0.925,0.9824,0.9177,0.6758,0.0,0.0,0.0,0.0,0.0,0.0,0.0,0.0,0.0,0.0,0.0,0.0,0.0,0.0,0.0,0.0,0.0,0.0,0.0,0.0,0.0,0.0,0.0,0.0,0.0,0.0,0.0,0.0,0.0,0.0,0.0,0.0,0.0,0.0,0.0,0.0,0.0,0.0,0.0,0.0,0.0,0.0,0.0,0.0,0.0,0.0,0.0,0.0,0.0,0.0,0.0,0.0,0.0,0.0,0.0,0.0,0.0,0.0,0.0,0.0,0.0,0.0,0.0,0.0,0.0,0.0,0.0,0.0,0.0,0.0,0.0,0.0,0.0,0.0,0.0,0.0,0.0,0.0,0.0,0.0,0.0,0.0,0.0,0.0,0.0,0.0,0.0,0.0,0.0,0.0,0.0,0.0,0.0,0.0,0.0,0.0,0.0,0.0,0.0,0.0,0.0,0.0,0.0,0.0,0.6797,0.9313,0.9941,1.0173,1.0117,1.0215,0.9492,0.7617,0.0,0.0,0.0,0.0,0.0,0.0,0.0,0.0,0.0,0.0,0.0,0.0,0.0,0.0,0.0,0.0,0.0,0.0,0.0,0.0,0.0,0.0,0.0,0.0,0.0,0.0,0.0,0.0,0.0,0.0,0.0,0.0,0.0,0.0,0.0,0.0,0.0,0.0,0.0,0.0,0.0,0.0,0.0,0.0,0.0,0.0,0.0,0.0,0.0,0.0,0.0,0.0,0.0,0.0,0.0,0.0,0.0,0.0,0.0,0.0,0.0,0.0,0.0,0.0,0.0,0.0,0.0,0.0,0.0,0.0,0.0,0.0,0.0,0.0,0.0,0.0,0.0,0.0,0.0,0.0,0.0,0.0,0.0,0.0,0.0,0.0,0.0,0.0,0.0,0.0,0.0,0.0,0.0,0.0,0.0,0.0,0.0,0.0,0.0,0.0,0.0,0.0,0.0,0.6324,0.7723,0.9836,1.0149,1.0233,1.0293,1.0293,0.9766,0.8477,0.7968,0.0,0.0,0.0,0.0,0.0,0.0,0.0,0.0,0.0,0.0,0.0,0.0,0.0,0.0,0.0,0.0,0.0,0.0,0.0,0.0,0.0,0.0,0.0,0.0,0.0,0.0,0.0,0.0,0.0,0.0,0.0,0.0,0.0,0.0,0.0,0.0,0.0,0.0,0.0,0.0,0.0,0.0,0.0,0.0,0.0,0.0,0.0,0.0,0.0,0.0,0.0,0.0,0.0,0.0,0.0,0.0,0.0,0.0,0.0,0.0,0.0,0.0,0.0,0.0,0.0,0.0,0.0,0.0,0.0,0.0,0.0,0.0,0.0,0.0,0.0,0.0,0.0,0.0,0.0,0.0,0.0,0.0,0.0,0.0,0.0,0.0,0.0,0.0,0.0,0.0,0.0,0.0,0.0,0.0,0.0,0.0,0.0,0.0,0.0,0.0,0.0,0.0,0.7493,0.857,0.9935,1.0154,1.0233,1.0293,1.0293,0.9922,0.9062,0.8179,0.0,0.0,0.0,0.0,0.0,0.0,0.0,0.0,0.0,0.0,0.0,0.0,0.0,0.0,0.0,0.0,0.0,0.0,0.0,0.0,0.0,0.0,0.0,0.0,0.0,0.0,0.0,0.0,0.0,0.0,0.0,0.0,0.0,0.0,0.0,0.0,0.0,0.0,0.0,0.0,0.0,0.0,0.0,0.0,0.0,0.0,0.0,0.0,0.0,0.0,0.0,0.0,0.0,0.0,0.0,0.0,0.0,0.0,0.0,0.0,0.0,0.0,0.0,0.0,0.0,0.0,0.0,0.0,0.0,0.0,0.0,0.0,0.0,0.0,0.0,0.0,0.0,0.0,0.0,0.0,0.0,0.0,0.0,0.0,0.0,0.0,0.0,0.0,0.0,0.0,0.0,0.0,0.0,0.0,0.0,0.0,0.0,0.0,0.0,0.0,0.0,0.0,0.7713,0.9128,0.9931,1.0119,1.0233,1.0293,1.0293,0.9921,0.9055,0.8174,0.0,0.0,0.0,0.0,0.0,0.0,0.0,0.0,0.0,0.0,0.0,0.0,0.0,0.0,0.0,0.0,0.0,0.0,0.0,0.0,0.0,0.0,0.0,0.0,0.0,0.0,0.0,0.0,0.0,0.0,0.0,0.0,0.0,0.0,0.0,0.0,0.0,0.0,0.0,0.0,0.0,0.0,0.0,0.0,0.0,0.0,0.0,0.0,0.0,0.0,0.0,0.0,0.0,0.0,0.0,0.0,0.0,0.0,0.0,0.0,0.0,0.0,0.0,0.0,0.0,0.0,0.0,0.0,0.0,0.0,0.0,0.0,0.0,0.0,0.0,0.0,0.0,0.0,0.0,0.0,0.0,0.0,0.0,0.0,0.0,0.0,0.0,0.0,0.0,0.0,0.0,0.0,0.0,0.0,0.0,0.0,0.0,0.0,0.0,0.0,0.0,0.0,0.7763,0.9057,0.0,1.0132,1.0233,1.0293,1.0293,1.0136,0.9778,0.0,0.0,0.0,0.0,0.0,0.0,0.0,0.0,0.0,0.0,0.0,0.0,0.0,0.0,0.0,0.0,0.0,0.0,0.0,0.0,0.0,0.0,0.0,0.0,0.0,0.0,0.0,0.0,0.0,0.0,0.0,0.0,0.0,0.0,0.0,0.0,0.0,0.0,0.0,0.0,0.0,0.0,0.0,0.0,0.0,0.0,0.0,0.0,0.0,0.0,0.0,0.0,0.0,0.0,0.0,0.0,0.0,0.0,0.0,0.0,0.0,0.0,0.0,0.0,0.0,0.0,0.0,0.0,0.0,0.0,0.0,0.0,0.0,0.0,0.0,0.0,0.0,0.0,0.0,0.0,0.0,0.0,0.0,0.0,0.0,0.0,0.0,0.0,0.0,0.0,0.0,0.0,0.0,0.0,0.0,0.0,0.0,0.0,0.0,0.0,0.0,0.0,0.6583,0.7996,0.9253,0.0,1.016,1.0233,1.0293,1.0293,1.0155,0.9813,0.0,0.0,0.0,0.0,0.0,0.0,0.0,0.0,0.0,0.0,0.0,0.0,0.0,0.0,0.0,0.0,0.0,0.0,0.0,0.0,0.0,0.0,0.0,0.0,0.0,0.0,0.0,0.0,0.0,0.0,0.0,0.0,0.0,0.0,0.0,0.0,0.0,0.0,0.0,0.0,0.0,0.0,0.0,0.0,0.0,0.0,0.0,0.0,0.0,0.0,0.0,0.0,0.0,0.0,0.0,0.0,0.0,0.0,0.0,0.0,0.0,0.0,0.0,0.0,0.0,0.0,0.0,0.0,0.0,0.0,0.0,0.0,0.0,0.0,0.0,0.0,0.0,0.0,0.0,0.0,0.0,0.0,0.0,0.0,0.0,0.0,0.0,0.0,0.0,0.0,0.0,0.0,0.0,0.0,0.0,0.0,0.0,0.0,0.0,0.0,0.0,0.0,0.678,0.8498,0.981,1.0075,1.016,1.0233,1.0293,1.0293,0.99,0.0,0.0,0.0,0.0,0.0,0.0,0.0,0.0,0.0,0.0,0.0,0.0,0.0,0.0,0.0,0.0,0.0,0.0,0.0,0.0,0.0,0.0,0.0,0.0,0.0,0.0,0.0,0.0,0.0,0.0,0.0,0.0,0.0,0.0,0.0,0.0,0.0,0.0,0.0,0.0,0.0,0.0,0.0,0.0,0.0,0.0,0.0,0.0,0.0,0.0,0.0,0.0,0.0,0.0,0.0,0.0,0.0,0.0,0.0,0.0,0.0,0.0,0.0,0.0,0.0,0.0,0.0,0.0,0.0,0.0,0.0,0.0,0.0,0.0,0.0,0.0,0.0,0.0,0.0,0.0,0.0,0.0,0.0,0.0,0.0,0.0,0.0,0.0,0.0,0.0,0.0,0.0,0.0,0.0,0.0,0.0,0.0,0.0,0.0,0.0,0.0,0.0,0.0,0.6863,0.8609,0.9904,1.0081,1.016,1.0226,1.0293,1.0293,1.0153,0.983,0.0,0.0,0.0,0.0,0.0,0.0,0.0,0.0,0.0,0.0,0.0,0.0,0.0,0.0,0.0,0.0,0.0,0.0,0.0,0.0,0.0,0.0,0.0,0.0,0.0,0.0,0.0,0.0,0.0,0.0,0.0,0.0,0.0,0.0,0.0,0.0,0.0,0.0,0.0,0.0,0.0,0.0,0.0,0.0,0.0,0.0,0.0,0.0,0.0,0.0,0.0,0.0,0.0,0.0,0.0,0.0,0.0,0.0,0.0,0.0,0.0,0.0,0.0,0.0,0.0,0.0,0.0,0.0,0.0,0.0,0.0,0.0,0.0,0.0,0.0,0.0,0.0,0.0,0.0,0.0,0.0,0.0,0.0,0.0,0.0,0.0,0.0,0.0,0.0,0.0,0.0,0.0,0.0,0.0,0.0,0.0,0.0,0.0,0.0,0.0,0.0,0.0,0.7412,0.8929,1.0023,1.0125,1.0177,1.023,1.0293,1.0293,1.0115,0.9714,0.0,0.0,0.0,0.0,0.0,0.0,0.0,0.0,0.0,0.0,0.0,0.0,0.0,0.0,0.0,0.0,0.0,0.0,0.0,0.0,0.0,0.0,0.0,0.0,0.0,0.0,0.0,0.0,0.0,0.0,0.0,0.0,0.0,0.0,0.0,0.0,0.0,0.0,0.0,0.0,0.0,0.0,0.0,0.0,0.0,0.0,0.0,0.0,0.0,0.0,0.0,0.0,0.0,0.0,0.0,0.0,0.0,0.0,0.0,0.0,0.0,0.0,0.0,0.0,0.0,0.0,0.0,0.0,0.0,0.0,0.0,0.0,0.0,0.0,0.0,0.0,0.0,0.0,0.0,0.0,0.0,0.0,0.0,0.0,0.0,0.0,0.0,0.0,0.0,0.0,0.0,0.0,0.0,0.0,0.0,0.0,0.0,0.0,0.0,0.0,0.0,0.0,0.8196,0.936,1.0138,1.0183,1.0208,1.0231,1.0293,1.0293,0.9919,0.9075,0.0,0.0,0.0,0.0,0.0,0.0,0.0,0.0,0.0,0.0,0.0,0.0,0.0,0.0,0.0,0.0,0.0,0.0,0.0,0.0,0.0,0.0,0.0,0.0,0.0,0.0,0.0,0.0,0.0,0.0,0.0,0.0,0.0,0.0,0.0,0.0,0.0,0.0,0.0,0.0,0.0,0.0,0.0,0.0,0.0,0.0,0.0,0.0,0.0,0.0,0.0,0.0,0.0,0.0,0.0,0.0,0.0,0.0,0.0,0.0,0.6816,0.0,0.0,0.0,0.0,0.0,0.0,0.0,0.0,0.0,0.0,0.0,0.0,0.0,0.0,0.0,0.0,0.0,0.0,0.0,0.0,0.0,0.0,0.0,0.0,0.0,0.0,0.0,0.0,0.0,0.0,0.0,0.0,0.0,0.0,0.0,0.0,0.0,0.0,0.0,0.0,0.0,0.8333,0.9425,1.0131,1.0185,1.0252,1.0273,1.0293,1.0252,1.0146,0.9926,0.906,0.0,0.0,0.0,0.0,0.0,0.0,0.0,0.0,0.0,0.0,0.0,0.0,0.0,0.0,0.0,0.0,0.0,0.0,0.0,0.0,0.0,0.0,0.0,0.0,0.0,0.0,0.0,0.0,0.0,0.0,0.0,0.0,0.0,0.0,0.0,0.0,0.0,0.0,0.0,0.0,0.0,0.0,0.0,0.0,0.0,0.0,0.0,0.0,0.0,0.0,0.0,0.0,0.0,0.0,0.0,0.0,0.0,0.0,0.0,0.0,0.7519,0.0,0.0,0.0,0.0,0.0,0.0,0.0,0.0,0.0,0.0,0.0,0.0,0.0,0.0,0.0,0.0,0.0,0.0,0.0,0.0,0.0,0.0,0.0,0.0,0.0,0.0,0.0,0.0,0.0,0.0,0.0,0.0,0.0,0.0,0.0,0.0,0.0,0.0,0.0,0.0,0.8947,0.9719,1.0177,1.0231,1.0273,1.0293,1.0293,1.0273,1.0226,1.0197,0.9344,0.0,0.0,0.0,0.0,0.0,0.0,0.0,0.0,0.0,0.0,0.0,0.0,0.0,0.0,0.0,0.0,0.0,0.0,0.0,0.0,0.0,0.0,0.0,0.0,0.0,0.0,0.0,0.0,0.0,0.0,0.0,0.0,0.0,0.0,0.0,0.0,0.0,0.0,0.0,0.0,0.0,0.0,0.0,0.0,0.0,0.0,0.0,0.0,0.0,0.0,0.0,0.0,0.0,0.8652,0.8633,0.8164,0.8652,0.9002,0.9172,0.8456,0.8535,0.914,0.0,0.0,0.0,0.0,0.0,0.0,0.0,0.0,0.0,0.0,0.0,0.0,0.0,0.0,0.0,0.0,0.0,0.0,0.0,0.0,0.0,0.0,0.0,0.0,0.0,1.0065,0.9704,0.0,0.0,0.0,0.0,0.0,0.0,0.0,0.0,0.0,0.0,0.0,0.0,0.9645,1.0063,1.0232,1.0293,1.0293,1.0293,1.0293,1.0293,1.027,1.0205,0.9516,0.9038,0.0,0.0,0.0,0.0,0.0,0.0,0.0,0.0,0.0,0.0,0.0,0.0,0.0,0.0,0.0,0.0,0.0,0.0,0.0,0.0,0.0,0.0,0.0,0.0,0.0,0.0,0.0,0.0,0.0,0.0,0.0,0.0,0.5886,0.519,0.0,0.0,0.0,0.0,0.0,0.0,0.0,0.0,0.0,0.0,0.0,0.0,0.0,0.7987,0.8828,0.8828,0.9199,0.9961,1.0039,1.0039,0.9961,0.9978,1.0013,1.003,0.992,0.0,0.9972,0.9169,0.0,0.0,0.0,0.0,0.0,0.0,0.0,0.0,0.0,0.0,0.0,0.0,0.0,0.0,0.0,0.0,0.0,0.0,0.0,0.0,0.0,0.0,0.9877,1.0057,1.009,1.0037,0.0,0.9162,0.835,0.7413,0.0,0.0,0.0,0.0,0.0,0.0,0.0,0.0,0.9926,1.0135,1.0232,1.0293,1.0293,1.0293,1.0293,1.0252,1.0208,1.0205,1.0093,0.969,0.8924,0.8675,0.0,0.0,0.0,0.0,0.0,0.0,0.0,0.0,0.0,0.0,0.0,0.0,0.0,0.0,0.0,0.0,0.0,0.0,0.0,0.0,0.0,0.0,0.0,0.0,0.0,0.0,0.0,0.0,0.0,0.6135,0.6406,0.6538,0.6839,0.6898,0.0,0.0,0.0,0.0,0.0,0.0,0.0,0.0,0.0,0.8365,0.841,0.8845,0.9727,0.9727,0.9922,1.0293,1.0253,1.0232,1.0232,1.02,1.0206,1.0193,1.0199,1.018,1.0124,0.9801,0.9679,0.9642,0.0,0.0,0.0,0.0,0.9391,0.9783,0.98,1.0107,0.0,0.0,0.0,0.0,0.0,0.0,0.0,0.0,0.0,0.0,0.0,0.0,0.0,1.009,1.0094,1.0094,1.0094,0.9796,0.9277,0.0,0.8183,0.7971,0.7409,0.0,0.0,0.0,0.0,0.0,0.9983,1.0159,1.0232,1.0293,1.0293,1.0293,1.0293,1.0273,1.0232,1.0207,1.0201,1.0035,0.9651,0.9162,0.8586,0.0,0.0,0.0,0.0,0.0,0.0,0.0,0.0,0.0,0.0,0.0,0.0,0.0,0.0,0.0,0.0,0.0,0.0,0.0,0.0,0.0,0.0,0.0,0.0,0.0,0.0,0.0,0.0,0.6764,0.7202,0.7631,0.7832,0.7872,0.0,0.0,0.0,0.0,0.0,0.0,0.7952,0.8194,0.8608,0.9208,0.9277,0.9619,1.0271,1.0271,1.0271,1.0271,1.0225,1.0201,1.0201,1.0409,1.0385,1.0209,1.041,1.0345,1.0106,1.017,1.0198,1.0223,1.0449,1.0544,1.0581,1.0805,1.1295,1.1827,1.1828,1.225,1.2561,1.1269,0.0,1.0594,0.9293,0.0,0.0,0.0,0.0,1.0308,1.01,1.01,1.0131,1.0138,1.0136,1.0113,1.0098,1.0094,0.9917,0.0,0.9133,0.8875,0.8153,0.0,0.0,0.0,0.0,0.9326,1.0038,1.0171,1.0238,1.0293,1.0293,1.0293,1.0293,1.0293,1.0273,1.023,1.0217,1.0194,1.0205,0.9584,0.9196,0.9141,0.0,0.0,0.0,0.0,0.0,0.0,0.0,0.0,0.0,0.0,0.0,0.0,0.0,0.0,0.0,0.0,0.0,0.0,0.0,0.0,0.0,0.0,0.0,0.0,0.0,0.0,0.0,0.0,0.0,0.7694,0.8326,0.0,0.0,0.0,0.0,0.7691,0.8474,0.8941,0.8935,0.9659,1.0082,1.0138,1.0138,1.0158,1.0198,1.0218,1.0218,1.0198,1.0197,1.0197,1.0234,1.0992,1.0917,1.0247,1.1011,1.087,1.0119,1.0177,1.0194,1.0278,1.1102,1.1463,1.1621,1.2461,1.2752,1.2728,1.2727,1.272,1.2698,1.2597,1.2562,1.2553,1.2473,1.2469,0.0,0.0,1.1298,1.1156,1.0396,1.0189,1.0185,1.0195,1.0187,1.0177,1.0108,1.0094,1.0061,0.0,0.9942,0.9896,0.9797,0.0,0.9808,0.9922,0.998,1.007,1.0186,1.0195,1.023,1.0293,1.0293,1.0293,1.0293,1.0293,1.0293,1.0293,1.0231,1.0198,1.0194,1.0167,1.0109,1.0037,0.9143,0.0,0.0,0.0,0.0,0.0,0.0,0.0,0.0,0.0,0.0,0.0,0.0,0.0,0.0,0.0,0.0,0.0,0.0,0.0,0.0,0.0,0.0,0.0,0.0,0.0,0.0,0.0,0.0,0.9234,0.9507,0.0,0.9299,0.9282,0.9279,0.9312,0.9599,0.9771,0.9778,1.0031,1.0201,1.0209,1.0207,1.0198,1.0194,1.0755,1.1046,1.1046,1.1564,1.1803,1.182,1.2108,1.1761,1.1011,1.1862,1.1735,1.0985,1.1564,1.1506,1.1118,1.1993,1.2378,1.2402,1.2168,1.2734,1.3553,1.2999,1.3513,1.4337,1.3735,1.3196,1.2753,1.2717,1.2703,1.2645,1.2316,1.2248,1.2173,1.1938,1.1874,1.1878,1.187,1.1869,1.1708,1.1127,1.0992,1.0833,1.0247,1.0096,1.0061,1.0037,1.0032,1.0041,1.0065,1.0115,1.0166,1.019,1.0196,1.023,1.0293,1.0293,1.0293,1.0293,1.0293,1.0273,1.0231,1.022,1.0199,1.021,1.017,1.0102,1.0046,0.9186,0.8204,0.0,0.0,0.0,0.0,0.0,0.0,0.0,0.0,0.0,0.0,0.0,0.0,0.0,0.0,0.0,0.0,0.0,0.0,0.0,0.0,0.0,0.0,0.0,0.0,0.0,0.0,0.9511,1.0091,1.0138,1.0136,1.0187,1.019,1.0206,1.0194,1.0191,1.0205,1.0194,1.0191,1.0184,1.0169,1.0457,1.0604,1.0607,1.1476,1.1901,1.1901,1.245,1.2704,1.2704,1.2981,1.2639,1.1891,1.2736,1.262,1.1908,1.2755,1.2794,1.2405,1.2974,1.3253,1.3262,1.2988,1.3574,1.4453,1.3877,1.4436,1.5294,1.4648,1.4078,1.3648,1.36,1.3589,1.3511,1.3222,1.3152,1.3109,1.2864,1.2815,1.2837,1.2812,1.2792,1.2631,1.2022,1.1918,1.1754,1.1166,1.0521,1.0102,1.0121,1.0124,1.0238,1.0504,1.0354,1.0311,1.0599,1.0384,1.0224,1.0253,1.0273,1.0272,1.0269,1.0271,1.0251,1.02,1.0205,1.0203,1.0193,1.0161,1.0092,0.9997,0.9132,0.8338,0.7659,0.0,0.0,0.0,0.0,0.0,0.0,0.0,0.0,0.0,0.0,0.0,0.0,0.0,0.0,0.0,0.0,0.0,0.0,0.0,0.0,0.0,0.0,0.0,0.894,0.961,1.0096,1.0094,1.0094,1.0136,1.0186,1.0209,1.0204,1.0249,1.0231,1.024,1.0287,1.0285,1.0246,1.0173,1.1002,1.1447,1.1447,1.2296,1.276,1.2779,1.2817,1.2817,1.2856,1.3635,1.3538,1.2777,1.3594,1.3481,1.2796,1.3613,1.3983,1.4031,1.4041,1.4085,1.4238,1.5059,1.5351,1.5352,1.5383,1.5397,1.5393,1.5312,1.53,1.53,1.5299,1.5297,1.5124,1.4272,1.4092,1.3949,1.3098,1.2928,1.2969,1.2906,1.2885,1.2857,1.2757,1.2795,1.2811,1.2727,1.1341,1.0196,1.0264,1.0272,1.0558,1.132,1.0755,0.0,1.1396,1.0738,1.0206,1.0206,1.0207,1.0201,1.0197,1.0197,1.02,1.0195,1.0193,1.0201,1.019,1.0208,1.0129,0.9999,0.9085,0.8475,0.8208,0.0,0.0,0.0,0.0,0.0,0.0,0.0,0.0,0.0,0.0,0.0,0.0,0.0,0.0,0.0,0.0,0.0,0.0,0.0,0.0,0.0,0.0,1.0512,0.9917,1.0026,1.0159,1.0119,1.0094,1.0102,1.0136,1.0172,1.0433,1.1026,1.1068,1.1357,1.1973,1.201,1.2003,1.1988,1.2219,1.2334,1.2334,1.3156,1.3885,1.4522,1.516,1.5467,1.5467,1.5676,1.4962,1.3613,1.4478,1.4363,1.3632,1.4497,1.4871,1.4934,1.4931,1.4952,1.4911,1.4521,1.4383,1.4483,1.5116,1.5361,1.5407,1.5389,1.5371,1.5365,1.5372,1.5366,1.5328,1.5075,1.504,1.4988,1.4745,1.4707,1.4707,1.4687,1.4687,1.4511,1.3862,1.3722,1.3542,1.2891,1.2385,1.2057,1.2085,1.2087,1.2164,1.2375,1.1697,0.0,1.1468,1.0747,1.0203,1.0207,1.0207,1.0201,1.0197,1.0202,1.0196,1.0206,1.0205,1.0187,1.0121,1.0138,1.0088,0.9997,0.9085,0.8549,0.0,0.0,0.0,0.0,0.0,0.0,0.0,0.0,0.0,0.0,0.0,0.0,0.0,0.0,0.0,0.0,0.0,0.0,0.0,0.0,0.0,0.0,1.1077,1.1787,1.1318,1.1242,1.1231,1.1199,1.1194,1.1194,1.1194,1.1225,1.1443,1.1913,1.1933,1.2168,1.2664,1.2702,1.2702,1.2702,1.3024,1.3387,1.3736,1.4577,1.5404,1.6253,1.6753,1.6964,1.6915,1.6915,1.6346,0.0,1.5868,1.5609,1.4854,1.5376,1.5397,0.0,0.0,0.0,0.0,0.0,1.4531,1.4611,1.5119,1.5329,1.5361,1.5361,1.5352,1.5363,1.537,1.5351,1.5351,1.5351,1.5351,1.535,1.5364,1.5362,1.5363,1.5387,1.5407,1.5253,1.4745,1.4646,1.4391,1.3507,0.0,0.0,1.29,1.2828,1.2915,1.3295,1.2261,1.1592,1.1989,1.0951,1.0208,1.0196,1.0204,1.0198,1.0202,1.0209,0.0,0.0,0.0,1.0149,1.0096,1.0074,0.0,0.0,0.0,0.0,0.0,0.0,0.0,0.0,0.8403,0.831,0.0,0.0,0.0,0.0,0.0,0.0,0.0,0.0,0.0,0.0,0.0,0.0,0.0,0.0,0.0,0.0,1.2269,1.2839,1.2839,1.2911,1.2911,1.2721,1.2702,1.2702,1.2702,1.2702,1.2741,1.2834,1.2834,1.2873,1.2988,0.0,0.0,0.0,0.0,1.4549,1.5309,1.6176,1.6999,1.7799,1.7799,1.7723,1.7609,1.7609,1.7501,1.7308,1.7308,1.6891,1.6238,1.6238,1.581,1.519,1.5321,1.5453,1.5532,1.5532,1.5532,1.5532,1.5539,0.0,0.0,1.5577,1.5582,1.5585,1.5585,1.5585,1.5585,1.5585,1.5585,1.5585,1.5585,1.5509,1.5457,1.5522,1.547,1.5403,1.5406,1.5408,1.5136,1.4267,1.4099,1.3848,1.3047,1.2859,1.3093,1.3965,1.2645,1.1855,1.2687,1.1368,1.0312,1.0217,0.0,0.0,1.0202,1.0199,1.0167,1.0111,1.0098,1.0094,1.0094,1.0031,1.0006,1.0006,0.9949,0.9907,0.9907,0.9841,0.985,0.9903,0.8254,0.789,0.0,0.0,0.0,0.0,0.0,0.0,0.0,0.0,0.0,0.0,0.0,0.0,0.0,0.0,0.0,1.2334,1.3125,1.3662,1.367,1.4269,1.4214,1.2854,1.2702,1.2702,1.2702,1.2702,1.2967,1.3613,1.367,1.3978,1.4673,1.4714,0.0,1.4714,1.5541,1.5996,1.601,1.686,1.7656,1.8352,0.0,0.0,1.8305,1.8305,1.7939,1.7308,1.7308,1.7219,1.7074,1.7074,1.698,1.6783,1.6176,1.634,1.6909,1.6909,1.6909,1.6923,1.7037,1.712,1.717,1.7274,1.7325,1.7319,1.7319,1.7319,0.0,1.7319,1.7319,1.7319,1.7319,1.6836,1.6355,1.6362,1.5863,1.5396,1.5403,1.5409,1.5137,1.4277,1.4101,1.3848,1.3047,1.289,1.316,1.3988,1.3206,1.2599,1.2789,1.1896,1.0982,1.0281,1.0206,1.02,1.019,1.0192,1.0194,1.018,1.0121,1.0094,1.0094,1.0086,1.008,1.008,1.0006,0.9975,0.9975,0.9854,1.013,1.0737,0.9699,0.9242,0.0,0.0,0.0,0.0,0.0,0.0,0.0,0.0,0.0,0.0,0.0,1.0888,1.1824,0.0,1.2942,1.381,1.4657,1.5192,1.5192,1.5577,1.5388,1.4102,1.3948,1.3948,1.3948,1.3948,1.4118,1.4516,1.4555,1.4747,1.5173,1.5137,1.5095,1.5095,1.5884,1.6434,1.6748,1.7577,1.8393,1.9151,1.9151,1.9129,1.9045,1.9045,1.8784,1.8297,1.8297,1.8074,1.7665,1.7275,1.7331,1.7665,1.7269,1.7184,1.7308,1.7308,1.7308,1.7299,1.7382,1.7425,1.7466,1.7526,1.7554,1.7554,1.7554,1.7554,1.7565,1.7639,1.7655,1.7664,1.773,1.7454,1.7152,1.7197,1.6569,1.5961,1.5991,1.5673,1.5134,1.4277,1.3769,1.3223,1.2383,1.2246,1.2675,1.3903,1.3699,1.3419,1.3445,1.2316,1.1321,1.0891,1.0485,1.0249,1.0196,1.02,1.0363,1.0783,1.0354,1.0308,1.0733,1.0327,1.0094,1.0094,1.0496,1.0694,1.0694,1.0996,1.1347,1.1682,1.1214,1.092,0.0,0.0,0.0,0.0,0.0,0.0,0.0,0.0,1.0519,1.1356,1.1536,1.1864,1.2978,1.3712,1.4497,1.5519,1.6272,1.6737,1.6737,1.6737,1.6458,1.5722,1.5373,1.5192,1.5192,1.5346,1.5385,1.5212,1.5331,1.5341,1.5171,1.5051,1.5057,1.5205,1.594,1.6709,1.7485,1.8309,1.9049,1.9701,1.9701,1.9625,1.9478,1.9478,1.9365,1.9154,1.9154,1.8799,1.8153,1.7501,1.7617,1.8208,1.8208,1.7962,1.7645,1.7662,1.7698,1.768,1.7733,1.7744,1.775,1.7783,1.7794,1.7794,1.7794,1.7794,1.7807,1.7942,1.7983,1.8013,1.8171,1.808,1.7963,1.8017,1.7388,1.673,1.6609,1.6086,1.5339,1.4295,1.3574,1.2852,1.1992,1.1973,1.248,1.3671,1.3953,1.4041,1.4093,1.2865,1.1949,1.1792,1.1034,1.0468,1.0227,1.0194,1.0485,1.1126,1.0641,1.0675,1.137,1.0733,1.0423,1.0596,1.1137,1.1485,1.1658,1.223,1.2563,1.2673,1.2598,1.2383,1.0369,0.9852,0.9608,0.9535,1.0156,1.0807,0.0,0.0,1.2095,1.2322,1.2371,1.2891,1.4607,1.4981,1.5577,1.716,1.7507,1.7564,1.7564,1.7564,1.7491,1.7265,1.6037,1.5192,1.5192,1.5907,1.6022,1.5269,1.5812,1.5846,1.5066,1.4946,1.5238,1.5942,1.6758,1.7495,1.8174,1.905,1.9448,1.9365,1.9365,1.9251,1.9069,1.9069,1.8922,1.8679,1.8679,1.8626,1.8528,1.8457,1.8457,1.8545,1.8545,1.8654,1.8838,1.9017,1.9074,1.9096,1.9276,1.9348,1.9356,1.9474,1.952,1.952,1.952,1.952,1.9554,1.9683,1.9721,1.9768,1.9957,1.9423,1.8865,1.8864,1.8258,1.7434,1.6682,1.648,1.5995,1.4418,1.402,1.3711,1.2891,1.3359,1.3612,1.3035,1.3609,1.4099,1.4108,1.3922,1.3535,1.2812,1.1973,1.1113,1.0266,1.0208,1.0239,1.0327,1.0917,1.1293,1.1408,1.1312,1.162,1.2392,1.1735,1.1774,1.2546,1.258,1.2954,1.3648,1.3505,1.2978,1.1187,1.0594,0.0,0.0,1.1014,1.1746,1.1832,1.2141,1.2728,1.385,1.4078,1.4605,1.6346,1.6657,1.7042,0.0,1.8462,1.8424,1.8343,1.8335,1.7926,1.6829,1.6534,1.6419,1.6419,1.6326,1.6111,1.5745,1.6012,1.582,1.4994,1.5287,1.5556,1.5749,1.7059,1.7834,1.795,1.8817,1.9206,1.9117,1.8973,1.8851,1.877,1.877,1.8715,1.8595,1.8595,1.8595,1.8595,1.8595,1.8595,1.8595,1.8595,1.8678,1.8798,1.9034,1.9206,1.9312,1.9405,1.9435,1.9431,1.949,1.9518,1.9518,1.9518,1.9518,1.9559,1.9726,1.9819,1.9922,2.0088,1.9937,1.9769,1.9754,1.9106,1.8275,1.7446,1.6874,1.6203,1.5075,1.4443,1.3981,1.3652,1.3887,1.3984,1.3611,1.4296,1.4863,1.4861,1.4413,1.3594,1.2285,1.2266,1.1797,1.0389,1.1144,1.1691,1.1668,1.1965,1.237,1.2846,1.2409,1.2334,1.2683,1.2791,1.3038,1.3404,1.3882,1.4243,1.4492,1.4444,1.4163,1.1734,0.0,0.0,1.1205,1.1906,1.2661,1.2954,1.3236,1.3879,1.5467,1.5816,1.6284,1.773,1.8028,1.8323,1.9135,1.928,1.9224,1.9083,1.9087,1.8577,1.7238,1.7374,1.7648,1.7764,1.7165,1.6667,1.6454,1.6544,1.6258,1.5448,1.5777,1.6,1.603,1.7259,1.792,1.7946,1.8564,1.8896,1.8896,1.8697,1.8556,1.8489,1.841,1.8381,1.8381,1.8381,1.8381,1.8381,1.8381,1.8381,1.8381,1.8381,1.842,1.8518,1.8789,1.9025,1.9238,1.9274,1.9297,1.9297,1.9297,1.9297,1.9297,1.9297,1.9297,1.9335,1.9541,1.9701,1.983,1.9973,2.0152,2.0308,2.0308,1.9812,1.9137,1.8319,1.746,1.6633,1.5848,1.5007,1.4433,1.4428,1.4429,1.445,1.4452,1.4999,1.5409,1.5391,1.4844,1.3906,1.2441,1.2852,1.2637,1.1133,1.2107,1.278,1.2732,1.2942,1.3314,1.3906,1.3371,1.3173,1.3405,1.3741,1.4014,1.4264,1.4882,1.5146,1.5068,1.5301,1.5395,0.0,0.0,1.2053,1.2058,1.2674,1.3511,1.4421,1.5237,1.6079,1.7034,1.735,1.7697,1.8606,1.8862,1.9189,1.9864,1.9979,1.993,1.9781,1.9777,1.9699,1.9523,1.8833,1.8527,0.0,1.8642,1.8106,1.7326,1.7689,1.7571,1.6684,1.6365,1.6535,1.7312,1.7383,1.7781,1.8569,1.8604,1.8604,1.8604,1.8595,1.846,1.8198,1.7938,1.7822,1.7822,1.7822,1.7822,1.7822,1.7822,1.7822,1.7822,1.7822,1.7982,1.8239,1.8508,1.878,1.9035,1.9219,1.9297,1.9297,1.9297,1.9297,1.9297,1.9297,1.9297,1.9335,1.9541,1.9701,1.983,1.9973,2.0152,2.0308,2.0308,2.0288,2.0023,1.9149,1.8332,1.7509,1.6634,1.5829,1.5258,1.526,1.526,1.529,1.5353,1.5376,1.5401,1.5391,1.5371,1.5019,1.4121,1.4043,1.373,1.2891,1.281,1.2806,1.2805,1.3528,1.3978,1.3996,1.3974,1.4351,1.5201,1.4342,1.4324,1.5154,1.5192,1.5189,1.5209,1.6058,1.6442,0.0,0.0,1.3018,1.3563,1.4351,1.5247,1.6103,1.6562,1.6919,1.7231,1.7344,1.7506,1.792,1.8472,1.8944,1.9173,1.9645,1.9927,1.9701,1.9663,1.9334,1.8459,1.8614,0.0,0.0,0.0,0.0,1.7405,1.7511,1.7232,1.6415,1.678,1.7046,1.7124,1.7838,1.8244,1.8341,1.833,1.833,1.833,1.8146,1.8025,1.7927,1.7845,1.78,1.78,1.78,1.78,1.78,1.78,1.78,1.78,1.78,1.7867,1.7992,1.844,1.8669,1.8798,1.9172,1.9297,1.9297,1.9297,1.9297,1.9297,1.9297,1.9297,1.9312,1.9372,1.953,1.9701,1.983,1.9973,2.0124,2.0273,2.0308,2.0058,1.9192,1.8794,1.8175,1.6776,1.628,1.5938,1.5389,1.5296,1.5328,1.5392,1.5404,1.5409,1.5391,1.5391,1.5078,1.4199,1.4629,1.4394,1.3027,1.3906,1.4275,1.3699,1.4454,1.491,1.4852,1.4858,1.5004,1.5294,1.499,1.5248,1.6057,1.6066,1.6366,1.6926,1.7233,1.7399,1.3656,1.4113,1.4701,1.5227,1.5735,1.633,1.7127,1.7117,1.7046,1.7368,1.729,1.7222,1.7416,1.7923,1.8379,1.8624,1.9092,1.9439,1.9485,1.9435,1.9091,1.8259,1.8573,0.0,0.0,0.0,0.0,1.7825,1.7732,1.7456,1.6929,1.7309,1.7453,1.7288,1.7948,1.8367,1.8445,1.8445,1.8572,1.8835,1.867,1.8442,1.82,1.82,1.8053,1.78,1.78,1.78,1.78,1.78,1.7867,1.7938,1.7938,1.7938,1.8003,1.844,1.8537,1.8547,1.9105,1.9297,1.9297,1.9297,1.9297,1.9297,1.9297,1.9297,1.9297,1.9297,1.9431,1.9629,1.9768,1.9906,2.006,2.0245,2.0308,2.0154,1.9592,1.9212,1.8598,1.7203,1.6692,1.6242,1.5414,1.5282,1.5302,1.5363,1.5377,1.5409,1.5391,1.5391,1.5195,1.4629,1.5078,1.4961,1.3887,1.4785,1.5156,1.4603,1.5091,1.538,1.5349,1.5633,1.5802,1.5802,1.608,1.6485,1.7006,1.7009,1.7285,1.7831,1.8157,1.8312,1.5393,1.6158,1.6888,1.6925,1.6751,1.6748,1.7517,1.7003,1.6591,1.7395,1.7169,1.6854,0.0,0.0,1.7562,1.8205,1.8373,1.8618,1.9194,1.9109,1.8966,0.0,0.0,0.0,0.0,0.0,0.0,1.8537,0.0,1.8177,1.8177,1.7938,1.78,1.78,1.7834,1.82,1.8894,1.8939,1.9316,2.0002,2.0002,1.9625,1.8961,1.8961,1.8572,1.7918,1.7918,1.7918,1.7901,1.789,1.8056,1.8301,1.8253,1.8253,1.8311,1.8536,1.846,1.8333,1.9046,1.9289,1.9282,1.9297,1.9297,1.9297,1.9297,1.9297,1.9297,1.9297,1.9449,1.9623,1.9756,1.9896,2.005,2.0237,2.0285,2.0308,2.0308,1.965,1.8804,1.7949,1.7083,1.6215,1.5346,1.5255,1.53,1.53,1.5357,1.54,1.539,1.5391,1.5391,1.5391,1.5391,1.5391,1.5391,1.5391,1.5391,1.5391,1.5391,1.5391,1.5391,1.6244,1.6706,1.6706,1.7487,1.7924,1.7963,1.7961,1.8,1.804,1.8888,1.9275,1.6057,1.6322,1.6739,1.7351,1.7337,1.7249,1.7496,1.7363,1.6911,1.5954,1.5647,1.5425,0.0,0.0,0.0,1.716,1.8053,0.0,1.904,1.8861,0.0,0.0,0.0,1.8198,1.7927,1.7894,0.0,0.0,1.7938,1.7894,1.7894,1.7845,1.78,1.78,1.8335,1.8707,1.8894,1.9439,1.9811,2.0002,2.0002,1.99,1.9727,1.9727,1.9625,1.9427,1.9427,1.9427,1.9418,1.9058,1.932,1.9818,1.8876,1.887,1.9353,1.9021,1.8843,1.8843,1.918,1.9206,1.9092,1.9243,1.9297,1.9297,1.9297,1.9297,1.9297,1.9297,1.9335,1.9416,1.9597,1.975,1.989,2.0046,2.0193,2.0308,2.0308,2.0135,1.9712,1.8838,1.7487,1.6215,1.5346,1.5255,1.53,1.53,1.5316,1.5339,1.54,1.5409,1.5391,1.5391,1.5391,1.5391,1.5391,1.5391,1.5391,1.5391,1.5391,1.5391,1.5391,1.625,1.6698,1.6698,1.7489,1.822,1.8879,1.8877,1.9191,1.9838,2.007,2.0197,1.6764,1.7089,1.753,1.7976,1.7675,1.7246,1.7173,1.6557,1.5774,1.4958,1.4547,0.0,0.0,0.0,0.0,0.0,0.0,0.0,1.8717,1.8585,1.8371,0.0,1.811,0.0,1.8262,1.8285,1.8408,0.0,1.8172,1.7935,1.8268,1.8285,1.8425,1.8763,1.9169,1.9553,1.9904,2.064,2.1011,2.1011,2.1011,2.0842,2.0534,2.0534,2.0335,2.0002,0.0,2.0002,1.9993,1.9872,2.0152,2.0594,1.9898,1.9899,2.0228,1.9772,1.9532,1.9492,1.9866,1.9921,1.9775,1.9415,1.9297,1.9297,1.9297,1.9297,1.9297,1.9297,1.9297,1.9342,1.9548,1.9707,1.983,1.9978,2.0156,2.0308,2.0308,2.0308,2.0038,1.9177,1.793,1.6872,1.6388,1.6039,1.5834,1.5834,1.5524,1.5315,1.5356,1.5374,1.5408,1.5391,1.5391,1.5391,1.5391,1.5391,1.5391,1.5391,1.5762,1.5977,1.5977,1.7168,1.7832,1.7832,1.865,1.9331,1.9818,1.9809,2.0063,2.054,2.054,2.0564,1.7468,1.8016,1.8537,1.8481,1.7737,1.6895,1.6516,1.5201,1.4067,1.4148,0.0,1.3328,1.3706,0.0,1.4445,1.6006,0.0,1.6871,1.8343,1.832,1.8146,1.8146,1.8023,1.82,1.8843,1.8995,1.9316,1.9951,1.8814,1.8358,1.9012,1.9046,1.9384,2.0149,2.0166,2.0538,2.1343,2.1989,2.2296,2.2296,2.2296,2.1972,2.1343,2.1343,2.0974,2.0318,0.0,0.0,2.0314,2.0537,2.0864,2.1181,2.0969,2.0972,2.1061,2.0621,2.0336,2.0252,2.0769,2.0982,2.087,1.9938,1.9554,1.9462,1.9462,1.9389,1.9297,1.9297,1.9297,1.9335,1.9513,1.9688,1.9824,1.9953,2.0143,2.0308,2.0308,2.0308,2.0038,1.9169,1.8388,1.7834,1.7718,1.7122,1.666,1.666,1.5964,1.5463,1.5453,1.5418,1.5401,1.541,1.5391,1.5391,1.5391,1.5391,1.5449,1.5566,1.6289,1.6758,1.6875,1.8437,1.9297,1.9297,2.0156,2.0605,2.0605,2.0605,2.0605,2.0605,2.0605,2.0605,1.8041,1.8155,1.8201,1.7928,1.7147,1.6187,1.5266,1.439,0.0,0.0,0.0,1.2818,1.3105,1.3651,0.0,1.5844,0.0,0.0,0.0,0.0,1.7861,0.0,0.0,0.0,0.0,0.0,0.0,0.0,0.0,1.9664,1.9811,1.9811,2.0166,2.097,2.0987,2.1346,2.2107,2.2229,2.2296,2.2296,2.2296,2.2229,2.2124,2.2124,2.2026,2.189,2.189,0.0,2.1867,2.1502,2.19,2.2658,2.1339,2.1384,2.2108,2.1096,2.0877,2.1093,2.1193,2.1414,2.1616,2.142,2.0886,2.0291,2.0291,1.9822,1.9297,1.9297,1.9297,1.9305,1.9335,1.9567,1.9815,1.9824,2.006,2.0308,2.0308,2.0308,2.0042,1.9161,1.8876,1.8549,1.7815,1.7584,1.7487,1.7487,1.6804,1.6298,1.6295,1.5766,1.5395,1.5399,1.5408,1.5391,1.5391,1.5391,1.5703,1.6426,1.6621,1.7012,1.7734,1.8769,1.9297,1.9297,2.0156,2.0605,2.0605,2.0605,2.0605,2.0605,2.0605,2.0605,1.7992,1.786,1.7687,1.7534,1.6462,1.5302,1.4642,0.0,0.0,0.0,0.0,1.2465,1.2741,0.0,0.0,0.0,0.0,0.0,0.0,0.0,0.0,0.0,0.0,0.0,0.0,0.0,0.0,0.0,0.0,2.1028,2.0653,2.0978,2.1366,2.1752,2.1769,2.1938,2.2296,2.2296,2.2296,2.2296,2.2296,2.2296,2.2296,2.2296,2.2296,2.2296,2.2296,0.0,2.229,2.2168,2.2442,2.2847,2.2076,2.2119,2.2523,2.1831,2.1772,2.204,2.2224,2.2515,2.2828,2.2997,2.2189,2.118,2.118,2.0913,2.0601,2.0601,2.0262,1.9932,1.9932,1.9868,1.979,1.979,2.0065,2.0308,2.0308,2.0308,2.0173,1.9754,1.9681,1.9542,1.9138,1.868,1.8376,1.8376,1.7661,1.6962,1.6554,1.6596,1.6504,1.6114,1.6455,1.6539,1.6113,1.6074,1.625,1.668,1.7129,1.7559,1.7988,1.9277,1.9766,1.9316,2.0156,2.0605,2.0605,2.0605,2.0605,2.0605,2.0605,2.0605,1.7704,1.7502,1.7272,1.7109,1.5834,1.4544,1.4264,1.3109,0.0,0.0,1.1892,1.1983,1.2253,0.0,0.0,0.0,0.0,0.0,0.0,0.0,0.0,0.0,0.0,0.0,0.0,0.0,0.0,0.0,0.0,0.0,2.1478,2.1989,2.2296,2.2296,2.2296,2.2296,2.2296,2.2296,2.2296,2.2296,2.2296,2.2296,2.2296,2.2296,2.2296,2.2296,2.2296,0.0,0.0,2.2541,2.2647,2.2695,2.2634,2.2647,2.2673,2.2402,2.2517,2.2848,2.3105,2.3477,2.3847,2.4103,2.3226,2.2069,2.2069,2.1941,2.1794,2.1794,2.1308,2.0786,2.0786,2.055,2.0355,2.0429,2.0618,2.0766,2.0766,2.0613,2.0493,2.0493,2.0384,2.0308,2.0308,1.9735,1.928,1.928,1.8546,1.7757,1.7119,1.7629,1.7844,1.7262,1.7629,1.7644,1.7031,1.6973,1.6973,1.6973,1.7793,1.8281,1.8281,1.9766,2.0273,1.959,2.0254,2.0605,2.0605,2.0605,2.0605,2.0605,2.0605,2.0605,1.7427,1.732,1.7146,1.6538,1.5361,1.4248,1.3933,0.0,0.0,1.1047,1.0927,1.1011,1.1278,1.1334,0.0,0.0,0.0,0.0,0.0,0.0,0.0,0.0,0.0,0.0,0.0,0.0,0.0,0.0,0.0,0.0,2.2195,2.2262,2.2296,2.2296,2.2296,2.2296,2.2296,2.2296,2.2296,2.2296,2.2296,2.2296,2.2296,2.2296,2.2296,2.2296,2.2296,0.0,0.0,2.2338,2.2473,2.2686,2.244,2.249,2.2673,2.2402,2.266,2.3153,2.3189,2.3628,2.4161,2.418,2.3602,2.2896,2.2896,2.2373,2.1794,2.1794,2.1739,2.1684,2.1684,2.1868,2.2148,2.2441,2.2412,2.2304,2.2304,2.1689,2.1126,2.1126,2.0665,2.0308,2.0308,2.0231,2.0173,2.0173,1.9431,1.8853,1.8785,1.8838,1.8886,1.8871,1.828,1.7898,1.7871,1.7871,1.7871,1.7871,1.8691,1.918,1.918,2.0098,2.0566,2.0488,2.0566,2.0605,2.0605,2.0605,2.0605,2.0605,2.0605,2.0605,1.7216,1.7014,1.663,1.6367,1.5149,1.3967,1.3835,0.0,1.1121,1.0857,1.0508,1.0397,1.0873,1.0969,1.1361,0.0,1.314,1.37,0.0,0.0,0.0,0.0,0.0,0.0,0.0,0.0,0.0,0.0,0.0,0.0,2.2296,2.2296,2.2296,2.2296,2.2296,2.2296,2.2296,2.2296,2.2296,2.2296,2.2296,2.2296,2.2296,2.2296,2.2296,2.2296,2.2296,0.0,0.0,2.2296,2.236,2.245,2.2335,2.2377,2.2463,2.2527,2.2815,2.3224,2.3426,2.3682,2.3927,2.4123,2.3845,2.3472,2.3665,2.3492,2.3245,2.3245,2.2905,2.252,2.252,2.2419,2.2351,2.2566,2.256,2.2469,2.2357,2.2133,2.1839,2.1295,2.1096,2.0865,2.0385,2.0308,2.0308,2.0308,2.0004,1.9581,1.9061,1.9465,1.9617,1.9146,1.9286,1.9221,1.876,1.8768,1.8789,1.8789,1.9102,1.9297,1.9297,2.0137,2.0117,1.9062,2.0078,2.0332,1.9824,2.0332,2.0605,2.0605,2.0605,2.0605,1.6693,1.6575,1.6227,1.5931,1.4816,1.375,0.0,0.0,1.0753,1.0568,1.0039,0.9794,1.0419,1.0538,1.0867,0.0,1.2329,1.2832,1.3749,0.0,0.0,0.0,0.0,0.0,0.0,0.0,0.0,0.0,0.0,0.0,0.0,2.2296,2.2296,2.2296,2.2296,2.2296,2.2296,2.2296,2.2296,2.2296,2.2296,2.2296,2.2296,2.2296,2.2296,2.2296,0.0,0.0,0.0,2.2296,2.2296,2.2296,2.2296,2.2296,2.2307,2.2514,2.2776,2.3081,2.3323,2.3459,2.3599,2.3937,2.3896,2.3709,2.3819,2.4006,2.419,2.419,2.3786,2.3373,2.3437,2.3202,2.2987,2.3139,2.3133,2.3056,2.2912,2.2782,2.247,2.1654,2.1453,2.1165,2.0434,2.0308,2.0308,2.0308,2.0308,2.0081,1.9469,1.9927,2.0084,1.9516,1.9997,2.0159,1.9625,1.9645,1.957,1.9316,1.9531,1.957,1.9316,2.0137,2.0019,1.8789,1.9961,2.0176,1.9297,2.0176,2.0469,2.0215,2.0488,2.0605,1.5735,1.5993,1.6049,1.5056,1.4303,1.363,0.0,1.1775,1.0628,1.0024,0.9368,0.9107,0.9794,0.9905,1.0333,1.1606,1.265,1.3524,1.421,0.0,0.0,0.0,0.0,0.0,0.0,0.0,0.0,0.0,0.0,0.0,0.0,2.2296,2.2296,2.2296,2.2296,2.2296,2.2296,2.2296,2.2296,2.2296,2.2296,2.2296,2.2296,2.2296,2.2296,0.0,0.0,0.0,0.0,2.2296,2.2296,2.2296,2.2296,2.2296,2.2296,2.231,2.2477,2.2708,2.2708,2.2935,2.3247,2.3606,2.3703,2.3601,2.3151,2.3566,2.419,2.419,2.419,2.4228,2.4435,2.4485,2.4524,2.4734,2.4628,2.4485,2.4485,2.3808,2.2994,2.2318,2.1662,2.1004,2.0399,2.0308,2.0308,2.0308,2.0308,2.0308,2.0288,2.0288,2.0308,2.0292,2.0299,2.0349,2.0483,2.0544,2.0215,1.9355,2.0117,2.0195,1.9336,2.0137,2.0586,2.0566,2.0586,2.0176,1.9297,2.0176,2.0156,1.9336,2.0195,2.0605,1.4617,1.4674,1.4507,1.4195,1.3615,1.3059,1.2846,1.1441,1.0129,0.9935,0.9368,0.8965,0.9182,0.9584,1.0309,1.1595,1.2067,0.0,0.0,0.0,0.0,0.0,0.0,0.0,0.0,0.0,0.0,0.0,0.0,0.0,0.0,2.1546,2.1786,2.2279,2.2296,2.2296,2.2296,2.2296,2.2296,2.2296,2.2296,2.2296,2.2296,2.2296,0.0,0.0,0.0,0.0,0.0,2.2296,2.2296,2.2296,2.2296,2.2296,2.2307,2.2514,2.2621,2.2733,2.296,2.296,2.2923,2.3247,2.3357,2.3361,2.3446,2.3815,2.419,2.419,2.419,2.4256,2.4444,2.4503,2.452,2.4575,2.4553,2.4461,2.4312,2.4189,2.3861,2.3036,2.2923,2.2533,2.1153,2.1037,2.0923,2.0385,2.0308,2.0308,2.0308,2.0308,2.0308,2.0308,2.0299,2.0349,2.0427,2.0485,2.0425,2.0195,2.0449,2.0488,2.0195,2.0449,2.0312,1.9727,2.0293,2.0176,1.9297,2.0176,2.0469,2.0195,2.0425,2.0538,0.0,1.3843,1.3737,1.3496,1.3118,1.2729,1.2475,1.1112,0.989,0.989,0.9173,0.8604,0.886,0.9242,0.9944,1.1221,1.142,0.0,0.0,0.0,0.0,0.0,0.0,0.0,0.0,0.0,0.0,0.0,0.0,0.0,0.0,2.0737,2.0957,2.1417,2.1735,2.1887,2.1887,2.2175,2.2175,2.1887,2.1887,2.204,2.2279,2.2023,0.0,0.0,0.0,0.0,0.0,2.2296,2.2296,2.2296,2.2296,2.2296,2.2307,2.2487,2.255,2.2577,2.2798,2.2717,2.2603,2.291,2.2971,2.3028,2.3531,2.3927,2.419,2.419,2.419,2.4228,2.4348,2.4393,2.4393,2.4393,2.4393,2.4348,2.4228,2.4303,2.4142,2.3349,2.3397,2.3171,2.1912,2.1784,2.1731,2.1304,2.1235,2.1119,2.0808,2.075,2.0635,2.0327,2.0306,2.0317,2.0352,2.0441,2.0514,2.0563,2.0585,2.0605,2.0605,2.0605,2.0332,1.9805,2.0312,2.0176,1.9297,1.9823,2.0232,2.0563,2.0485,2.0451,0.0,1.3296,1.351,1.2879,1.2726,1.2576,1.1939,1.0847,0.0,0.9905,0.891,0.8214,0.88,0.8935,0.9383,1.0658,1.0902,0.0,0.0,0.0,0.0,0.0,0.0,0.0,0.0,0.0,0.0,0.0,0.0,0.0,0.0,1.9917,1.9917,1.9917,2.0653,2.1055,2.1106,2.1786,2.1786,2.1106,2.1106,2.1465,2.211,2.1495,0.0,0.0,0.0,0.0,0.0,2.2279,2.2262,2.2243,2.2279,2.2296,2.2296,2.2296,2.2296,2.2296,2.2296,2.2296,2.2349,2.2612,2.2629,2.2684,2.3465,2.3891,2.4135,2.4171,2.419,2.419,2.419,2.419,2.419,2.419,2.419,2.419,2.419,2.419,2.4026,2.34,2.3283,2.3131,2.2633,2.2576,2.2623,2.2762,2.2788,2.2509,2.1696,2.1543,2.1212,2.0462,2.0327,2.0307,2.0295,2.0418,2.0484,2.0508,2.0563,2.0605,2.0605,2.0605,2.0605,2.0605,2.0605,2.0195,1.9394,1.9326,1.9705,2.0484,2.0427,2.0383,1.0574,0.0,1.2239,1.2059,1.204,1.1984,0.0,1.1166,1.0464,0.0,0.0,0.9315,0.8965,0.9308,1.0078,1.1356,1.1999,0.0,0.0,0.0,0.0,0.0,0.0,0.0,0.0,0.0,0.0,0.0,0.0,0.0,0.0,1.9164,1.9164,1.9164,1.9333,1.9705,2.0285,2.0454,2.0454,2.0285,2.0285,2.0369,2.0572,2.0991,0.0,0.0,0.0,0.0,2.1512,2.2073,2.1972,2.1512,2.209,2.2296,2.2296,2.2296,2.2296,2.2296,2.2296,2.2296,2.2349,2.2612,2.2849,2.3126,2.3556,2.3499,2.341,2.4025,2.419,2.419,2.419,2.419,2.419,2.419,2.419,2.419,2.419,2.419,2.4154,2.3999,2.4087,2.3952,2.3176,2.3284,2.3282,2.2661,2.269,2.274,2.2528,2.1908,2.1427,2.1235,2.0673,2.03,2.0304,2.0329,2.0383,2.0485,2.0513,2.0541,2.0605,2.0605,2.0605,2.0605,2.0605,2.0467,2.0223,2.0197,2.0262,2.0425,2.0349,2.0316,0.9443,1.0369,1.1346,1.1346,1.158,1.1805,1.1805,0.0,0.0,0.0,0.0,0.0,0.892,0.0,0.0,0.0,0.0,0.0,0.0,0.0,0.0,0.0,0.0,0.0,0.0,0.0,0.0,0.0,0.0,0.0,0.0,1.8403,1.8403,1.8403,1.8403,1.8746,1.949,1.9828,1.9828,1.949,1.949,1.9676,2.0002,2.0094,2.0327,0.0,0.0,0.0,2.0686,2.1079,2.1011,2.0686,2.1079,2.1248,2.1299,2.1667,2.1803,2.1837,2.2178,2.2296,2.2321,2.2477,2.2832,2.3224,2.3414,2.3516,2.3639,2.408,2.419,2.419,2.419,2.419,2.419,2.419,2.419,2.419,2.419,2.419,2.419,2.419,2.4284,2.4235,2.3857,2.406,2.4126,2.3704,2.3821,2.3812,2.3432,2.299,2.2547,2.2139,2.135,2.0846,2.0846,2.0511,2.0326,2.0391,2.0435,2.0481,2.0542,2.0543,2.0543,2.0543,2.0543,2.0515,2.0446,2.0427,2.0381,2.0347,2.0311,2.0311,0.8762,0.9668,1.0624,1.0768,1.1301,1.1805,1.1805,0.0,0.0,0.0,0.0,0.0,0.0,0.0,0.0,0.0,0.0,0.0,0.0,0.0,0.0,0.0,0.0,0.0,0.0,0.0,0.0,0.0,0.0,0.0,0.0,1.78,1.78,1.78,1.78,1.8099,1.8724,1.9355,1.9355,1.8724,1.8724,1.9051,1.9647,1.913,1.9249,0.0,0.0,0.0,1.9833,1.9951,1.9934,1.9833,1.9951,2.0002,2.0086,2.0903,2.119,2.1309,2.204,2.2338,2.236,2.236,2.2773,2.3288,2.3288,2.3703,2.419,2.419,2.419,2.419,2.419,2.419,2.419,2.419,2.419,2.419,2.419,2.419,2.419,2.419,2.419,2.4247,2.4418,2.4615,2.4799,2.4943,2.5135,2.5019,2.4375,2.4187,2.3821,2.3086,2.2216,2.1639,2.1504,2.0885,2.0423,2.0305,2.0342,2.04,2.0481,2.0482,2.0482,2.0482,2.0482,2.0444,2.0377,2.0322,2.0304,2.0308,2.0311,2.0308,0.814,0.8938,0.9874,1.0624,1.1301,1.1805,0.0,0.0,0.0,0.0,0.0,0.0,0.0,0.0,0.0,0.0,0.0,0.0,0.0,0.0,0.0,0.0,0.0,0.0,0.0,0.0,0.0,0.0,0.0,0.0,0.0,1.78,1.78,1.78,1.78,1.785,1.7969,1.807,1.807,1.7969,1.7969,1.802,1.8155,1.8674,1.8961,0.0,0.0,1.9642,1.9113,1.9731,1.9625,1.913,1.9761,2.0002,2.0086,2.0903,2.119,2.1309,2.204,2.245,2.2634,2.2634,2.3099,2.361,2.361,2.3896,2.419,2.419,2.419,2.419,2.419,2.419,2.419,2.419,2.419,2.419,2.419,2.419,2.419,2.419,2.419,2.4209,2.4247,2.4419,2.4607,2.4799,2.4956,2.5067,2.5101,2.4529,2.4052,2.3918,2.3124,2.2293,2.1562,2.1389,2.1027,2.0331,2.0302,2.0359,2.0418,2.0422,2.0422,2.0422,2.0422,2.0374,2.0327,2.0316,2.0292,2.0292,2.0296,2.0308,0.7609,0.8432,0.9418,0.9967,1.0961,1.1805,0.0,0.0,0.0,0.0,0.0,0.0,0.0,0.0,0.0,0.0,0.0,0.0,0.0,0.0,0.0,0.0,0.0,0.0,0.0,0.0,0.0,0.0,0.0,0.0,0.0,0.0,1.78,1.78,1.78,1.78,1.78,1.78,1.78,1.78,1.78,1.78,1.7817,1.8149,1.8318,1.8318,0.0,1.8628,1.8335,1.8679,1.8611,1.8347,1.8836,1.903,1.9167,2.0348,2.102,2.1438,2.2081,2.2477,2.2708,2.2708,2.3153,2.3703,2.3703,2.3927,2.419,2.419,2.419,2.419,2.419,2.419,2.419,2.419,2.419,2.419,2.419,2.419,2.419,2.419,2.419,2.419,2.419,2.4366,2.4537,2.4623,2.4838,2.5034,2.5135,2.4903,2.4755,2.4755,2.4009,2.3144,2.2274,2.2197,2.1658,2.0385,2.0302,2.0305,2.034,2.0374,2.0374,2.0342,2.034,2.0324,2.0297,2.0297,2.0295,2.0308,2.075,2.0942,0.7509,0.8273,0.9204,0.9537,0.0,0.0,0.0,0.0,0.0,0.0,0.0,0.0,0.0,0.0,0.0,0.0,0.0,0.0,0.0,0.0,0.0,0.0,0.0,0.0,0.0,0.0,0.0,0.0,0.0,0.0,0.0,0.0,1.78,1.78,1.78,1.78,1.78,1.78,1.78,1.78,1.78,1.78,1.78,1.78,1.78,1.78,1.78,1.7845,1.7883,1.7883,1.7927,1.8014,1.8208,1.8353,1.862,1.9918,2.0842,2.1524,2.217,2.2577,2.2835,2.291,2.3335,2.3816,2.3816,2.3996,2.419,2.419,2.419,2.419,2.419,2.419,2.419,2.419,2.419,2.419,2.419,2.419,2.419,2.419,2.419,2.419,2.419,2.4339,2.4462,2.4495,2.4723,2.4917,2.4998,2.5122,2.5253,2.5284,2.4586,2.3744,2.2874,2.2797,2.2254,2.0966,2.0687,2.0492,2.0318,2.0358,2.0344,2.0302,2.0299,2.0381,2.0577,2.0577,2.0692,2.0908,2.1523,2.1793,0.8208,0.8698,0.9313,0.9835,0.0,0.0,0.0,0.0,0.0,0.0,0.0,0.0,0.0,0.0,0.0,0.0,0.0,0.0,0.0,0.0,0.0,0.0,0.0,0.0,0.0,0.0,0.0,0.0,0.0,0.0,0.0,0.0,0.0,1.78,1.78,1.78,1.78,1.78,1.78,1.78,1.78,1.78,1.78,1.78,1.78,1.78,1.78,1.7938,1.8166,1.8166,1.832,1.8537,1.8556,1.8848,1.9329,2.0108,2.0737,2.1355,2.2324,2.2885,2.323,2.3533,2.3876,2.4161,2.4161,2.418,2.419,2.419,2.419,2.419,2.419,2.419,2.419,2.419,2.419,2.419,2.419,2.419,2.419,2.419,2.419,2.419,2.419,2.4209,2.4284,2.4469,2.451,2.4659,2.4968,2.5016,2.5094,2.5274,2.4586,2.3744,2.2874,2.2797,2.2759,2.2624,2.1859,2.107,2.0339,2.0308,2.0308,2.03,2.03,2.0662,2.1408,2.1408,2.1831,2.2624,2.2682,2.272,0.8275,0.8668,0.0,0.0,0.0,0.0,0.0,0.0,0.0,0.0,0.0,0.0,0.0,0.0,0.0,0.0,0.0,0.0,0.0,0.0,0.0,0.0,0.0,0.0,0.0,0.0,0.0,0.0,0.0,0.0,0.0,0.0,0.0,1.78,1.78,1.78,1.78,1.78,1.78,1.78,1.78,1.78,1.78,1.78,1.78,1.78,1.78,1.7867,1.796,1.8125,1.8259,1.8371,1.8528,1.8704,1.8939,1.9689,2.0405,2.1127,2.1972,2.2481,2.2866,2.3498,2.359,2.3547,2.4043,2.419,2.419,2.419,2.419,2.419,2.419,2.419,2.419,2.419,2.419,2.419,2.419,2.419,2.419,2.419,2.419,2.419,2.419,2.419,2.4228,2.4303,2.4428,2.4591,2.4836,2.4943,2.5082,2.5274,2.4586,2.4163,2.4351,2.3894,2.3605,2.3605,2.2274,2.137,2.1058,2.0577,2.0538,2.1038,2.1038,2.1466,2.2312,2.2312,2.2489,2.2816,2.3355,2.3605,0.859,0.9,0.0,0.0,0.0,0.0,0.0,0.0,0.0,0.0,0.0,0.0,0.0,0.0,0.0,0.0,0.0,0.0,0.0,0.0,0.0,0.0,0.0,0.0,0.0,0.0,0.0,0.0,0.0,0.0,0.0,0.0,0.0,0.0,1.78,1.78,1.78,1.78,1.78,1.78,1.78,1.78,1.78,1.78,1.78,1.78,1.78,1.7911,1.8078,1.8249,1.8413,1.8559,1.8753,1.8734,1.871,1.9521,2.0063,2.0551,2.1746,2.2143,2.2275,2.3172,2.3267,2.3098,2.3657,2.4006,2.419,2.419,2.419,2.419,2.419,2.419,2.419,2.419,2.419,2.419,2.419,2.419,2.419,2.419,2.419,2.419,2.419,2.419,2.419,2.419,2.4321,2.4503,2.4768,2.4877,2.4934,2.4928,2.4659,2.4601,2.4909,2.4639,2.449,2.449,2.3124,2.2197,2.1927,2.1389,2.135,2.1908,2.1908,2.2331,2.3201,2.316,2.3252,2.3501,2.4055,2.4347,0.9273,0.9782,0.0,0.0,0.0,0.0,0.0,0.0,0.0,0.0,0.0,0.0,0.0,0.0,0.0,0.0,0.0,0.0,0.0,0.0,0.0,0.0,0.0,0.0,0.0,0.0,0.0,0.0,0.0,0.0,0.0,0.0,0.0,0.0,1.7783,1.7783,1.7783,1.7783,1.7783,1.7783,1.7783,1.7783,1.78,1.78,1.78,1.78,1.78,1.8093,1.8585,1.8595,1.8869,1.9289,1.9297,1.9006,1.8729,1.9712,1.9757,1.9619,2.1749,2.1958,2.1474,2.2612,2.2988,2.2988,2.3006,2.3566,2.419,2.419,2.419,2.419,2.419,2.419,2.419,2.419,2.419,2.419,2.419,2.419,2.419,2.419,2.419,2.419,2.419,2.419,2.419,2.419,2.419,2.4339,2.4746,2.4804,2.4619,2.4154,2.4812,2.4981,2.4187,2.4851,2.5303,2.5303,2.4543,2.3721,2.2855,2.2797,2.2797,2.2816,2.2816,2.324,2.4105,2.3908,2.4217,2.4979,2.4869,2.4864,0.9708,0.0,0.0,0.0,0.0,0.0,0.0,0.0,0.0,0.0,0.0,0.0,0.0,0.0,0.0,0.0,0.0,0.0,0.0,0.0,0.0,0.0,0.0,0.0,0.0,0.0,0.0,0.0,0.0,0.0,0.0,0.0,0.0,0.0,1.6255,1.6255,1.6255,1.6255,1.6509,1.7027,1.7027,1.7304,1.78,1.78,1.78,1.78,1.78,1.7883,1.8078,1.844,1.8679,1.8834,1.9017,1.8771,1.8406,1.9084,1.9458,1.9788,2.0762,2.095,2.0886,2.186,2.2161,2.2263,2.2822,2.3566,2.419,2.419,2.419,2.419,2.419,2.419,2.419,2.419,2.419,2.419,2.419,2.419,2.419,2.419,2.419,2.419,2.419,2.419,2.419,2.419,2.419,2.4294,2.4561,2.4795,2.4898,2.4738,2.506,2.5192,2.4962,2.5034,2.5094,2.5094,2.4777,2.4337,2.3735,2.3124,2.3086,2.3701,2.3591,2.3902,2.473,2.4666,2.4715,2.4869,2.5055,2.5101,1.0226,0.0,0.0,0.0,0.0,0.0,0.0,0.0,0.0,0.0,0.0,0.0,0.0,0.0,0.0,0.0,0.0,0.0,0.0,0.0,0.0,0.0,0.0,0.0,0.0,0.0,0.0,0.0,0.0,0.0,0.0,0.0,0.0,0.0,1.5595,1.5595,1.5595,1.5595,1.5825,1.6265,1.6265,1.6654,1.7371,1.7676,1.78,1.7794,1.7592,1.7697,1.7986,1.8194,1.8467,1.878,1.9025,1.8869,1.8556,1.8887,1.9138,1.9471,2.049,2.044,2.0175,2.1759,2.2069,2.1959,2.2758,2.3566,2.419,2.419,2.419,2.419,2.419,2.419,2.419,2.419,2.419,2.419,2.419,2.419,2.419,2.419,2.419,2.419,2.419,2.419,2.419,2.419,2.4257,2.4357,2.4486,2.4745,2.493,2.493,2.5031,2.5103,2.5103,2.5041,2.498,2.4911,2.4891,2.4759,2.4464,2.3894,2.3842,2.4364,2.4264,2.4461,2.5004,2.4943,2.4871,2.4804,2.5019,2.5037,0.0,0.0,0.0,0.0,0.0,0.0,0.0,0.0,0.0,0.0,0.0,0.0,0.0,0.0,0.0,0.0,0.0,0.0,0.0,0.0,0.0,0.0,0.0,0.0,0.0,0.0,0.0,0.0,0.0,0.0,0.0,0.0,0.0,1.5392,1.5392,1.5392,1.5392,1.5392,1.5426,0.0,1.5494,1.5893,1.6621,1.7371,1.7732,1.7788,1.736,1.7547,1.8156,1.7949,1.8297,1.8984,1.9204,1.9182,1.901,1.901,1.8825,1.8845,2.0631,2.0291,1.9488,2.2027,2.2392,2.1998,2.2767,2.3566,2.4171,2.4116,2.4135,2.4171,2.4116,2.4153,2.419,2.419,2.419,2.419,2.419,2.419,2.419,2.419,2.419,2.419,2.419,2.419,2.419,2.419,2.4348,2.4469,2.4469,2.4647,2.4775,2.4775,2.479,2.4804,2.4804,2.4885,2.4898,2.4782,2.4877,2.4937,2.4937,2.485,2.4825,2.4825,2.4811,2.4855,2.4943,2.4842,2.4768,2.4746,2.4782,2.479,0.0,0.0,0.0,0.0,0.0,0.0,0.0,0.0,0.0,0.0,0.0,0.0,0.0,0.0,0.0,0.0,0.0,0.0,0.0,0.0,0.0,0.0,0.0,0.0,0.0,0.0,0.0,0.0,0.0,0.0,0.0,0.0,0.0,1.3879,1.3862,1.3862,1.3862,1.3862,1.4166,0.0,1.474,1.5122,1.5859,1.6604,1.7253,1.7783,1.7691,1.773,1.791,1.8276,1.8519,1.8734,1.9148,1.9182,1.901,1.901,1.8825,1.8746,1.9716,1.9832,1.9773,2.1201,2.1993,2.2421,2.2868,2.3566,2.4061,2.3437,2.3712,2.4043,2.341,2.3731,2.419,2.419,2.419,2.419,2.419,2.419,2.419,2.419,2.419,2.419,2.419,2.419,2.419,2.419,2.4237,2.4257,2.4257,2.4435,2.4559,2.4559,2.4708,2.4804,2.4804,2.4674,2.4607,2.4578,2.4434,2.4374,2.4374,2.4747,2.4955,2.4955,2.4855,2.4746,2.4604,2.4575,2.4486,2.4348,2.4654,2.4716,0.0,0.0,0.0,0.0,0.0,0.0,0.0,0.0,0.0,0.0,0.0,0.0,0.0,0.0,0.0,0.0,0.0,0.0,0.0,0.0,0.0,0.0,0.0,0.0,0.0,0.0,0.0,0.0,0.0,0.0,0.0,1.3971,1.3794,1.3413,1.3396,1.3396,1.3396,1.3396,1.3591,1.3971,1.3971,1.436,1.5105,1.5842,1.6587,1.7253,1.6898,1.7151,1.7811,1.7998,1.8277,1.8642,1.9132,1.9246,1.9125,1.9035,1.8825,1.8754,1.9886,1.9952,1.9809,2.1615,2.2236,2.2364,2.2929,2.3378,2.3673,2.3416,2.3638,2.3905,2.3638,2.3896,2.419,2.419,2.419,2.419,2.419,2.419,2.419,2.419,2.419,2.419,2.419,2.419,2.419,2.419,2.419,2.419,2.419,2.4294,2.4348,2.4348,2.4444,2.452,2.452,2.4503,2.4452,2.4357,2.4339,2.4339,2.4339,2.4601,2.473,2.4632,2.4559,2.4512,2.4503,2.4503,2.4462,2.4348,2.4654,2.4693,0.0,0.0,0.0,0.0,0.0,0.0,0.0,0.0,0.0,0.0,0.0,0.0,0.0,0.0,0.0,0.0,0.0,0.0,0.0,0.0,0.0,0.0,0.0,0.0,0.0,0.0,0.0,0.0,0.0,0.0,1.343,1.3396,1.3396,1.3396,1.3396,1.3396,1.3396,1.3396,1.3396,1.3396,1.3396,1.3726,1.4334,1.4936,1.5757,1.6665,1.6045,1.6559,1.7794,1.7662,1.8011,1.8642,1.9082,1.9266,1.9274,1.9077,1.8825,1.8815,2.0304,2.0195,1.9826,2.2306,2.267,2.2271,2.2971,2.32,2.323,2.3371,2.3552,2.3738,2.3862,2.4012,2.4141,2.418,2.4161,2.4141,2.418,2.419,2.419,2.419,2.419,2.419,2.419,2.419,2.419,2.419,2.419,2.419,2.419,2.419,2.419,2.419,2.419,2.419,2.419,2.4348,2.4375,2.4209,2.4348,2.4444,2.4444,2.4444,2.4366,2.4199,2.4237,2.4321,2.4444,2.4444,2.4444,2.4444,2.4615,2.4599,0.0,0.0,0.0,0.0,0.0,0.0,0.0,0.0,0.0,0.0,0.0,0.0,0.0,0.0,0.0,0.0,0.0,0.0,0.0,0.0,0.0,0.0,0.0,0.0,0.0,0.0,0.0,0.0,0.0,0.0,1.3413,1.3396,1.3396,1.3396,1.3396,1.3396,1.3396,1.3396,1.3396,1.3396,1.3396,1.3447,1.354,1.365,1.4802,1.6699,1.6597,1.7027,1.7822,1.8021,1.8303,1.8623,1.8913,1.9142,1.9274,1.9077,1.8825,1.8786,2.003,2.022,2.0212,2.2137,2.269,2.2671,2.307,2.32,2.3059,2.2403,2.2947,2.3559,2.2893,2.3239,2.3837,2.4123,2.3986,2.3855,2.4141,2.419,2.419,2.419,2.419,2.419,2.419,2.419,2.419,2.419,2.419,2.419,2.419,2.419,2.419,2.419,2.419,2.419,2.419,2.4228,2.4228,2.419,2.4228,2.4247,2.4247,2.4247,2.4228,2.419,2.4366,2.4393,2.4247,2.4247,2.4247,2.4247,2.4275,2.4275,0.0,0.0,0.0,0.0,0.0,0.0,0.0,0.0,0.0,0.0,0.0,0.0,0.0,0.0,0.0,0.0,0.0,0.0,0.0,0.0,0.0,0.0,0.0,0.0,0.0,0.0,0.0,0.0,0.0,1.3396,1.3396,1.3396,1.3396,1.3396,1.3396,1.3396,1.3396,1.3396,1.3396,1.3396,1.3396,1.3396,1.3396,1.3396,1.4149,1.5494,1.591,1.6502,1.7251,1.7921,1.827,1.842,1.8852,1.9052,1.9134,1.9158,1.9183,1.9351,2.0302,2.0343,2.0264,2.1928,2.22,2.1965,2.2539,2.2699,2.2639,2.2464,2.2745,2.3106,2.2948,2.3293,2.3692,2.366,2.3671,2.3692,2.3649,2.3927,2.4133,2.3966,2.3917,2.3917,2.3917,2.4074,2.419,2.419,2.419,2.419,2.419,2.419,2.419,2.419,2.419,2.419,2.419,2.419,2.419,2.419,2.419,2.419,2.419,2.419,2.419,2.419,2.4284,2.4284,2.419,2.419,2.419,2.419,2.419,2.419,0.0,0.0,0.0,0.0,0.0,0.0,0.0,0.0,0.0,0.0,0.0,0.0,0.0,0.0,0.0,0.0,0.0,0.0,0.0,0.0,0.0,0.0,0.0,0.0,0.0,0.0,0.0,0.0,0.0,1.3396,1.3396,1.3396,1.3396,1.3396,1.3396,1.3396,1.3396,1.3396,1.3396,1.3396,1.3396,1.3396,1.3396,1.3396,1.3692,1.4267,1.5206,1.6028,1.676,1.771,1.8135,1.8239,1.8632,1.8834,1.8923,1.9066,1.9201,1.9453,2.0381,2.0402,2.0238,2.1806,2.1921,2.158,2.2141,2.2296,2.2335,2.2537,2.2647,2.2759,2.3009,2.3247,2.3403,2.3236,2.3335,2.3403,2.3242,2.3588,2.3876,2.361,2.3577,2.3577,2.3577,2.3785,2.3958,2.4064,2.4074,2.4103,2.418,2.419,2.419,2.419,2.419,2.419,2.419,2.419,2.419,2.419,2.419,2.419,2.419,2.419,2.419,2.419,2.419,2.419,2.419,2.419,2.419,2.419,2.419,2.419,0.0,0.0,0.0,0.0,0.0,0.0,0.0,0.0,0.0,0.0,0.0,0.0,0.0,0.0,0.0,0.0,0.0,0.0,0.0,0.0,0.0,0.0,0.0,0.0,0.0,0.0,0.0,0.0,0.0,1.3396,1.3396,1.3396,1.3396,1.3396,1.3396,1.3396,1.3396,1.3396,1.3396,1.3396,1.3396,1.3396,1.3396,1.3396,1.343,1.3549,1.4979,1.6028,1.6766,1.7501,1.7971,1.8198,1.8229,1.84,1.8614,1.8632,1.8477,1.8468,1.9924,2.0228,2.0238,2.1806,2.2262,2.2245,2.2279,2.2296,2.231,2.2324,2.25,2.2708,2.2721,2.2746,2.2835,2.3129,2.2972,2.2835,2.3129,2.3242,2.3253,2.3224,2.3242,2.3242,2.3242,2.3236,2.3357,2.3682,2.3724,2.3837,2.4161,2.419,2.419,2.419,2.419,2.419,2.419,2.419,2.419,2.419,2.419,2.419,2.419,2.419,2.419,2.419,2.419,2.419,2.419,2.419,2.419,2.419,2.419,2.419,0.0,0.0,0.0,0.0,0.0,0.0,0.0,0.0,0.0,0.0,0.0,0.0,0.0,0.0,0.0,0.0,0.0,0.0,0.0,0.0,0.0,0.0,0.0,0.0,0.0,0.0,0.0,0.0,0.0,0.0,1.3396,1.3396,1.3396,1.3396,1.3396,1.3396,1.3396,1.3396,1.3396,1.3396,1.3396,1.3396,1.3396,1.3396,1.3396,1.3481,1.4962,1.5747,1.6096,1.7304,1.7867,1.796,1.8125,1.8259,1.8361,1.8537,1.9041,1.9693,2.0217,2.057,2.094,2.1972,2.1989,2.1684,2.2175,2.2296,2.2296,2.2296,2.236,2.2436,2.2436,2.256,2.2733,2.2895,2.2686,2.2477,2.2598,2.2755,2.2885,2.2885,2.2885,2.2885,2.2933,2.3087,2.3236,2.3357,2.338,2.3511,2.3827,2.3886,2.3947,2.417,2.419,2.419,2.419,2.419,2.419,2.419,2.419,2.419,2.419,2.419,2.419,2.419,2.419,2.419,2.419,2.419,2.419,2.419,2.419,2.419,0.0,0.0,0.0,0.0,0.0,0.0,0.0,0.0,0.0,0.0,0.0,0.0,0.0,0.0,0.0,0.0,0.0,0.0,0.0,0.0,0.0,0.0,0.0,0.0,0.0,0.0,0.0,0.0,0.0,0.0,1.3396,1.3396,1.3396,1.3396,1.3396,1.3396,1.3396,1.3396,1.3396,1.3396,1.3396,1.3396,1.3396,1.3396,1.3396,1.3481,1.4962,1.5595,1.5714,1.7191,1.78,1.7822,1.8003,1.8078,1.81,1.827,1.8994,1.9933,2.0178,2.0671,2.1326,2.2073,2.1972,2.1651,2.2144,2.2296,2.2296,2.2296,2.2296,2.2296,2.2296,2.244,2.2577,2.2624,2.2457,2.2296,2.2296,2.244,2.2577,2.2577,2.2577,2.2577,2.2624,2.279,2.2933,2.3021,2.3033,2.3153,2.35,2.3639,2.3785,2.4006,2.4123,2.419,2.419,2.419,2.419,2.419,2.419,2.419,2.419,2.419,2.419,2.419,2.419,2.419,2.419,2.419,2.419,2.419,2.419,2.419,0.0,0.0,0.0,0.0,0.0,0.0,0.0,0.0,0.0,0.0,0.0,0.0,0.0,0.0,0.0,0.0,0.0,0.0,0.0,0.0,0.0,0.0,0.0,0.0,0.0,0.0,0.0,0.0,0.0,1.3396,1.3396,1.3396,1.3396,1.3396,1.3396,1.3396,1.3396,1.3388,1.3388,1.3388,1.3388,1.3388,1.3388,1.3396,1.3396,1.3481,1.4962,1.5595,1.5714,1.7191,1.78,1.78,1.78,1.78,1.78,1.78,1.8285,1.9029,1.9761,2.0551,2.136,2.2073,2.2296,2.2296,2.2296,2.2296,2.2296,2.2296,2.2296,2.2296,2.2296,2.2296,2.2296,2.2296,2.2296,2.2296,2.2296,2.2296,2.2296,2.2296,2.2296,2.2296,2.2296,2.2296,2.2388,2.2647,2.2682,2.281,2.3141,2.3459,2.3682,2.3692,2.3996,2.418,2.419,2.419,2.419,2.419,2.419,2.419,2.419,2.419,2.419,2.419,2.419,2.419,2.419,2.419,2.419,2.419,2.419,2.419,0.861,0.0,0.0,0.0,0.0,0.0,0.0,0.0,0.0,0.0,0.0,0.0,0.0,0.0,0.0,0.0,0.0,0.0,0.0,0.0,0.0,0.0,0.0,0.0,0.0,0.0,0.0,0.0,1.3396,1.3396,1.3396,1.3396,1.3396,1.3396,1.3396,1.3396,1.3396,1.32,1.3112,1.3112,1.3112,1.3112,1.3121,1.3311,1.3396,1.3481,1.4962,1.5595,1.5714,1.7191,1.78,1.78,1.78,1.78,1.78,1.78,1.8594,1.9727,1.993,2.0876,2.204,2.2229,2.2296,2.2296,2.2296,2.2296,2.2296,2.2296,2.2296,2.2296,2.2296,2.2296,2.2296,2.2296,2.2296,2.2296,2.2296,2.2296,2.2296,2.2296,2.2296,2.2296,2.2296,2.2296,2.2338,2.2402,2.2398,2.25,2.2797,2.2923,2.3153,2.3649,2.3785,2.3927,2.418,2.419,2.419,2.419,2.419,2.419,2.419,2.419,2.419,2.419,2.419,2.419,2.419,2.419,2.419,2.419,2.419,2.419,0.0,0.0,0.0,0.0,0.0,0.0,0.0,0.9603,0.0,0.0,0.0,0.0,0.0,0.0,0.0,0.0,0.0,0.0,0.0,0.0,0.0,0.0,0.0,0.0,0.0,0.0,0.0,1.3396,1.3396,1.3396,1.3396,1.3396,1.3396,1.3396,1.3396,1.3396,1.3396,1.3234,1.3112,1.3004,1.3004,1.2942,1.2834,1.298,1.3122,1.3326,1.4792,1.5506,1.5714,1.7191,1.78,1.78,1.78,1.78,1.78,1.78,1.8544,1.9541,1.9541,2.0538,2.1837,2.1837,2.2057,2.2296,2.2296,2.2296,2.2296,2.2296,2.2296,2.2296,2.2296,2.2296,2.2296,2.2296,2.2296,2.2296,2.2296,2.2296,2.2296,2.2296,2.2296,2.2296,2.2296,2.2296,2.2296,2.2296,2.2296,2.2363,2.2514,2.2751,2.3057,2.3448,2.3735,2.3986,2.418,2.419,2.419,2.419,2.419,2.419,2.419,2.419,2.419,2.419,2.419,2.419,2.419,2.419,2.4247,2.4312,2.4247,2.4284,0.0,0.0,0.0,0.0,0.0,0.0,1.0024,0.9656,0.0,0.0,0.0,0.0,0.0,0.0,0.0,0.0,0.0,0.0,0.0,0.0,0.0,0.0,0.0,0.0,0.0,1.3396,1.3396,1.3396,1.3396,1.3396,1.3396,1.3396,1.3396,1.3396,1.3396,1.3396,1.3396,1.3371,1.3243,1.3004,1.3004,1.2869,1.2601,1.271,1.2834,1.3086,1.4648,1.5414,1.5714,1.7142,1.7777,1.78,1.78,1.78,1.78,1.78,1.8268,1.8894,1.8894,1.9853,2.1072,2.1173,2.1634,2.2178,2.2279,2.2296,2.2296,2.2296,2.2296,2.2296,2.2296,2.2296,2.2296,2.2296,2.2296,2.2296,2.2296,2.2296,2.2296,2.2296,2.2296,2.2296,2.2296,2.2296,2.2296,2.2296,2.2296,2.2296,2.2296,2.276,2.3135,2.3189,2.3724,2.4113,2.419,2.419,2.419,2.419,2.419,2.419,2.419,2.419,2.419,2.419,2.419,2.419,2.419,2.419,2.4294,2.4461,2.4275,2.4393,0.0,0.0,1.0761,0.0,0.0,0.0,0.0,0.9225,0.0,0.0,0.0,0.0,0.0,0.0,0.0,0.0,0.0,0.0,0.0,0.0,0.0,0.0,0.0,0.0,0.0,1.3396,1.3396,1.3396,1.3396,1.3396,1.3396,1.3396,1.3396,1.3396,1.3396,1.3396,1.3396,1.3182,1.3058,1.3004,1.3004,1.2869,1.2626,1.3388,1.3471,1.3103,1.5134,1.5849,1.5694,1.6903,1.7561,1.78,1.78,1.78,1.78,1.78,1.8268,1.8894,1.8894,1.9486,2.0335,2.0987,2.1292,2.1529,2.211,2.2296,2.2296,2.2296,2.2296,2.2296,2.2296,2.2296,2.2296,2.2296,2.2296,2.2296,2.2296,2.2296,2.2296,2.2296,2.2296,2.2296,2.2296,2.2296,2.2296,2.2296,2.2296,2.2296,2.2296,2.2388,2.266,2.3159,2.3323,2.361,2.4161,2.419,2.419,2.419,2.419,2.419,2.419,2.419,2.419,2.419,2.419,2.419,2.419,2.419,2.4218,2.4266,2.4218,2.4247,0.0,0.0,1.1603,1.1241,0.0,0.0,0.0,0.0,0.0,0.0,0.0,0.0,0.0,0.0,0.0,0.0,0.0,0.0,0.0,0.0,0.0,0.0,0.0,0.0,0.0,1.3396,1.3396,1.3396,1.3286,1.3269,1.3388,1.3396,1.3396,1.3396,1.3396,1.3396,1.3396,1.3277,1.3129,1.3004,1.3004,1.2794,1.2427,1.3414,1.3664,1.3433,1.502,1.587,1.6187,1.6763,1.7322,1.7789,1.7624,1.7658,1.78,1.78,1.802,1.8352,1.8352,1.9084,2.0082,2.0471,2.1126,2.182,2.2178,2.2296,2.2237,2.2017,2.212,2.2296,2.2296,2.2296,2.2296,2.2296,2.2296,2.2296,2.2296,2.2296,2.2296,2.2296,2.2296,2.2296,2.2296,2.2296,2.2296,2.2296,2.2296,2.2296,2.2296,2.2412,2.2682,2.3141,2.3357,2.366,2.4161,2.419,2.419,2.419,2.419,2.419,2.419,2.419,2.419,2.419,2.419,2.419,2.419,2.419,2.4256,2.4339,2.4256,2.4312,0.0,0.0,0.0,0.0,0.0,1.0497,0.0,0.0,0.0,0.0,0.0,0.0,0.0,0.0,0.0,0.0,0.0,0.0,0.0,0.0,0.0,0.0,0.0,0.0,0.0,1.2857,1.2967,1.3235,1.2962,1.2945,1.3218,1.3286,1.3303,1.3252,1.3252,1.3269,1.3329,1.3329,1.3234,1.3076,1.3076,1.2859,1.25,1.3514,1.3939,1.3956,1.5103,1.6025,1.6705,1.6787,1.7176,1.7681,1.7491,1.7561,1.78,1.78,1.78,1.7817,1.7952,1.8797,1.9816,2.0026,2.0968,2.2063,2.2135,2.218,2.2092,2.1703,2.1928,2.2296,2.2296,2.2296,2.2296,2.2296,2.2296,2.2296,2.2296,2.2296,2.2296,2.2296,2.2296,2.2296,2.2296,2.2296,2.2296,2.2296,2.2296,2.2296,2.2296,2.2487,2.2776,2.3153,2.3437,2.3774,2.417,2.419,2.419,2.419,2.419,2.419,2.419,2.419,2.419,2.419,2.419,2.419,2.419,2.419,2.4275,2.4435,2.4294,2.4375,0.0,0.0,0.0,0.0,1.266,0.0,0.0,0.0,0.0,0.0,0.0,0.0,0.0,0.0,0.0,0.0,0.0,0.0,0.0,0.0,0.0,0.0,0.0,0.0,0.0,0.0,1.14,1.2599,1.2328,1.228,1.2673,1.2924,1.2942,1.2696,1.2687,1.2806,1.3049,1.3049,1.3147,1.3354,1.3354,1.3381,1.3489,1.448,1.4805,1.4677,1.6341,1.692,1.6728,1.7091,1.7273,1.738,1.7647,1.7777,1.78,1.78,1.78,1.7884,1.8555,1.8877,1.9171,2.0132,2.0762,2.1213,2.1568,2.1673,2.1673,2.1628,2.1928,2.2296,2.2296,2.2296,2.2296,2.2296,2.2296,2.2296,2.2296,2.2296,2.2296,2.2296,2.2296,2.2296,2.2296,2.2296,2.2296,2.2296,2.2296,2.2296,2.2296,2.2338,2.2558,2.3147,2.3224,2.3522,2.4151,2.419,2.419,2.419,2.419,2.419,2.419,2.419,2.419,2.419,2.419,2.419,2.419,2.419,2.4209,2.4237,2.4209,2.4228,0.0,0.0,0.0,0.0,0.0,0.0,1.003,0.0,0.9393,0.0,0.0,0.0,0.0,0.0,0.0,0.0,0.0,0.0,0.0,0.0,0.0,0.0,0.0,0.0,0.0,0.0,0.0,0.0,0.0,1.1674,1.2004,1.2505,1.2722,1.2601,1.2601,1.2649,1.2769,1.2924,1.3058,1.3165,1.3758,1.3882,1.3658,1.5076,1.5598,1.5385,1.628,1.6914,1.731,1.7054,1.7199,1.7584,1.7526,1.7514,1.7537,1.7726,1.7681,1.7614,1.8323,1.8711,1.9102,2.0382,2.0892,2.0975,2.0878,2.1039,2.1197,2.0927,2.1353,2.1899,2.1899,2.2106,2.2296,2.2296,2.2296,2.2296,2.2296,2.2296,2.2296,2.2296,2.2296,2.2296,2.2296,2.2296,2.2296,2.2296,2.2296,2.2296,2.2296,2.244,2.2704,2.3153,2.338,2.3682,2.4161,2.419,2.419,2.419,2.419,2.419,2.419,2.419,2.419,2.419,2.419,2.419,2.419,2.419,2.419,2.419,2.419,2.419,1.4362,0.0,0.0,0.0,0.0,0.0,0.0,0.0,0.0,0.0,0.0,0.0,0.0,0.0,0.0,0.0,0.0,0.0,0.0,0.0,0.0,0.0,0.0,0.0,0.0,0.0,0.0,0.0,0.0,0.0,1.127,1.1885,1.2269,1.237,1.2386,1.2416,1.2485,1.2684,1.2822,1.2896,1.3915,1.4222,1.3956,1.5594,1.629,1.622,1.6429,1.6997,1.7749,1.7126,1.7138,1.7502,1.7356,1.7199,1.7089,1.7502,1.7455,1.7306,1.8273,1.8901,1.9464,2.0639,2.0829,2.0599,2.0365,2.0533,2.0747,2.0399,2.0862,2.146,2.1567,2.1853,2.2135,2.2268,2.2296,2.2296,2.2296,2.2296,2.2296,2.2296,2.2296,2.2296,2.2296,2.2296,2.2296,2.2296,2.2296,2.2296,2.2296,2.2477,2.2738,2.3153,2.3414,2.3742,2.4161,2.419,2.419,2.419,2.419,2.419,2.419,2.419,2.419,2.419,2.419,2.419,2.419,2.419,2.419,2.419,2.419,2.419,0.0,0.0,0.0,1.3032,0.0,0.0,0.0,0.0,1.0825,0.0,0.0,0.0,0.0,0.0,0.0,0.0,0.0,0.0,0.0,0.0,0.0,0.0,0.0,0.0,0.0,0.0,0.0,0.0,0.0,0.0,1.0488,1.0982,1.142,1.1807,1.1837,1.195,1.22,1.221,1.2362,1.262,1.3628,1.4308,1.471,1.6064,1.6886,1.7247,1.7263,1.7457,1.776,1.7422,1.7109,1.6866,1.7175,1.6898,1.6407,1.706,1.7101,1.7059,1.8767,1.9758,2.0337,2.0846,2.043,1.9818,2.0193,2.0314,2.0314,2.0299,2.0649,2.1102,2.1491,2.1613,2.1733,2.2194,2.2296,2.2296,2.2296,2.2296,2.2296,2.2296,2.2296,2.2296,2.2296,2.2296,2.2296,2.2296,2.2296,2.2296,2.2296,2.231,2.2531,2.3147,2.32,2.3471,2.4151,2.419,2.419,2.419,2.419,2.419,2.419,2.419,2.419,2.419,2.419,2.419,2.419,2.419,2.419,2.419,2.419,2.419,0.0,0.0,1.6106,1.3642,0.0,0.0,0.0,0.0,0.0,0.0,0.0,0.0,0.0,0.0,0.0,0.0,0.0,0.0,0.0,0.0,0.0,0.0,0.0,0.0,0.0,0.0,0.0,0.0,0.0,0.0,0.0,1.0494,1.1237,1.1141,1.158,1.1833,1.1929,1.2107,1.2241,1.2368,1.4029,1.4782,1.4746,1.6362,1.7054,1.6977,1.7195,1.7368,1.7467,1.7356,1.7236,1.7101,1.6773,1.6501,1.634,1.6799,1.6763,1.6637,1.785,1.8988,1.9927,2.0102,1.9927,1.9744,1.9856,1.9909,1.9909,1.9909,2.0431,2.1023,2.1166,2.163,2.2106,2.2268,2.2296,2.2296,2.2296,2.2296,2.2296,2.2296,2.2296,2.2296,2.2296,2.2296,2.2296,2.2296,2.2296,2.2296,2.2296,2.245,2.273,2.3153,2.3403,2.3714,2.4161,2.419,2.419,2.419,2.419,2.419,2.419,2.419,2.419,2.419,2.419,2.419,2.419,2.419,2.419,2.419,2.419,2.419,1.6062,1.6333,0.0,1.4285,1.3794,0.0,1.1275,0.0,0.0,0.0,0.0,0.0,0.0,0.0,0.0,0.0,0.0,0.0,0.0,0.0,0.0,0.0,0.0,0.0,0.0,0.0,0.7341,0.7743,0.0,0.0,0.0,0.0,1.1038,1.1156,1.157,1.1805,1.1805,1.1961,1.2178,1.2422,1.4089,1.4955,1.5138,1.6619,1.7248,1.7154,1.7126,1.7187,1.7284,1.7035,1.6935,1.6914,1.6474,1.6232,1.6163,1.6501,1.6772,1.7067,1.7798,1.8777,1.9708,1.9708,1.9708,1.9708,1.9708,1.98,1.9909,1.9909,2.0431,2.1023,2.1166,2.163,2.2092,2.2268,2.2296,2.2296,2.2296,2.2296,2.2296,2.2296,2.2296,2.2296,2.2296,2.2296,2.2296,2.2296,2.2296,2.2296,2.2296,2.245,2.2678,2.2984,2.3323,2.3703,2.4161,2.419,2.419,2.419,2.419,2.419,2.419,2.419,2.419,2.419,2.419,2.419,2.419,2.419,2.419,2.419,2.419,2.419]}]]